[[{"header":{"parameterUnit":"m.s-1","parameterCategory":1,"la1":30.6,"la2":28.766,"lo1":-90.7593,"lo2":-88.6598,"dy":0.0162,"dx":0.0183,"nx":116,"ny":114,"refTime":"2024-05-22T06:00:00:Z","depth":0,"parameterNumber":2,"parameterNumberName":"U-component_of_WINDS"},"data":[0.0,0.0,0.0,0.0,0.0,0.0,0.0,0.0,0.0,0.0,0.0,0.0,0.0,0.0,0.0,0.0,0.0,0.0,0.0,0.0,0.0,0.0,0.0,0.0,0.0,0.0,0.0,0.0,0.0,0.0,0.0,0.0,0.0,0.0,0.0,0.0,0.0,0.0,0.0,0.0,0.0,0.0,0.0,0.0,0.0,0.0,0.0,0.0,0.0,0.0,0.0,0.0,0.0,0.0,0.0,0.0,0.0,0.0,0.0,0.0,0.0,0.0,0.0,0.0,0.0,0.0,0.0,0.0,0.0,0.0,0.0,0.0,0.0,0.0,0.0,0.0,0.0,0.0,0.0,0.0,0.0,0.0,0.0,0.0,0.0,0.0,0.0,0.0,0.0,0.0,0.0,0.0,0.0,0.0,0.0,0.0,0.0,0.0,0.0,0.0,0.0,0.0,0.0,0.0,0.0,0.0,0.0,0.0,0.0,0.0,0.0,0.0,0.0,0.0,0.0,0.0,0.0,0.0,0.0,0.0,0.0,0.0,0.0,0.0,0.0,0.0,0.0,0.0,0.0,0.0,0.0,0.0,0.0,0.0,0.0,0.0,0.0,0.0,0.0,0.0,0.0,0.0,0.0,0.0,0.0,0.0,0.0,0.0,0.0,0.0,0.0,0.0,0.0,0.0,0.0,0.0,0.0,0.0,0.0,0.0,0.0,0.0,0.0,0.0,0.0,0.0,0.0,0.0,0.0,0.0,0.0,0.0,0.0,0.0,0.0,0.0,0.0,0.0,0.0,0.0,0.0,0.0,0.0,0.0,0.0,0.0,0.0,0.0,0.0,0.0,0.0,0.0,0.0,0.0,0.0,0.0,0.0,0.0,0.0,0.0,0.0,0.0,0.0,0.0,0.0,0.0,0.0,0.0,0.0,0.0,0.0,0.0,0.0,0.0,0.0,0.0,0.0,0.0,0.0,0.0,0.0,0.0,0.0,0.0,0.0,0.0,0.0,0.0,0.0,0.0,0.0,0.0,0.0,0.0,0.0,0.0,0.0,0.0,0.0,0.0,0.0,0.0,0.0,0.0,0.0,0.0,0.0,0.0,0.0,0.0,0.0,0.0,0.0,0.0,0.0,0.0,0.0,0.0,0.0,0.0,0.0,0.0,0.0,0.0,0.0,0.0,0.0,0.0,0.0,0.0,0.0,0.0,0.0,0.0,0.0,0.0,0.0,0.0,0.0,0.0,0.0,0.0,0.0,0.0,0.0,0.0,0.0,0.0,0.0,0.0,0.0,0.0,0.0,0.0,0.0,0.0,0.0,0.0,0.0,0.0,0.0,0.0,0.0,0.0,0.0,0.0,0.0,0.0,0.0,0.0,0.0,0.0,0.0,0.0,0.0,0.0,0.0,0.0,0.0,0.0,0.0,0.0,0.0,0.0,0.0,0.0,0.0,0.0,0.0,0.0,0.0,0.0,0.0,0.0,0.0,0.0,0.0,0.0,0.0,0.0,0.0,0.0,0.0,0.0,0.0,0.0,0.0,0.0,0.0,0.0,0.0,0.0,0.0,0.0,0.0,0.0,0.0,0.0,0.0,0.0,0.0,0.0,0.0,0.0,0.0,0.0,0.0,0.0,0.0,0.0,0.0,0.0,0.0,0.0,0.0,0.0,0.0,0.0,0.0,0.0,0.0,0.0,0.0,0.0,0.0,0.0,0.0,0.0,0.0,0.0,0.0,0.0,0.0,0.0,0.0,0.0,0.0,0.0,0.0,0.0,0.0,0.0,0.0,0.0,0.0,0.0,0.0,0.0,0.0,0.0,0.0,0.0,0.0,0.0,0.0,0.0,0.0,0.0,0.0,0.0,0.0,0.0,0.0,0.0,0.0,0.0,0.0,0.0,0.0,0.0,0.0,0.0,0.0,0.0,0.0,0.0,0.0,0.0,0.0,0.0,0.0,0.0,0.0,0.0,0.0,0.0,0.0,0.0,0.0,0.0,0.0,0.0,0.0,0.0,0.0,0.0,0.0,0.0,0.0,0.0,0.0,0.0,0.0,0.0,0.0,0.0,0.0,0.0,0.0,0.0,0.0,0.0,0.0,0.0,0.0,0.0,0.0,0.0,0.0,0.0,0.0,0.0,0.0,0.0,0.0,0.0,0.0,0.0,0.0,0.0,0.0,0.0,0.0,0.0,0.0,0.0,0.0,0.0,0.0,0.0,0.0,0.0,0.0,0.0,0.0,0.0,0.0,0.0,0.0,0.0,0.0,0.0,0.0,0.0,0.0,0.0,0.0,0.0,0.0,0.0,0.0,0.0,0.0,0.0,0.0,0.0,0.0,0.0,0.0,0.0,0.0,0.0,0.0,0.0,0.0,0.0,0.0,0.0,0.0,0.0,0.0,0.0,0.0,0.0,0.0,0.0,0.0,0.0,0.0,0.0,0.0,0.0,0.0,0.0,0.0,0.0,0.0,0.0,0.0,0.0,0.0,0.0,0.0,0.0,0.0,0.0,0.0,0.0,0.0,0.0,0.0,0.0,0.0,0.0,0.0,0.0,0.0,0.0,0.0,0.0,0.0,0.0,0.0,0.0,0.0,0.0,0.0,0.0,0.0,0.0,0.0,0.0,0.0,0.0,0.0,0.0,0.0,0.0,0.0,0.0,0.0,0.0,0.0,0.0,0.0,0.0,0.0,0.0,0.0,0.0,0.0,0.0,0.0,0.0,0.0,0.0,0.0,0.0,0.0,0.0,0.0,0.0,0.0,0.0,0.0,0.0,0.0,0.0,0.0,0.0,0.0,0.0,0.0,0.0,0.0,0.0,0.0,0.0,0.0,0.0,0.0,0.0,0.0,0.0,0.0,0.0,0.0,0.0,0.0,0.0,0.0,0.0,0.0,0.0,0.0,0.0,0.0,0.0,0.0,0.0,0.0,0.0,0.0,0.0,0.0,0.0,0.0,0.0,0.0,0.0,0.0,0.0,0.0,0.0,0.0,0.0,0.0,0.0,0.0,0.0,0.0,0.0,0.0,0.0,0.0,0.0,0.0,0.0,0.0,0.0,0.0,0.0,0.0,0.0,0.0,0.0,0.0,0.0,0.0,0.0,0.0,0.0,0.0,0.0,0.0,0.0,0.0,0.0,0.0,0.0,0.0,0.0,0.0,0.0,0.0,0.0,0.0,0.0,0.0,0.0,0.0,0.0,0.0,0.0,0.0,0.0,0.0,0.0,0.0,0.0,0.0,0.0,0.0,0.0,0.0,0.0,0.0,0.0,0.0,0.0,0.0,0.0,0.0,0.0,0.0,0.0,0.0,0.0,0.0,0.0,0.0,0.0,0.0,0.0,0.0,0.0,0.0,0.0,0.0,0.0,0.0,0.0,0.0,0.0,0.0,0.0,0.0,0.0,0.0,0.0,0.0,0.0,0.0,0.0,0.0,0.0,0.0,0.0,0.0,0.0,0.0,0.0,0.0,0.0,0.0,0.0,0.0,0.0,0.0,0.0,0.0,0.0,0.0,0.0,0.0,0.0,0.0,0.0,0.0,0.0,0.0,0.0,0.0,0.0,0.0,0.0,0.0,0.0,0.0,0.0,0.0,0.0,0.0,0.0,0.0,0.0,0.0,0.0,0.0,0.0,0.0,0.0,0.0,0.0,0.0,0.0,0.0,0.0,0.0,0.0,0.0,0.0,0.0,0.0,0.0,0.0,0.0,0.0,0.0,0.0,0.0,0.0,0.0,0.0,0.0,0.0,0.0,0.0,0.0,0.0,0.0,0.0,0.0,0.0,0.0,0.0,0.0,0.0,0.0,0.0,0.0,0.0,0.0,0.0,0.0,0.0,0.0,0.0,0.0,0.0,0.0,0.0,0.0,0.0,0.0,0.0,0.0,0.0,0.0,0.0,0.0,0.0,0.0,0.0,0.0,0.0,0.0,0.0,0.0,0.0,0.0,0.0,0.0,0.0,0.0,0.0,0.0,0.0,0.0,0.0,0.0,0.0,0.0,0.0,0.0,0.0,0.0,0.0,0.0,0.0,0.0,0.0,0.0,0.0,0.0,0.0,0.0,0.0,0.0,0.0,0.0,0.0,0.0,0.0,0.0,0.0,0.0,0.0,0.0,0.0,0.0,0.0,0.0,0.0,0.0,0.0,0.0,0.0,0.0,0.0,0.0,0.0,0.0,0.0,0.0,0.0,0.0,0.0,0.0,0.0,0.0,0.0,0.0,0.0,0.0,0.0,0.0,0.0,0.0,0.0,0.0,0.0,0.0,0.0,0.0,0.0,0.0,0.0,0.0,0.0,0.0,0.0,0.0,0.0,0.0,0.0,0.0,0.0,0.0,0.0,0.0,0.0,0.0,0.0,0.0,0.0,0.0,0.0,0.0,0.0,0.0,0.0,0.0,0.0,0.0,0.0,0.0,0.0,0.0,0.0,0.0,0.0,0.0,0.0,0.0,0.0,0.0,0.0,0.0,0.0,0.0,0.0,0.0,0.0,0.0,0.0,0.0,0.0,0.0,0.0,0.0,0.0,0.0,0.0,0.0,0.0,0.0,0.0,0.0,0.0,0.0,0.0,0.0,0.0,0.0,0.0,0.0,0.0,0.0,0.0,0.0,0.0,0.0,0.0,0.0,0.0,0.0,0.0,0.0,0.0,0.0,0.0,0.0,0.0,0.0,0.0,0.0,0.0,0.0,0.0,0.0,0.0,0.0,0.0,0.0,0.0,0.0,0.0,0.0,0.0,0.0,0.0,0.0,0.0,0.0,0.0,0.0,0.0,0.0,0.0,0.0,0.0,0.0,0.0,0.0,0.0,0.0,0.0,0.0,0.0,0.0,0.0,0.0,0.0,0.0,0.0,0.0,0.0,0.0,0.0,0.0,0.0,0.0,0.0,0.0,0.0,0.0,0.0,0.0,0.0,0.0,0.0,0.0,0.0,0.0,0.0,0.0,0.0,0.0,0.0,0.0,0.0,0.0,0.0,0.0,0.0,0.0,0.0,0.0,0.0,0.0,0.0,0.0,0.0,0.0,0.0,0.0,0.0,0.0,0.0,0.0,0.0,0.0,0.0,0.0,0.0,0.0,0.0,0.0,0.0,0.0,0.0,0.0,0.0,0.0,0.0,0.0,0.0,0.0,0.0,0.0,0.0,0.0,0.0,0.0,0.0,0.0,0.0,0.0,0.0,0.0,0.0,0.0,0.0,0.0,0.0,0.0,0.0,0.0,0.0,0.0,0.0,0.0,0.0,0.0,0.0,0.0,0.0,0.0,0.0,0.0,0.0,0.0,0.0,0.0,0.0,0.0,0.0,0.0,0.0,0.0,0.0,0.0,0.0,0.0,0.0,0.0,0.0,0.0,0.0,0.0,0.0,0.0,0.0,0.0,0.0,0.0,0.0,0.0,0.0,0.0,0.0,0.0,0.0,0.0,0.0,0.0,0.0,0.0,0.0,0.0,0.0,0.0,0.0,0.0,0.0,0.0,0.0,0.0,0.0,0.0,0.0,0.0,0.0,0.0,0.0,0.0,0.0,0.0,0.0,0.0,0.0,0.0,0.0,0.0,0.0,0.0,0.0,0.0,0.0,0.0,0.0,0.0,0.0,0.0,0.0,0.0,0.0,0.0,0.0,0.0,0.0,0.0,0.0,0.0,0.0,0.0,0.0,0.0,0.0,0.0,0.0,0.0,0.0,0.0,0.0,0.0,0.0,0.0,0.0,0.0,0.0,0.0,0.0,0.0,0.0,0.0,0.0,0.0,0.0,0.0,0.0,0.0,0.0,0.0,0.0,0.0,0.0,0.0,0.0,0.0,0.0,0.0,0.0,0.0,0.0,0.0,0.0,0.0,0.0,0.0,0.0,0.0,0.0,0.0,0.0,0.0,0.0,0.0,0.0,0.0,0.0,0.0,0.0,0.0,0.0,0.0,0.0,0.0,0.0,0.0,0.0,0.0,0.0,0.0,0.0,0.0,0.0,0.0,0.0,0.0,0.0,0.0,0.0,0.0,0.0,0.0,0.0,0.0,0.0,0.0,0.0,0.0,0.0,0.0,0.0,0.0,0.0,0.0,0.0,0.0,0.0,0.0,0.0,0.0,0.0,0.0,0.0,0.0,0.0,-4.2774,0.0,0.0,0.0,0.0,0.0,0.0,0.0,0.0,0.0,0.0,0.0,0.0,0.0,0.0,0.0,0.0,0.0,0.0,0.0,0.0,0.0,0.0,0.0,0.0,-3.7299,-3.8488,-3.895,-3.9249,-3.911,-3.8414,0.0,0.0,0.0,0.0,0.0,-3.543,-3.4744,-3.4318,-3.414,-3.3513,-3.3199,-3.3215,-3.4022,-3.5152,-3.6482,0.0,0.0,0.0,0.0,0.0,0.0,0.0,0.0,0.0,0.0,0.0,0.0,0.0,0.0,0.0,0.0,0.0,0.0,0.0,0.0,0.0,0.0,0.0,0.0,0.0,0.0,0.0,0.0,0.0,0.0,0.0,0.0,0.0,0.0,0.0,0.0,0.0,0.0,0.0,0.0,0.0,0.0,0.0,0.0,0.0,0.0,0.0,0.0,0.0,0.0,0.0,0.0,0.0,0.0,0.0,0.0,0.0,0.0,0.0,0.0,0.0,0.0,0.0,0.0,0.0,0.0,0.0,0.0,0.0,0.0,0.0,-4.2598,0.0,0.0,0.0,0.0,0.0,0.0,0.0,0.0,0.0,0.0,0.0,0.0,0.0,0.0,0.0,0.0,0.0,0.0,0.0,0.0,0.0,-3.2812,-3.4493,-3.5808,-3.6869,-3.7722,-3.7793,-3.7719,-3.7602,-3.7602,0.0,0.0,0.0,-3.5407,-3.3808,-3.3268,-3.2865,-3.2593,-3.1495,-3.0945,-3.0979,-3.2357,-3.3757,-3.5109,-3.5857,0.0,0.0,0.0,0.0,0.0,0.0,0.0,0.0,0.0,0.0,0.0,0.0,0.0,0.0,0.0,0.0,0.0,0.0,0.0,0.0,0.0,0.0,0.0,0.0,0.0,0.0,0.0,0.0,0.0,0.0,0.0,0.0,0.0,0.0,0.0,0.0,0.0,0.0,0.0,0.0,0.0,0.0,0.0,0.0,0.0,0.0,0.0,0.0,0.0,0.0,0.0,0.0,0.0,0.0,0.0,0.0,0.0,0.0,0.0,0.0,0.0,0.0,0.0,-4.2286,-4.2286,-4.2269,-4.1677,-4.1597,-4.193,-4.1775,-4.2016,-4.2539,-4.2539,0.0,0.0,0.0,0.0,0.0,0.0,0.0,0.0,0.0,0.0,0.0,0.0,0.0,0.0,0.0,0.0,0.0,0.0,0.0,-3.1826,-3.4335,-3.5358,-3.6353,-3.7694,-3.7793,-3.7515,-3.6783,-3.6768,0.0,0.0,-3.4336,-3.3848,-3.282,-3.2701,-3.263,-3.2593,-3.2406,-3.2323,-3.2323,-3.2556,-3.2786,-3.3061,-3.49,-3.5646,-3.5577,0.0,0.0,0.0,0.0,0.0,0.0,0.0,0.0,0.0,0.0,0.0,0.0,0.0,0.0,0.0,0.0,0.0,0.0,0.0,0.0,0.0,0.0,0.0,0.0,0.0,0.0,0.0,0.0,0.0,0.0,0.0,0.0,0.0,0.0,0.0,0.0,0.0,0.0,0.0,0.0,0.0,-4.222,-4.2933,0.0,0.0,0.0,0.0,0.0,0.0,0.0,0.0,0.0,0.0,0.0,0.0,0.0,-4.2342,-4.2151,-4.2342,-4.2392,-4.2286,-4.2286,-4.2286,-4.2286,-4.2202,-4.1848,-4.1316,-4.1299,0.0,-4.1916,-4.1916,0.0,0.0,0.0,0.0,0.0,0.0,0.0,0.0,0.0,0.0,0.0,0.0,0.0,0.0,0.0,0.0,0.0,0.0,0.0,0.0,0.0,-3.2856,-3.3863,-3.4795,-3.4881,-3.4732,-3.4378,-3.433,-3.4023,-3.3241,-3.3206,-3.2784,-3.1815,-3.1198,-3.0289,-2.9155,-2.9155,-2.9476,-3.0088,-3.0615,-3.1198,-3.1861,-3.3288,-3.422,-3.4739,-3.4432,0.0,0.0,0.0,0.0,0.0,0.0,0.0,0.0,0.0,0.0,0.0,0.0,0.0,0.0,0.0,0.0,0.0,0.0,0.0,0.0,0.0,0.0,0.0,0.0,0.0,0.0,0.0,0.0,0.0,0.0,0.0,0.0,0.0,0.0,0.0,0.0,0.0,0.0,0.0,-4.158,-4.2339,-4.2663,-4.2757,-4.2398,0.0,0.0,0.0,0.0,0.0,0.0,0.0,0.0,0.0,-4.2895,-4.2929,-4.3132,-4.3599,-4.3599,-4.3599,-4.3599,-4.3599,-4.3599,-4.3582,-4.3115,-4.2523,-4.1796,-4.139,-4.106,-4.0885,-4.1155,-4.149,-4.181,0.0,0.0,0.0,0.0,-4.1102,-4.0202,0.0,0.0,0.0,0.0,0.0,0.0,0.0,0.0,0.0,0.0,0.0,0.0,-2.9983,-3.1059,-3.1965,-3.2567,-3.2593,-3.2593,-3.2593,-3.2352,-3.2208,-3.2249,-3.1711,-3.1088,-3.0405,-2.9296,-2.8001,-2.6524,-2.6524,-2.6924,-2.7723,-2.8409,-2.918,-3.005,-3.1147,-3.2435,-3.3718,-3.351,-3.3303,-3.2995,0.0,0.0,0.0,0.0,0.0,0.0,0.0,0.0,0.0,0.0,0.0,0.0,0.0,0.0,0.0,0.0,0.0,0.0,0.0,0.0,0.0,0.0,0.0,0.0,0.0,0.0,0.0,0.0,0.0,0.0,0.0,0.0,0.0,0.0,0.0,0.0,0.0,-4.2286,-4.2905,-4.2905,-4.3369,-4.32,0.0,0.0,0.0,0.0,0.0,0.0,-4.3149,-4.3166,-4.3504,-4.4265,-4.4282,-4.4468,-4.4874,-4.4874,-4.4801,-4.4615,-4.4615,-4.4615,-4.4581,-4.3978,-4.3301,-4.254,-4.1796,-4.1052,-4.0392,-4.0614,-4.0967,-4.1375,-4.1375,-4.1375,-4.1375,-4.1375,-4.0734,-3.9962,0.0,0.0,0.0,0.0,0.0,0.0,0.0,0.0,0.0,0.0,0.0,-2.9311,-3.0618,-3.1247,-3.1868,-3.2552,-3.2593,-3.2593,-3.2593,-3.1635,-3.1122,-3.1278,-2.9246,-2.8163,-2.8243,-2.7197,-2.6595,-2.6524,-2.6524,-2.6524,-2.6595,-2.6637,-2.6678,-2.6812,-2.8391,-3.0405,-3.2652,-3.2,-3.1695,-3.1638,-3.1006,0.0,0.0,0.0,0.0,0.0,0.0,0.0,0.0,0.0,0.0,0.0,0.0,0.0,0.0,0.0,0.0,0.0,0.0,0.0,0.0,0.0,0.0,0.0,0.0,0.0,0.0,0.0,0.0,0.0,0.0,0.0,0.0,0.0,0.0,0.0,0.0,0.0,0.0,-4.4479,-4.453,0.0,0.0,0.0,0.0,-4.3223,-4.3308,-4.3967,-4.5466,-4.5534,-4.5872,-4.6599,-4.6616,-4.6312,-4.5652,-4.5652,-4.528,-4.4615,-4.4615,-4.4615,-4.4615,-4.4564,-4.4096,-4.3291,-4.2557,-4.183,-4.1085,-4.0426,-4.0171,-4.0196,-4.0196,-4.0196,-4.0196,-4.0196,-4.0137,-4.0095,0.0,0.0,0.0,0.0,0.0,-2.3608,-2.4081,-2.4604,-2.5117,-2.5595,-2.6278,-2.7059,-2.7932,-2.7865,-2.8268,-2.9579,-2.9063,-2.8985,-2.9668,-2.9347,-2.9165,-2.9203,-2.8433,-2.7394,-2.6025,-2.5577,-2.5052,-2.4307,-2.4307,-2.4681,-2.542,-2.542,-2.5797,-2.6547,-2.7353,-2.821,-2.9187,-3.1068,-3.1965,-3.2128,-3.1521,-3.1423,0.0,0.0,0.0,0.0,0.0,0.0,0.0,0.0,0.0,0.0,0.0,0.0,0.0,0.0,0.0,0.0,0.0,0.0,0.0,0.0,0.0,0.0,0.0,0.0,0.0,0.0,0.0,0.0,0.0,0.0,0.0,0.0,0.0,0.0,0.0,0.0,0.0,-4.5314,-4.616,0.0,-4.501,-4.5077,-4.5111,-4.4908,-4.5331,-4.5838,-4.638,-4.6413,-4.6752,-4.7496,-4.7056,-4.6667,-4.6413,-4.594,-4.5331,-4.4615,-4.4615,-4.4615,-4.4615,-4.4615,-4.4147,-4.3341,-4.2625,-4.188,-4.1136,-4.0417,-4.0096,-4.0096,-4.0096,-4.0096,-4.0096,-4.0096,-4.0096,-4.0096,0.0,0.0,0.0,0.0,-2.3685,-2.3468,-2.3689,-2.4344,-2.485,-2.5059,-2.5865,-2.6661,-2.7242,-2.6796,-2.6898,-2.802,-2.7128,-2.6801,-2.7522,-2.7186,-2.7145,-2.7522,-2.7186,-2.592,-2.3644,-2.3601,-2.3057,-2.1908,-2.2315,-2.2867,-2.3654,-2.4029,-2.4628,-2.5379,-2.6214,-2.668,-2.7006,-2.9552,-3.0968,-3.1479,-3.0876,-3.1227,-3.1969,0.0,0.0,0.0,0.0,0.0,0.0,0.0,0.0,0.0,0.0,0.0,0.0,0.0,0.0,0.0,0.0,0.0,0.0,0.0,0.0,0.0,0.0,0.0,0.0,0.0,0.0,0.0,0.0,0.0,0.0,0.0,0.0,0.0,0.0,-4.5111,-4.6075,-4.6075,-4.7158,-4.7428,-4.6194,-4.6498,-4.6701,-4.6464,-4.6904,-4.7276,-4.753,-4.753,-4.7767,-4.8274,-4.78,-4.7293,-4.6786,-4.6312,-4.5568,-4.4615,-4.4615,-4.4615,-4.4615,-4.4615,-4.4327,-4.3775,-4.2997,-4.2252,-4.1508,-4.0764,-4.0333,-4.0096,-4.0096,-4.0096,-4.0096,-4.0096,-4.0096,-4.0096,0.0,0.0,0.0,-2.4485,-2.393,-2.3624,-2.4309,-2.4618,-2.4976,-2.5523,-2.6984,-2.82,-2.875,-2.8309,-2.8004,-2.8004,-2.7035,-2.6431,-2.6431,-2.542,-2.5294,-2.64,-2.5378,-2.3697,-2.1337,-2.1293,-2.0711,-1.9497,-2.0657,-2.1248,-2.1248,-2.2492,-2.3047,-2.311,-2.4813,-2.582,-2.6286,-2.7371,-2.8471,-2.9473,-2.8994,-2.9989,-3.1717,0.0,0.0,0.0,0.0,0.0,0.0,0.0,0.0,0.0,0.0,0.0,0.0,0.0,0.0,0.0,0.0,0.0,0.0,0.0,0.0,0.0,0.0,0.0,0.0,0.0,0.0,0.0,0.0,0.0,0.0,0.0,0.0,0.0,-4.4632,-4.5889,-4.6819,-4.6819,-4.7496,-4.7665,-4.6938,-4.6853,-4.7158,-4.7872,-4.7922,-4.8257,-4.8968,-4.9001,-4.9001,-4.9001,-4.9001,-4.8308,-4.6836,-4.6802,-4.6058,-4.4632,-4.4615,-4.4615,-4.4615,-4.4615,-4.4615,-4.4564,-4.3758,-4.298,-4.2236,-4.1508,-4.0764,-4.0096,-4.0096,-4.0096,-4.0096,-4.0096,-4.0096,-4.0096,0.0,0.0,-2.4282,-2.4552,-2.393,-2.3624,-2.4309,-2.4618,-2.4976,-2.5523,-2.566,-2.5912,-2.6459,-2.6025,-2.5703,-2.5703,-2.5452,-2.5252,-2.5252,-2.4957,-2.4957,-2.5252,-2.4957,-2.3697,-2.1337,-2.1293,-2.0711,-1.9497,-1.9852,-1.9988,-2.0034,-2.1212,-2.18,-2.1863,-2.3555,-2.4366,-2.4571,-2.5467,-2.6549,-2.7674,-2.7917,-2.8757,-3.0004,0.0,0.0,0.0,0.0,0.0,0.0,0.0,0.0,0.0,0.0,0.0,0.0,0.0,0.0,0.0,0.0,0.0,0.0,0.0,0.0,0.0,0.0,0.0,0.0,0.0,0.0,0.0,0.0,0.0,0.0,0.0,-4.3927,-4.4801,-4.5314,-4.6684,-4.7614,-4.7614,-4.8257,-4.8629,-4.8409,-4.8392,-4.8477,-4.8697,-4.8714,-4.8798,-4.8984,-4.9001,-4.9001,-4.9001,-4.9001,-4.8562,-4.7614,-4.7073,-4.6329,-4.5382,-4.4869,-4.4615,-4.4615,-4.4615,-4.4615,-4.4564,-4.3758,-4.298,-4.2236,-4.1508,-4.0764,-4.0096,-4.0096,-4.0096,-4.0096,-4.0096,-4.0096,-4.0096,0.0,-2.5089,-2.4697,-2.4545,-2.4335,-2.4165,-2.4017,-2.4714,-2.5185,-2.5043,-2.5308,-2.5495,-2.5436,-2.488,-2.4462,-2.4272,-2.399,-2.3859,-2.3859,-2.398,-2.4082,-2.4082,-2.4082,-2.3197,-2.1337,-2.08,-1.9943,-1.8726,-1.8726,-1.8726,-1.8772,-2.0486,-2.1293,-2.1346,-2.2847,-2.3623,-2.3828,-2.4316,-2.5192,-2.6182,-2.648,-2.7688,-2.932,-2.9532,-3.0211,-3.1055,-3.1654,-3.2155,-3.2742,-3.4278,0.0,0.0,0.0,0.0,0.0,0.0,0.0,0.0,0.0,0.0,0.0,0.0,0.0,0.0,0.0,0.0,0.0,0.0,0.0,0.0,0.0,0.0,0.0,0.0,-4.528,-4.6126,-4.6566,-4.7348,-4.7868,-4.778,-4.8498,-4.9001,-4.9001,-4.9001,-4.9001,-4.9001,-4.9001,-4.9001,-4.9001,-4.9001,-4.9001,-4.9001,-4.9001,-4.8663,-4.7889,-4.7175,-4.643,-4.5703,-4.4942,-4.4615,-4.4615,-4.4615,-4.4615,0.0,-4.4096,-4.3284,-4.2252,-4.183,-4.1035,0.0,0.0,0.0,0.0,0.0,-4.0096,-4.0096,0.0,-2.5615,-2.5141,-2.4686,-2.4984,-2.4945,-2.3884,-2.4966,-2.5505,-2.4444,-2.543,-2.5934,-2.5082,-2.4479,-2.3915,-2.3374,-2.2937,-2.2605,-2.2398,-2.2843,-2.3047,-2.2906,-2.3047,-2.2536,-2.1337,-2.026,-1.9047,-1.7692,-1.7692,-1.7692,-1.7738,-2.0034,-2.1159,-2.1337,-2.2536,-2.3305,-2.3721,-2.3769,-2.4258,-2.5047,-2.5096,-2.6656,-2.8894,-2.8021,-2.875,-3.0351,-3.0768,-3.1739,-3.3133,-3.5018,0.0,0.0,0.0,0.0,0.0,0.0,0.0,0.0,0.0,0.0,0.0,0.0,0.0,0.0,0.0,0.0,0.0,0.0,0.0,0.0,0.0,0.0,0.0,0.0,-4.6929,-4.7875,-4.7868,-4.7977,-4.7964,-4.7802,-4.8497,-4.9001,-4.9001,-4.9001,-4.9001,-4.9001,-4.9001,-4.9001,-4.9001,0.0,0.0,0.0,0.0,-4.8697,-4.8024,-4.7208,-4.6464,-4.5821,-4.4976,-4.4615,-4.4615,-4.4615,-4.4615,-4.4615,-4.4615,-4.3735,-4.2286,-4.2286,-4.1424,-4.0096,-4.0096,-4.0096,-4.0096,-4.0096,-4.0096,0.0,0.0,-2.5924,-2.5849,-2.5915,-2.5575,-2.5426,-2.5785,-2.5868,-2.5682,-2.5157,-2.4836,-2.4441,-2.3899,-2.3697,-2.3255,-2.2277,-2.3227,-2.3215,-2.1609,-2.2541,-2.2677,-2.1712,-2.2589,-2.2536,-2.1337,-2.1069,-1.9898,-1.7692,-1.7692,-1.7692,-1.7731,-1.9177,-2.035,-2.1337,-2.2536,-2.314,-2.3247,-2.3643,-2.4082,-2.457,-2.4969,-2.5609,-2.6494,-2.7285,-2.8462,-2.9692,-3.0265,-3.1601,-3.3148,-3.3953,-3.4737,-3.5567,-3.6459,-3.6972,0.0,0.0,0.0,0.0,0.0,0.0,0.0,0.0,0.0,0.0,0.0,0.0,0.0,0.0,0.0,0.0,0.0,0.0,0.0,-4.5322,-4.6823,-4.7844,-4.7684,-4.8295,-4.8771,-4.8733,-4.8892,-4.9001,-4.9001,-4.9001,-4.9001,-4.9001,-4.9001,-4.9001,-4.9001,-4.9001,-4.9001,-4.9001,-4.9001,-4.8934,-4.8798,-4.7462,-4.6718,-4.6566,0.0,0.0,-4.4615,-4.4615,-4.4615,-4.4615,-4.4615,-4.3735,-4.2286,-4.2286,-4.1424,-4.0096,-4.0096,-4.0096,-4.0096,-4.0096,-4.0096,-4.0096,-2.754,-2.7504,-2.7457,-2.7277,-2.7253,-2.717,-2.6895,-2.7266,-2.7168,-2.6082,-2.6092,-2.5672,-2.4303,-2.4328,-2.3985,-2.2801,-2.333,-2.3307,-2.2259,-2.2775,-2.2818,-2.2217,-2.3304,-2.3391,-2.2217,-2.2161,-2.1257,-1.9497,-1.891,-1.8596,-1.8642,-1.9852,-2.0711,-2.1337,-2.2536,-2.3091,-2.312,-2.3603,-2.4033,-2.4453,-2.4893,-2.5704,-2.6668,-2.6668,-2.7804,-2.9419,-2.9804,-3.1285,-3.3232,-3.4005,-3.458,-3.5192,-3.6415,-3.6939,-3.709,0.0,0.0,0.0,0.0,0.0,0.0,0.0,0.0,0.0,0.0,0.0,0.0,0.0,0.0,-4.1536,-4.3388,0.0,-4.6189,-4.7341,-4.8687,-4.9386,-4.8905,-4.9257,-4.9234,-4.8403,-4.8719,-4.9001,-4.9001,-4.9001,-4.9001,-4.9001,-4.8576,-4.8289,-4.8289,-4.7836,-4.7589,-4.7589,-4.7589,-4.767,-4.7771,-4.6669,-4.6133,-4.6244,-4.5139,-4.4615,-4.4615,-4.4615,-4.4615,-4.4615,-4.4615,-4.3735,-4.2236,-4.1491,-4.0773,-4.0096,-4.0096,-4.0096,-4.0096,-4.0096,-4.0096,-4.0096,-2.9061,-2.9331,-2.9254,-2.8674,-2.8927,-2.8951,-2.8205,-2.8838,-2.8887,-2.7412,-2.7948,-2.7641,-2.5475,-2.536,-2.494,-2.3571,-2.3364,-2.3145,-2.2751,-2.296,-2.3081,-2.3062,-2.42,-2.4457,-2.3767,-2.372,-2.2998,-2.163,-2.0639,-2.0062,-1.9852,-2.0845,-2.1426,-2.1712,-2.2763,-2.3218,-2.3247,-2.373,-2.416,-2.458,-2.4969,-2.6111,-2.7484,-2.6338,-2.7495,-2.9772,-2.9772,-3.1119,-3.3089,-3.4082,-3.4432,-3.478,-3.622,-3.6837,-3.7069,-3.7486,-3.7461,0.0,0.0,0.0,0.0,0.0,0.0,0.0,0.0,-3.7859,-3.9049,-4.1192,-4.1912,-4.2868,-4.5178,-4.6492,-4.7665,-4.9194,-5.0275,-5.0754,-5.0357,-5.0185,-4.9545,-4.8018,-4.8534,-4.9001,-4.9001,-4.9001,-4.8923,-4.875,-4.8015,-4.7523,-4.734,-4.6592,-4.6208,-4.6208,-4.6208,-4.6235,-4.6258,-4.5666,-4.5412,-4.5421,-4.4868,-4.4615,-4.4615,-4.4615,-4.4615,-4.4581,-4.4293,-4.3464,-4.2185,-4.0722,-4.0096,-4.0096,-4.0096,-4.0096,-4.0096,-4.0096,-4.0096,-4.0096,0.0,-3.0497,-3.0714,-2.9998,-2.9509,-2.9576,-3.0756,-3.0458,-2.9964,-2.959,-2.9465,-2.8773,-2.7013,-2.6202,-2.5087,-2.3466,-2.3299,-2.2794,-2.1594,-2.2492,-2.3052,-2.3008,-2.4159,-2.521,-2.6099,-2.6088,-2.503,-2.2814,-2.2684,-2.2089,-2.1114,-2.1248,-2.1845,-2.2925,-2.35,-2.3721,-2.375,-2.417,-2.46,-2.5047,-2.5096,-2.6111,-2.7547,-2.6848,-2.8424,-3.1,-3.1,-3.1549,-3.2378,-3.3063,-3.3563,-3.4179,-3.5753,-3.6908,-3.7786,-3.8169,-3.7691,-3.6881,-3.618,-3.5305,-3.4589,-3.4647,-3.5359,-3.6533,0.0,-3.994,-4.1412,-4.2286,-4.3735,-4.4956,-4.5289,-4.611,-4.7152,-4.8269,-4.9241,-5.014,-5.0953,-5.0507,-4.9698,-4.8712,-4.8835,-4.9001,-4.9001,-4.9001,-4.8639,-4.7836,-4.7655,-4.7239,-4.6384,-4.6244,-4.6208,-4.6208,-4.6208,-4.5907,-4.5355,-4.5391,-4.51,-4.4561,-4.4577,-4.4615,-4.4615,-4.4615,-4.4615,-4.453,-4.3159,-4.2455,-4.2185,-4.0722,-4.0096,-4.0096,-4.0096,-4.0096,-4.0096,-4.0096,-4.0096,-4.0096,0.0,-3.0821,-3.1106,-3.0784,-3.0524,-3.0721,-3.1763,-3.1684,-3.171,-3.2385,-3.2149,-3.1586,-3.0688,-2.9201,-2.761,-2.5988,-2.5879,-2.5414,-2.4375,-2.4787,-2.5293,-2.5829,-2.6915,-2.773,-2.8107,-2.877,-2.8292,-2.6662,-2.6103,-2.5611,-2.5112,-2.4566,-2.4774,-2.5562,-2.5753,-2.5604,-2.5272,-2.5686,-2.5585,-2.5183,-2.6178,-2.74,-2.8672,-2.8802,-3.0077,-3.1669,-3.0642,-3.0925,0.0,-3.2664,-3.3048,-3.3528,-3.5436,-3.6336,-3.691,-3.805,-3.813,-3.7701,-3.7192,-3.6303,-3.545,-3.5209,-3.5716,-3.6555,-3.7715,-3.8823,-4.0251,-4.2668,-4.376,-4.474,-4.6194,-4.7246,-4.8093,-4.8514,-4.995,-5.0841,-5.0391,-5.0589,-5.0295,-4.9002,-4.8457,-4.7982,-4.7406,-4.7373,-4.7205,-4.6815,-4.626,-4.5814,-4.5395,-4.484,-4.4502,-4.4502,-4.4502,-4.4425,-4.4322,-4.4015,-4.3741,-4.3589,-4.3235,-4.335,-4.3844,-4.3844,-4.3858,-4.3842,-4.276,-4.2049,-4.1576,-4.0536,-4.0096,-4.0096,-4.0096,-4.0096,-4.0096,-4.0096,-4.0096,-4.0096,0.0,-3.1013,-3.1332,-3.123,-3.119,-3.1444,-3.2192,-3.2635,-3.3302,-3.4427,-3.4588,-3.4282,-3.3443,-3.1579,-2.9837,-2.8501,-2.8229,-2.7854,-2.7318,-2.7256,-2.7714,-2.8719,-2.9682,-3.0308,-3.0527,-3.1564,-3.1523,-3.0396,-2.9694,-2.918,-2.8868,-2.8153,-2.8046,-2.8396,-2.8535,-2.8282,-2.7854,-2.8266,-2.7785,-2.6847,-2.8068,-2.9098,-2.9931,-3.0126,-3.0931,-3.1801,-3.0535,-3.0564,-3.1347,-3.2436,-3.2725,-3.2956,-3.5218,-3.5921,-3.6216,-3.7901,-3.8527,-3.8552,-3.7976,-3.7414,-3.687,-3.6333,-3.6413,-3.6808,-3.7374,-3.7981,-3.9208,-4.2201,-4.3257,-4.4312,-4.6586,-4.7604,-4.8271,-4.8712,-5.0055,-5.0781,-4.9991,-5.02,-4.9909,-4.8564,-4.7484,-4.647,-4.5493,-4.5905,-4.6103,-4.5834,-4.519,-4.4662,-4.4396,-4.3708,-4.329,-4.329,-4.329,-4.3298,-4.3324,-4.2926,-4.2677,-4.2639,-4.2204,-4.2316,-4.2939,-4.2939,-4.2864,-4.2705,-4.1955,-4.1375,-4.0831,-4.0085,-3.9901,-4.0096,-4.0096,-4.0096,-4.0096,-4.0096,-4.0096,-4.0096,0.0,0.0,-3.166,-3.1271,-3.119,-3.1444,-3.2192,-3.3348,-3.4424,-3.5169,-3.6315,-3.6333,-3.4286,-3.2402,-3.0937,-3.0193,-2.9541,-2.9155,-2.9201,-2.9226,-2.9732,-3.0871,-3.1617,-3.2556,-3.3661,-3.4383,-3.4254,-3.3193,-3.301,-3.2404,-3.1402,-3.124,-3.1162,-3.12,-3.1597,-3.1754,-3.1763,-3.2231,-3.1792,-3.0853,-3.0864,-3.1003,-3.1015,-3.0027,-3.0372,-3.1411,-3.1358,0.0,-3.0867,-3.2306,-3.2448,-3.2499,-3.5077,-3.5921,-3.6216,-3.7901,-3.8856,-3.9147,-3.8107,-3.8265,-3.8625,-3.813,-3.7639,-3.7421,-3.7962,-3.8576,-3.94,-4.0635,-4.2346,-4.4182,-4.599,-4.6352,-4.6897,-4.8528,-4.8866,-4.924,-5.0233,-4.924,-4.801,-4.7099,-4.5739,-4.4472,-4.3472,-4.5106,-4.5834,-4.4909,-4.4812,-4.4373,-4.3409,-4.3329,-4.329,-4.329,-4.329,-4.3015,-4.2449,-4.2613,-4.239,-4.1728,-4.1925,-4.2029,-4.2029,-4.2029,-4.1677,-4.1034,-4.0281,-4.0021,-4.0062,-3.9275,-3.9411,-4.0096,-4.0096,-4.0096,-4.0096,-4.0096,-4.0096,-4.0096,0.0,0.0,0.0,-3.3124,-3.2909,-3.2747,-3.2983,-3.3694,-3.4676,-3.6043,-3.7524,0.0,0.0,0.0,0.0,0.0,-3.2731,-3.2494,-3.2316,-3.2727,-3.347,-3.4558,-3.4805,-3.5598,-3.6956,-3.6878,-3.6815,-3.6825,-3.6287,-3.5831,-3.5474,-3.5302,-3.5397,-3.5761,-3.5888,-3.5366,-3.4445,-3.4607,-3.4142,-3.3326,-3.3254,-3.3811,-3.4461,-3.2966,-3.2399,-3.2317,0.0,-3.0532,-3.0353,-3.207,-3.2568,-3.2772,-3.4956,-3.5617,-3.5891,-3.7316,-3.8542,-3.9466,-3.9682,-3.9993,-4.0197,-3.9994,-3.9967,-3.9644,-3.8376,-3.8886,-3.9844,-4.0628,-4.1949,-4.3513,-4.529,-4.6022,-4.6466,-4.7068,-4.807,-4.8752,-4.863,-4.8821,-4.8504,-4.7246,-4.6091,-4.5087,-4.4366,-4.4266,0.0,-4.3849,-4.381,-4.3669,-4.3329,-4.329,-4.329,-4.329,-4.329,-4.3015,-4.241,-4.2025,-4.1494,-4.0828,-4.1031,-4.1147,-4.1147,-4.1739,-4.1357,-4.0268,-4.0012,-3.9409,-3.8574,-3.8816,-3.9059,-3.9342,-3.9901,-3.9782,-3.9368,-3.9901,-3.9756,-3.9368,0.0,0.0,0.0,0.0,0.0,0.0,0.0,0.0,0.0,0.0,0.0,0.0,0.0,0.0,0.0,0.0,0.0,-3.5085,-3.485,-3.5523,-3.6214,-3.6883,-3.7364,-3.8054,-3.9006,-3.9168,-3.9385,-3.9739,-3.9227,-3.9097,-3.9397,-3.924,-3.9361,-3.9757,-3.9757,-3.907,-3.796,-3.796,-3.7248,-3.6102,-3.5833,-3.5839,-3.5816,-3.4086,-3.3238,0.0,-3.1182,-3.0382,-3.0341,-3.2042,-3.2593,-3.2967,-3.5167,-3.6163,-3.6701,-3.7524,-3.8556,-3.9574,-4.0466,-4.0964,-4.1295,-4.157,-4.1383,-4.0813,-3.941,-3.9124,-3.9432,-4.0236,-4.117,-4.2439,-4.4247,-4.514,-4.5726,-4.6204,-4.7198,-4.7823,-4.7583,-4.7933,-4.7887,-4.6974,-4.612,-4.5421,-4.5008,-4.4191,-4.3544,-4.3305,-4.3514,-4.3544,-4.3305,-4.329,-4.329,-4.329,-4.329,-4.3015,-4.241,-4.1752,-4.0935,-4.0038,-4.0152,-4.0255,-4.0239,-4.0808,-4.0311,-3.9014,-3.9014,-3.8387,-3.7411,-3.7873,-3.8258,-3.8553,-3.9076,-3.8951,-3.8553,-3.9076,-3.8968,-3.8608,0.0,0.0,0.0,0.0,0.0,0.0,0.0,0.0,0.0,0.0,0.0,0.0,0.0,0.0,0.0,0.0,0.0,0.0,-3.6834,-3.7507,-3.7937,-3.7937,-3.9166,-3.9867,-3.99,-4.1153,-4.1832,-4.1853,-4.1731,-4.2068,-4.2784,-4.2773,-4.2825,-4.2977,-4.2917,-4.2566,-4.1997,-4.1981,-4.0908,-3.9178,-3.8487,-3.7172,-3.5432,-3.3708,-3.3013,-3.2725,-3.1285,-3.071,-3.0822,-3.2144,-3.2676,-3.3241,-3.5775,-3.7419,-3.8407,-3.8437,-3.8901,-3.961,-4.0535,-4.1302,-4.2018,-4.2855,-4.2085,-4.1085,-4.0927,-3.9438,-3.8379,-3.9382,-4.0164,-4.1218,-4.2952,-4.3883,-4.4781,-4.6025,-4.6337,-4.6591,-4.7219,-4.677,-4.6324,-4.6279,-4.5738,-4.5334,-4.5289,-4.4721,-4.4092,-4.3394,0.0,-4.3947,-4.3319,-4.329,-4.329,-4.3245,-4.3245,-4.2955,-4.2306,-4.1647,-4.0651,-3.9388,-3.9388,-3.9388,-3.9388,-3.9343,-3.8646,-3.7404,-3.7375,-3.7061,-3.6554,-3.6569,-3.7054,-3.7719,-3.7777,-3.7777,-3.7719,-3.7777,-3.7777,-3.7835,0.0,0.0,0.0,0.0,0.0,0.0,0.0,0.0,0.0,0.0,0.0,0.0,0.0,0.0,0.0,0.0,0.0,0.0,-3.8395,-3.9105,-3.9506,-3.9506,-4.0217,-4.0828,-4.1283,-4.1625,-4.2021,-4.248,-4.254,-4.2655,-4.2889,-4.3419,-4.3683,-4.3704,-4.328,-4.2678,-4.1904,-4.146,-4.1176,-4.0925,-3.9832,-3.9612,-3.9733,-3.7528,-3.5877,-3.4592,-3.3423,-3.223,-3.1299,-3.1948,-3.3441,-3.5375,-3.7327,-3.8123,-3.8497,-3.9005,-3.929,-3.9737,-4.1262,-4.2596,-4.3626,-4.3879,-4.4018,-4.3524,-4.1385,-4.0681,-4.0334,-3.9715,-4.0846,-4.206,-4.2527,-4.3943,-4.5155,-4.5499,-4.6396,-4.7115,-4.7279,-4.716,-4.6875,-4.6339,-4.6172,-4.5858,-4.5349,-4.5155,-4.4766,0.0,-4.3723,-4.3469,-4.3305,-4.329,-4.3105,-4.2626,-4.265,-4.2096,-4.0905,-4.0247,-3.9753,-3.9388,-3.9388,-3.9388,-3.9394,-3.8886,-3.8197,-3.7375,-3.6926,-3.637,-3.5799,-3.6353,-3.6722,-3.6964,-3.7573,-3.7427,-3.698,-3.7573,-3.7427,-3.6934,0.0,0.0,0.0,0.0,0.0,0.0,0.0,0.0,0.0,0.0,0.0,0.0,0.0,0.0,0.0,0.0,0.0,0.0,0.0,-3.9706,-4.0204,-4.0424,-4.099,-4.1578,-4.2183,-4.2765,-4.3076,-4.305,-4.3629,-4.39,-4.3937,-4.4508,-4.4736,-4.4653,-4.4339,-4.3559,-4.2449,-4.2108,-4.1723,0.0,0.0,-4.0086,-4.0084,-3.8275,-3.6903,-3.5825,-3.4338,-3.2937,-3.189,-3.2868,-3.475,-3.6929,-3.8157,-3.9076,-3.9783,-4.0172,-4.0277,-4.0577,-4.1935,-4.32,-4.4281,-4.4685,-4.4803,-4.4345,-4.2319,-4.1444,-4.0809,-3.9715,-4.0817,-4.1886,-4.1587,-4.3344,-4.487,-4.487,-4.5992,-4.698,-4.7264,-4.7309,-4.7174,-4.68,-4.6756,-4.6606,-4.6217,-4.5648,-4.514,-4.4766,-4.4137,-4.3604,-4.3305,-4.329,-4.303,-4.2425,-4.2396,-4.1767,-4.0412,-3.9753,-3.9388,-3.9388,-3.9388,-3.9388,-3.9394,-3.8706,-3.8033,-3.7375,0.0,-3.6118,-3.5537,-3.5943,-3.6117,-3.618,-3.6615,-3.6508,-3.6165,-3.6631,-3.6508,-3.6117,0.0,0.0,0.0,0.0,0.0,0.0,0.0,0.0,0.0,0.0,0.0,0.0,0.0,0.0,0.0,0.0,0.0,0.0,0.0,0.0,-4.04,-4.088,-4.1556,-4.2162,-4.2692,-4.3908,-4.4195,-4.3515,-4.4538,-4.5044,-4.5059,-4.5444,-4.5511,-4.5296,-4.5223,-4.4376,-4.3003,-4.293,-4.2116,-4.0838,-4.031,-3.9625,-3.8806,0.0,0.0,-3.6862,-3.484,-3.3452,-3.2768,-3.4295,-3.6005,-3.7691,-3.8624,-3.9954,-4.1232,-4.1436,-4.1444,-4.1596,-4.2458,-4.3469,-4.4423,-4.5193,-4.497,-4.4304,-4.3299,-4.1852,-4.0466,-3.9574,-4.0397,-4.107,-4.0502,-4.2476,-4.4212,-4.4302,-4.5454,-4.6503,-4.7219,-4.7309,-4.7309,-4.7309,-4.7234,-4.7174,-4.7174,-4.5948,-4.517,-4.517,-4.4556,-4.3888,-4.3319,-4.32,-4.2865,-4.2171,-4.2051,-4.1452,-4.0277,-3.9709,-3.9388,-3.9388,-3.9388,-3.9388,-3.9358,-3.8616,-3.7943,-3.7375,0.0,0.0,-3.5504,-3.5504,-3.5504,-3.5504,-3.5504,-3.5504,-3.5504,-3.5504,-3.5504,-3.5504,0.0,0.0,0.0,0.0,0.0,0.0,0.0,0.0,0.0,0.0,-4.2084,-4.2194,0.0,0.0,0.0,0.0,0.0,0.0,0.0,0.0,0.0,-4.0903,-4.1958,-4.2596,-4.2711,-4.336,-4.3626,-4.3515,-4.3982,-4.4206,-4.4221,-4.4626,-4.4613,-4.4249,-4.3798,-4.3026,-4.2005,-4.151,-4.0906,-4.0246,-4.0154,-4.0286,-4.0485,-3.9639,0.0,0.0,-3.6511,-3.5117,-3.4363,-3.5094,-3.5586,-3.6413,-3.9341,-4.0126,-4.0226,-4.1766,-4.1841,-4.1596,-4.2458,-4.3835,-4.5085,-4.534,-4.5364,-4.4926,-4.3444,-4.1852,-4.0466,-3.9574,-4.0038,-4.0531,-4.0427,-4.2064,-4.3633,-4.4227,-4.5454,-4.6503,-4.7219,-4.7309,-4.7309,-4.7309,-4.683,-4.6444,-4.6444,-4.5274,-4.4481,-4.4481,-4.3828,-4.3409,-4.3305,-4.2821,-4.2021,-4.0786,-4.0217,-3.9828,-3.9589,-3.9448,-3.9388,-3.9388,-3.9388,-3.9388,-3.9379,-3.8138,-3.7524,-3.7345,-3.6178,0.0,-3.5504,-3.5504,-3.5504,-3.5504,-3.5504,-3.5504,-3.5504,-3.5504,-3.5504,-3.5504,0.0,0.0,0.0,0.0,0.0,0.0,0.0,-3.9881,-4.0659,-4.2106,-4.2653,-4.291,-4.291,-4.2795,-4.246,0.0,0.0,0.0,0.0,0.0,0.0,0.0,-4.1768,-4.2382,-4.2693,-4.3634,-4.392,-4.3515,0.0,-4.4721,-4.4318,-4.4865,-4.4842,-4.4304,-4.4042,-4.3309,-4.2223,-4.1621,-4.1036,-4.0531,-4.0629,-4.0806,-4.1001,0.0,0.0,0.0,-3.7539,-3.6344,-3.5561,-3.6129,-3.6345,-3.6755,-3.9033,-3.9987,-4.0575,-4.2367,-4.2641,-4.2464,-4.2895,-4.3963,-4.512,-4.5672,-4.5636,-4.5126,-4.3943,-4.2487,-4.0995,-3.9681,-3.9948,-4.0292,-3.9948,-4.1735,-4.329,-4.3299,-4.4706,-4.6022,-4.6696,-4.6486,-4.6396,-4.6756,-4.6202,-4.5783,-4.5783,-4.4885,-4.4317,-4.4317,-4.3663,-4.329,-4.329,-4.2387,-4.1399,-4.0427,-3.9768,-3.9388,-3.9388,-3.9388,-3.9388,-3.9388,-3.9388,-3.9388,-3.9328,-3.8018,-3.7404,-3.7345,-3.6058,0.0,-3.5504,-3.5504,-3.5504,-3.5504,-3.5504,-3.5504,-3.5504,-3.5504,-3.5504,-3.5504,0.0,0.0,0.0,0.0,0.0,0.0,0.0,-4.0689,-4.1444,-4.2433,-4.3112,-4.3515,-4.3515,-4.3105,-4.2578,0.0,0.0,0.0,0.0,0.0,0.0,0.0,0.0,-4.208,-4.2692,0.0,0.0,-4.3754,-4.5125,0.0,0.0,0.0,0.0,0.0,-4.4593,-4.3899,-4.2655,-4.2059,-4.1446,0.0,0.0,-4.1221,0.0,0.0,0.0,0.0,0.0,-3.7458,-3.661,-3.7071,-3.7118,-3.7137,-3.8519,-3.971,-4.0876,-4.2595,-4.3135,-4.3125,-4.3245,-4.4028,-4.4983,-4.5706,-4.5509,-4.4903,-4.4093,-4.2774,-4.128,-3.9702,-3.9828,-4.0023,-3.9514,-4.1182,-4.2626,-4.244,-4.3778,-4.5214,-4.6187,-4.5723,-4.5544,-4.6204,-4.5589,-4.5095,-4.5095,-4.4481,-4.4107,-4.4107,-4.3589,-4.317,-4.2886,-4.1938,-4.101,-4.0217,-3.9694,-3.9388,-3.9388,-3.9388,-3.9388,-3.9388,-3.9275,-3.92,-3.9155,-3.7823,-3.721,-3.715,-3.6013,0.0,0.0,-3.5504,-3.5504,-3.5504,-3.5504,-3.5504,-3.5504,-3.5504,-3.5504,-3.5504,0.0,0.0,0.0,0.0,0.0,0.0,0.0,-4.104,-4.1662,-4.3185,-4.346,-4.3515,-4.3515,-4.3444,-4.2995,0.0,0.0,0.0,0.0,0.0,0.0,0.0,0.0,0.0,0.0,0.0,0.0,-4.4599,-4.5402,0.0,0.0,0.0,0.0,0.0,0.0,-4.3899,-4.2655,-4.2059,0.0,0.0,0.0,0.0,0.0,0.0,0.0,0.0,0.0,-3.8546,-3.7677,-3.7696,-3.7106,-3.6563,-3.8264,-3.9208,-4.009,-4.195,-4.2485,-4.262,-4.3125,-4.4028,-4.4812,-4.4909,-4.4571,-4.4008,-4.3146,-4.184,-4.0569,-3.961,-3.9433,-3.9448,-3.9388,-4.0098,-4.104,-4.2216,-4.3015,-4.4127,-4.601,-4.5723,-4.5544,-4.6204,-4.5185,-4.4407,-4.4407,-4.3768,-4.3379,-4.3379,-4.3319,-4.2821,-4.1624,-4.1444,-4.0801,-3.9508,-3.9418,-3.9388,-3.9388,-3.9388,-3.9388,-3.9373,-3.8781,-3.8482,-3.8437,-3.7165,-3.6567,-3.6537,-3.5818,0.0,0.0,-3.5504,-3.5504,-3.5504,-3.5504,-3.5504,-3.5504,-3.5504,-3.5504,-3.5504,0.0,0.0,0.0,0.0,0.0,0.0,-4.0838,-4.1095,-4.168,-4.3277,-4.3515,-4.3515,-4.3515,-4.3214,-4.2827,-4.2382,0.0,0.0,0.0,0.0,0.0,0.0,0.0,0.0,0.0,0.0,-4.4084,-4.5424,-4.6169,0.0,0.0,0.0,0.0,0.0,0.0,-4.4635,-4.3419,-4.2291,0.0,0.0,0.0,0.0,0.0,0.0,0.0,0.0,0.0,0.0,-3.8745,-3.8745,-3.8494,-3.8248,-3.8951,-3.9305,-3.9793,-4.133,-4.2096,-4.2455,-4.2671,-4.3328,-4.4028,-4.4662,-4.4013,-4.3161,-4.2878,-4.1701,-4.0466,-3.9574,-3.9388,-3.9388,-3.9388,-3.9963,-4.0711,-4.1662,-4.2327,-4.3299,-4.49,-4.4541,-4.4321,-4.5035,-4.4246,-4.3678,-4.3678,-4.3454,-4.329,-4.329,-4.297,-4.2342,-4.1467,-4.1422,-4.0786,-3.9454,-3.9388,-3.9388,-3.9388,-3.9005,-3.8796,-3.8796,-3.8123,-3.7808,-3.7764,-3.6896,-3.6492,-3.6447,-3.5789,0.0,0.0,-3.5504,-3.5504,-3.5504,-3.5504,-3.5504,-3.5504,-3.5504,-3.5504,-3.5504,0.0,0.0,0.0,0.0,0.0,-3.9533,-4.0893,-4.1297,-4.1956,-4.3331,-4.3515,-4.3515,-4.3515,-4.3014,-4.2802,-4.3017,-4.2121,0.0,0.0,0.0,0.0,0.0,0.0,0.0,0.0,0.0,-4.4628,-4.599,-4.6824,-4.7259,0.0,0.0,-4.7654,-4.6483,0.0,0.0,0.0,0.0,0.0,0.0,0.0,0.0,0.0,0.0,0.0,0.0,0.0,0.0,0.0,0.0,0.0,-3.9388,-3.9388,-3.9388,-3.9634,-4.0771,-4.1452,-4.1856,-4.2051,-4.2402,-4.2947,-4.3869,-4.3054,-4.2103,-4.2324,-4.1311,-4.015,-3.9517,-3.9388,-3.9388,-3.9388,-3.9798,-4.0322,-4.0995,-4.1677,-4.2575,-4.3853,-4.3589,-4.3544,-4.4242,-4.3693,-4.329,-4.329,-4.329,-4.329,-4.329,-4.2731,-4.2111,-4.1452,-4.119,-4.0576,-3.9454,-3.9388,-3.932,-3.9125,-3.8631,-3.8287,-3.8093,-3.7449,-3.7135,-3.712,-3.6492,-3.6193,-3.6178,0.0,0.0,0.0,-3.5504,-3.5504,-3.5504,-3.5504,-3.5504,-3.5504,-3.5504,-3.5504,-3.5504,0.0,0.0,0.0,0.0,0.0,0.0,-4.0967,-4.1791,-4.258,-4.3404,-4.3515,-4.3515,-4.3515,-4.3014,-4.2981,-4.3716,-4.2018,0.0,0.0,0.0,0.0,0.0,0.0,0.0,0.0,0.0,-4.4791,-4.6191,-4.7203,-4.7854,-4.8188,-4.8606,-4.8137,-4.6957,0.0,0.0,0.0,0.0,0.0,0.0,0.0,0.0,0.0,0.0,0.0,0.0,0.0,0.0,0.0,0.0,0.0,0.0,0.0,-3.9388,-3.9508,-4.0217,-4.0412,-4.0561,-4.1205,-4.1384,-4.1587,-4.2246,-4.1422,-4.0576,-4.1272,-4.0367,-3.9409,-3.9388,-3.9388,-3.9388,-3.9388,-3.9424,-3.9649,-4.0307,-4.0965,-4.1863,-4.321,-4.3359,-4.3544,-4.4242,-4.3693,-4.329,-4.329,-4.329,-4.329,-4.329,-4.2731,0.0,-4.1452,-4.0771,-4.0113,-3.9403,-3.9388,-3.9095,-3.8407,-3.8392,-3.8063,-3.7404,-3.6791,-3.6492,-3.6477,-3.5818,-3.5519,0.0,0.0,0.0,0.0,-3.5504,-3.5504,-3.5504,-3.5504,-3.5504,-3.5504,-3.5504,-3.5504,-3.5504,0.0,0.0,0.0,0.0,0.0,0.0,0.0,-4.2139,-4.2598,-4.3404,-4.3515,-4.3515,-4.3515,-4.3107,-4.3124,-4.3863,-4.2573,0.0,0.0,0.0,0.0,0.0,0.0,0.0,0.0,0.0,-4.5205,-4.7024,-4.7605,-4.831,-4.9107,-4.9493,-4.9174,-4.8207,-4.7721,-4.6588,0.0,0.0,0.0,0.0,0.0,0.0,0.0,0.0,0.0,0.0,0.0,0.0,0.0,0.0,0.0,0.0,0.0,0.0,0.0,-3.9664,-4.0053,-4.0442,-4.0651,-4.104,-4.1467,-4.1677,-4.104,-4.0457,-4.0666,-4.0038,-3.9388,-3.9388,-3.9388,-3.9388,-3.9388,-3.9388,-3.9783,-4.0891,-4.125,-4.1848,-4.3165,-4.3305,-4.3364,-4.3574,-4.3424,-4.329,-4.329,-4.329,-4.315,-4.2701,-4.2096,0.0,-4.0741,-3.9634,-3.8931,-3.8721,-3.8721,-3.8392,-3.7719,-3.73,-3.6985,-3.6776,-3.6133,-3.5818,-3.5804,-3.5609,0.0,0.0,0.0,0.0,0.0,-3.5504,-3.5504,-3.5504,-3.5504,-3.5504,-3.5504,-3.5504,-3.5504,-3.5504,0.0,0.0,0.0,0.0,0.0,0.0,0.0,-4.2561,-4.2928,-4.3441,-4.3515,-4.3515,-4.3515,-4.3147,-4.3196,-4.3928,-4.3124,0.0,0.0,0.0,0.0,0.0,0.0,0.0,0.0,-4.4543,-4.5705,-4.751,-4.7692,-4.844,-4.9734,-4.9824,-4.9502,-4.8804,-4.8447,-4.723,0.0,0.0,0.0,0.0,0.0,0.0,0.0,0.0,0.0,0.0,0.0,0.0,0.0,0.0,0.0,0.0,0.0,0.0,0.0,0.0,-3.9709,-4.0023,-4.0023,-4.0337,-4.0696,-4.095,-4.0516,-4.0098,-4.0337,-3.9888,-3.9388,-3.9388,-3.9388,-3.9388,-3.9388,-3.9388,-3.9694,-4.0502,-4.0685,-4.1163,-4.2399,-4.2629,-4.2805,-4.325,-4.329,-4.329,-4.329,-4.3105,-4.2791,-4.2425,-4.1519,0.0,-4.0427,-3.9125,-3.8272,-3.8018,-3.8018,-3.7704,-3.706,-3.6686,-3.6357,-3.6118,-3.5699,-3.5504,-3.5504,-3.5504,0.0,0.0,0.0,0.0,0.0,-3.5504,-3.5504,-3.5504,-3.5504,-3.5504,-3.5504,-3.5504,-3.5504,-3.5504,0.0,0.0,0.0,0.0,0.0,0.0,0.0,-4.302,-4.3515,-4.3515,-4.3515,-4.3515,-4.3515,-4.324,-4.3315,-4.3951,0.0,0.0,0.0,0.0,0.0,0.0,0.0,0.0,-4.346,-4.4816,-4.6236,-4.77,-4.751,-4.8342,-5.009,-4.9659,-4.9265,-4.8876,-4.8502,-4.7476,0.0,0.0,0.0,0.0,0.0,0.0,0.0,0.0,0.0,0.0,0.0,0.0,0.0,0.0,0.0,0.0,0.0,0.0,0.0,0.0,0.0,0.0,0.0,-3.9343,-3.9574,-4.0172,-3.9873,-3.9574,-4.0187,-3.9785,0.0,-3.9388,-3.9337,-3.9316,-3.9448,-3.9418,-3.9454,-3.9544,-3.956,-4.006,-4.1277,-4.1634,-4.2111,-4.3155,-4.329,-4.3275,-4.323,-4.2716,-4.2366,-4.2261,0.0,0.0,-4.0262,-3.902,-3.8018,-3.736,-3.73,-3.7,-3.6417,-3.6417,-3.6118,-3.5504,-3.5504,-3.5504,-3.5504,-3.5504,0.0,0.0,0.0,0.0,0.0,-3.5504,-3.5504,-3.5504,-3.5504,-3.5504,-3.5504,-3.5504,-3.5504,-3.5504,0.0,0.0,0.0,0.0,0.0,0.0,0.0,0.0,0.0,0.0,-4.3515,-4.3515,-4.3515,-4.4116,-4.4371,0.0,0.0,0.0,0.0,0.0,0.0,0.0,0.0,0.0,-4.4282,-4.5179,-4.633,-4.77,-4.7601,-4.8435,-5.0073,-4.937,-4.8978,-4.8913,-4.8789,-4.8123,0.0,0.0,0.0,0.0,0.0,0.0,0.0,0.0,0.0,0.0,-3.8998,-3.8226,0.0,0.0,0.0,0.0,0.0,0.0,0.0,0.0,-3.8037,-3.7587,-3.8389,0.0,-3.9454,-3.9619,-3.9529,-3.9454,0.0,-3.89,-3.842,-3.9228,-3.8745,-3.8581,-3.9921,-3.9768,-3.9753,-4.0756,-4.0183,-4.0205,-4.1927,-4.2609,-4.2981,-4.325,-4.329,-4.3135,-4.2641,-4.2485,-4.1976,-4.0935,0.0,-3.9948,-3.8916,-3.8078,-3.7345,-3.6716,-3.6207,-3.5893,-3.5744,-3.5744,-3.5654,-3.5504,-3.5504,-3.5504,-3.5504,-3.5504,0.0,0.0,0.0,0.0,-3.5504,-3.5504,-3.5504,-3.5504,-3.5504,-3.5504,-3.5504,-3.5504,-3.5504,-3.5504,0.0,0.0,0.0,0.0,0.0,0.0,0.0,0.0,0.0,0.0,0.0,0.0,0.0,0.0,0.0,0.0,0.0,0.0,0.0,0.0,0.0,0.0,0.0,-4.3592,-4.3989,-4.5125,-4.6381,-4.774,-4.8017,-4.8775,-4.9924,-4.96,-4.9168,-4.8621,-4.8251,-4.7828,0.0,0.0,0.0,0.0,0.0,0.0,0.0,0.0,0.0,0.0,-3.8029,-3.7416,0.0,-3.6985,-3.7404,-3.7943,0.0,0.0,0.0,0.0,-3.6577,-3.5941,-3.6505,-3.8009,-3.9448,-3.9798,-3.9873,-3.9873,-3.9873,-3.8803,-3.7956,-3.8546,-3.7814,-3.7352,-3.8299,-3.8158,-3.8449,-3.9941,-3.9022,-3.8824,-4.0927,-4.2423,-4.329,-4.329,-4.3075,-4.2746,0.0,-4.1856,-4.1175,0.0,0.0,-3.9499,-3.8452,-3.7764,-3.712,-3.6507,-3.5848,-3.5504,-3.5504,-3.5504,-3.5504,-3.5504,-3.5504,-3.5504,-3.5504,-3.5504,-3.5504,0.0,0.0,0.0,-3.5504,-3.5504,-3.5504,-3.5504,-3.5504,-3.5504,-3.5504,-3.5504,-3.5504,-3.5504,0.0,0.0,0.0,0.0,0.0,0.0,0.0,0.0,0.0,0.0,0.0,0.0,0.0,0.0,0.0,0.0,0.0,0.0,0.0,0.0,0.0,0.0,0.0,-4.3308,-4.3092,-4.4666,-4.6204,-4.7603,-4.8188,-4.8905,-4.969,-4.9688,-4.9196,-4.8269,-4.759,-4.7376,0.0,0.0,0.0,0.0,0.0,0.0,0.0,0.0,0.0,0.0,0.0,0.0,0.0,-3.6342,-3.6746,-3.727,-3.727,0.0,0.0,0.0,0.0,0.0,-3.4491,-3.6702,-3.9084,-3.9706,-4.0122,-4.033,-4.0062,-3.8666,-3.7448,-3.7534,-3.6626,-3.5917,-3.6269,-3.635,-3.6874,-3.8457,-3.7593,-3.7361,-3.9341,-4.1529,-4.2887,-4.2887,-4.2518,0.0,-4.2111,-4.1055,-4.0367,0.0,0.0,-3.896,-3.8272,-3.7629,-3.6985,-3.6357,-3.5804,-3.5504,-3.5504,-3.5504,-3.5504,-3.5504,-3.5504,-3.5504,-3.5504,-3.5504,-3.5504,0.0,0.0,0.0,-3.5504,-3.5504,-3.5504,-3.5504,-3.5504,-3.5504,-3.5504,-3.5504,-3.5504,-3.5504,0.0,0.0,0.0,0.0,0.0,0.0,0.0,0.0,0.0,0.0,0.0,0.0,0.0,0.0,0.0,0.0,0.0,0.0,0.0,0.0,0.0,-4.23,-4.2933,-4.2963,-4.2221,-4.3766,-4.528,-4.672,-4.6874,-4.789,-4.9668,-4.8405,-4.7988,-4.8306,-4.8177,-4.812,-4.8114,0.0,0.0,0.0,0.0,0.0,0.0,0.0,0.0,0.0,0.0,0.0,0.0,-3.5654,-3.6088,-3.6626,-3.6626,0.0,0.0,0.0,0.0,0.0,-3.4039,-3.5516,-3.6817,-3.7393,-3.8981,-4.001,-3.8533,-3.694,-3.5903,-3.6337,-3.5246,-3.4741,-3.6685,-3.6999,-3.726,-3.8061,-3.8351,-3.8456,-3.8376,-3.9886,-4.0998,-4.0998,0.0,-4.1347,-4.0756,-4.0516,0.0,0.0,0.0,-3.8257,-3.7599,-3.6971,-3.6327,-3.5669,-3.5549,-3.5504,-3.5504,-3.5504,-3.5504,-3.5504,-3.5504,-3.5504,-3.5504,-3.5504,-3.5504,0.0,0.0,-3.5504,-3.5504,-3.5504,-3.5504,-3.5504,-3.5504,-3.5504,-3.5504,-3.5504,-3.5504,-3.5504,0.0,0.0,0.0,0.0,0.0,0.0,0.0,0.0,0.0,0.0,0.0,0.0,0.0,0.0,0.0,0.0,0.0,0.0,0.0,0.0,0.0,-4.259,-4.2549,-4.2189,-4.1313,-4.2864,-4.4256,-4.5364,-4.6158,-4.7465,-4.921,-4.8768,-4.8314,-4.7818,-4.8134,-4.8114,-4.7818,-4.7877,0.0,0.0,0.0,0.0,0.0,0.0,0.0,0.0,0.0,0.0,0.0,0.0,-3.4882,-3.5049,-3.4557,0.0,0.0,0.0,0.0,0.0,-3.1703,-3.3445,-3.4977,-3.4857,-3.6972,-3.8835,-3.7709,-3.6188,-3.5089,-3.5346,-3.4357,-3.3749,-3.48,-3.5197,-3.5667,-3.656,-3.8266,-3.9011,-3.7824,-3.9381,-4.0481,0.0,0.0,-4.0726,-4.0427,-4.0083,0.0,0.0,0.0,0.0,-3.6971,-3.6641,-3.6178,-3.5534,-3.5504,-3.5504,-3.5504,-3.5504,-3.5504,-3.5504,-3.5504,-3.5504,-3.5504,-3.5504,-3.5504,-3.5504,0.0,-3.5504,-3.5504,-3.5504,-3.5504,-3.5504,-3.5504,-3.5504,-3.5504,-3.5504,-3.5504,-3.5504,0.0,0.0,0.0,0.0,0.0,0.0,0.0,0.0,0.0,0.0,0.0,0.0,0.0,0.0,0.0,0.0,0.0,0.0,0.0,0.0,-4.4774,-4.3269,-4.2422,-4.1511,-4.0432,-4.1816,-4.2959,-4.3796,-4.511,-4.6638,-4.8285,-4.886,-4.8542,-4.7441,-4.7728,-4.7677,-4.7428,-4.7897,-4.7533,0.0,0.0,0.0,0.0,0.0,0.0,0.0,0.0,0.0,0.0,0.0,0.0,0.0,0.0,0.0,0.0,-3.1217,-3.052,-2.9817,-2.9942,-3.1625,-3.3262,-3.2738,-3.5144,-3.7469,-3.6934,-3.5507,-3.4345,-3.4463,-3.3658,-3.2918,-3.3056,-3.3533,-3.4223,-3.5144,-3.7224,-3.8232,-3.6865,-3.8488,-3.9534,-3.889,-3.9598,-4.0047,-3.981,0.0,0.0,0.0,0.0,0.0,-3.6537,-3.6342,-3.6028,-3.5519,-3.5504,-3.5504,-3.5504,-3.5504,-3.5504,-3.5504,-3.5504,-3.5504,-3.5504,-3.5504,-3.5504,-3.5504,-3.5504,-3.5359,-3.5133,-3.5133,-3.5034,-3.482,-3.482,-3.482,-3.482,-3.482,-3.4953,-3.5133,0.0,0.0,0.0,0.0,0.0,0.0,0.0,0.0,0.0,0.0,0.0,0.0,0.0,0.0,0.0,0.0,0.0,0.0,0.0,0.0,-4.4893,-4.4147,-4.2762,-4.1229,-3.9553,-4.0389,-4.1233,-4.1991,-4.3021,-4.4651,-4.6769,-4.7431,-4.7689,-4.7534,-4.6862,-4.6864,-4.7406,-4.7467,-4.7406,-4.7259,-4.6641,0.0,0.0,0.0,0.0,0.0,0.0,0.0,0.0,0.0,0.0,0.0,0.0,0.0,-3.1217,-3.1217,-3.052,-2.9905,-3.0419,-3.1065,-3.1599,-3.1521,-3.4046,-3.6356,-3.5738,-3.4336,-3.3302,-3.3855,-3.3036,-3.2441,-3.298,-3.3533,-3.4098,-3.4643,-3.4949,-3.5039,-3.4911,0.0,-3.6976,-3.5925,-3.7967,-3.9091,0.0,0.0,0.0,0.0,0.0,0.0,-3.6492,-3.5908,-3.5549,-3.5504,-3.5504,-3.5504,-3.5504,-3.5504,-3.5504,-3.5504,-3.5504,-3.5504,-3.5504,-3.5504,-3.5504,-3.5504,-3.5504,-3.4986,-3.4095,-3.4095,-3.3602,-3.282,-3.282,-3.282,-3.282,-3.282,-3.3345,-3.4095,0.0,0.0,0.0,0.0,0.0,0.0,0.0,0.0,0.0,0.0,0.0,0.0,0.0,0.0,0.0,0.0,0.0,0.0,0.0,-4.5611,-4.5292,-4.4121,-4.3172,-4.1905,-4.0224,-3.999,-4.0307,-4.1112,-4.3914,-4.5727,-4.6637,-4.8273,-4.8305,-4.6993,-4.7097,-4.6813,-4.6257,-4.7062,-4.715,-4.6756,-4.6501,0.0,0.0,0.0,0.0,0.0,0.0,0.0,0.0,0.0,-3.3602,-3.2961,-3.2033,-3.1082,-3.0317,-3.0317,-3.0075,-2.9842,-3.0043,-3.0733,-3.1311,-3.0984,-3.2342,-3.3829,-3.3977,-3.3533,-3.3199,-3.3784,-3.3558,-3.3332,-3.3558,-3.3759,-3.4085,-3.4625,-3.468,-3.46,-3.4261,-3.5296,-3.5837,-3.5075,-3.7021,-3.8074,0.0,0.0,0.0,0.0,0.0,0.0,-3.5893,-3.5639,-3.5504,-3.5504,-3.5504,-3.5504,-3.5504,-3.5504,-3.5504,-3.5504,-3.5504,-3.5504,-3.5504,-3.5504,-3.5166,-3.4576,-3.4576,-3.4027,-3.3136,-3.3136,-3.2925,-3.2593,-3.2593,-3.2593,-3.2593,-3.2593,-3.282,-3.3206,0.0,0.0,0.0,0.0,0.0,0.0,0.0,0.0,0.0,0.0,0.0,0.0,0.0,0.0,0.0,0.0,0.0,0.0,-4.4673,-4.5154,-4.5025,-4.4073,-4.3193,-4.2001,-4.0473,-3.9577,-3.951,-4.0274,-4.3747,-4.5727,-4.634,-4.7873,-4.7777,-4.6333,-4.6552,-4.6229,-4.5563,-4.6425,-4.6774,-4.6687,-4.6288,-4.5102,0.0,0.0,0.0,0.0,0.0,0.0,0.0,0.0,-3.3593,-3.2464,-3.1499,-3.0558,-2.9792,-2.9792,-2.9792,-2.9792,-2.9792,-3.0331,-3.0846,-3.0658,-3.1173,-3.1951,-3.2867,-3.293,-3.3006,-3.3746,-3.3759,-3.3633,-3.3633,-3.3633,-3.3759,-3.4135,-3.4198,-3.4073,-3.3696,-3.4408,-3.4697,-3.3986,-3.5601,0.0,0.0,0.0,0.0,0.0,0.0,0.0,0.0,-3.5504,-3.5504,-3.5504,-3.5504,-3.5504,-3.5504,-3.5504,-3.5504,-3.5504,-3.5504,-3.5504,-3.5504,-3.5166,-3.4658,-3.3993,-3.3705,-3.3031,-3.2177,-3.2177,-3.196,-3.1733,-3.1733,-3.1733,-3.1733,-3.1733,-3.1888,-3.2249,0.0,0.0,0.0,0.0,0.0,0.0,0.0,0.0,0.0,0.0,0.0,0.0,0.0,0.0,0.0,0.0,0.0,0.0,-4.4635,-4.4138,-4.3888,-4.4076,-4.2712,-4.1283,-3.9946,-3.9061,-3.8855,-3.9409,-4.1888,-4.3985,-4.5674,-4.5703,-4.5703,-4.5669,-4.4925,-4.4917,-4.5468,-4.5494,-4.6216,-4.7241,-4.5996,-4.4963,0.0,0.0,0.0,0.0,0.0,0.0,0.0,0.0,-3.4052,-3.2464,-3.1499,-3.0558,-2.9792,-2.9792,-2.9792,-2.9792,-2.9792,-2.9792,-2.993,-3.047,-3.062,-3.106,-3.2692,-3.2629,-3.2541,-3.3671,-3.3458,-3.3124,-3.3124,-3.3124,-3.3124,-3.3124,-3.3111,-3.3111,-3.3111,-3.3478,-3.3362,-3.2315,-3.362,0.0,0.0,0.0,0.0,0.0,0.0,0.0,0.0,-3.5504,-3.5504,-3.5504,-3.5504,-3.5504,-3.5504,-3.5504,-3.5504,-3.5504,-3.5504,-3.5504,-3.5472,-3.4461,-3.3993,-3.391,-3.2996,-3.2069,-3.118,-3.118,-3.062,-2.9792,-2.9792,-2.9792,-2.9792,-2.9792,-3.0381,-3.118,0.0,0.0,0.0,0.0,0.0,0.0,0.0,0.0,0.0,0.0,0.0,0.0,0.0,0.0,0.0,0.0,0.0,0.0,-4.417,-4.4358,-4.4075,-4.3302,-4.3372,-4.2542,-4.0622,-3.965,-3.9297,-3.9603,-4.1496,-4.3229,-4.4806,-4.5959,-4.5906,-4.4936,-4.4699,-4.4099,-4.3285,-4.3741,-4.4394,-4.5049,-4.4664,-4.4041,-4.3275,0.0,0.0,0.0,0.0,0.0,0.0,0.0,0.0,0.0,-3.2672,-3.1536,-3.0658,-2.9998,-2.9792,-2.9792,-2.9792,-3.008,-3.0319,-3.0093,-3.0896,-3.1763,-3.1863,-3.2378,-3.3031,-3.3746,-3.3458,-3.3124,-3.3124,-3.3124,-3.3124,-3.3124,-3.2729,-3.2466,-3.2466,-3.2253,-3.1968,-3.1678,-3.2725,0.0,0.0,0.0,0.0,0.0,0.0,0.0,0.0,-3.4428,-3.4758,-3.5472,-3.5504,-3.5504,-3.5504,-3.5504,-3.5504,-3.5504,-3.5504,-3.5504,-3.5472,-3.4461,-3.3636,-3.2961,-3.2033,-3.1082,-3.0216,-3.0216,-3.0037,-2.9792,-2.9792,-2.9792,-2.9792,-2.9792,-2.9972,-3.0317,0.0,0.0,0.0,0.0,0.0,0.0,0.0,0.0,0.0,0.0,-4.392,-4.436,0.0,0.0,0.0,0.0,0.0,0.0,0.0,-4.4267,-4.3835,-4.2526,-4.2921,-4.2221,-4.011,-3.9122,-3.8807,-3.9195,-4.1114,-4.2715,-4.3979,-4.5303,-4.5461,-4.4615,-4.4615,-4.3893,-4.277,-4.3168,-4.3502,-4.3763,-4.348,-4.3098,-4.2622,0.0,0.0,0.0,0.0,0.0,0.0,0.0,0.0,0.0,-3.3508,-3.2195,-3.0919,-2.9523,-2.9456,-2.9702,-2.9236,-2.9692,-3.0319,-3.0407,-3.116,-3.1913,-3.2039,-3.2634,-3.3212,-3.3508,-3.3119,-3.2729,-3.2729,-3.2554,-3.2403,-3.2403,-3.2114,-3.1888,-3.1888,-3.1424,-3.1085,-3.1085,0.0,0.0,0.0,0.0,0.0,0.0,0.0,0.0,0.0,-3.3449,-3.3891,-3.4872,-3.4905,-3.51,-3.5504,-3.5504,-3.5504,-3.5504,-3.51,-3.51,-3.5472,-3.4461,-3.3484,-3.2522,-3.1217,-3.0317,-2.9792,-2.9792,-2.9792,-2.9792,-2.9792,-2.9792,-2.9792,-2.9792,-2.9792,-2.9895,0.0,0.0,0.0,0.0,0.0,0.0,0.0,0.0,0.0,0.0,-4.3515,-4.3773,0.0,0.0,0.0,0.0,0.0,0.0,0.0,0.0,-4.3379,-4.1985,-4.1835,-4.0964,-3.9118,-3.8194,-3.7937,-3.8482,-4.072,-4.2219,-4.3117,-4.3963,-4.4345,-4.4293,-4.4293,-4.3842,-4.3088,-4.3088,-4.3099,-4.3034,-4.2415,-4.2133,-4.2029,-4.1401,0.0,0.0,0.0,0.0,0.0,0.0,0.0,0.0,-3.428,-3.2765,-3.1029,-2.8851,-2.8885,-2.9404,-2.8267,-2.8803,-2.9963,-3.0938,-3.1308,-3.1675,-3.2754,-3.2998,-3.2943,-3.2993,-3.2541,-3.2139,-3.2139,-3.1725,-3.1386,-3.1386,-3.1348,-3.1323,-3.1323,-3.0871,-3.0545,-3.0545,0.0,0.0,0.0,0.0,0.0,0.0,0.0,0.0,0.0,-3.2464,-3.2961,-3.3993,-3.3993,-3.4461,-3.5504,-3.5504,-3.5504,0.0,-3.4576,-3.4624,-3.5472,-3.4361,-3.3345,-3.2393,-3.057,-2.9792,-2.9792,-2.9792,-2.9792,-2.9792,-2.9792,-2.9792,-2.9792,-2.9792,-2.9792,-2.9792,0.0,0.0,0.0,0.0,0.0,0.0,0.0,0.0,0.0,0.0,0.0,0.0,0.0,0.0,0.0,0.0,0.0,0.0,0.0,0.0,-4.3677,-4.2941,-4.2246,-4.1692,-4.1325,-4.0431,-3.9714,-3.92,-3.9865,-4.0607,-4.1448,-4.2315,-4.2445,-4.1931,-4.1931,-4.1508,-4.0823,-4.0823,-4.1049,-4.1405,-4.1263,-4.1201,-4.1163,-4.1015,-4.061,0.0,0.0,0.0,0.0,0.0,0.0,0.0,-3.5591,-3.4128,-3.2709,-2.9998,-2.8827,-2.8227,-2.7128,-2.7947,-2.914,-2.9369,-3.0425,-3.1562,-3.224,-3.2064,-3.1876,-3.2315,-3.1951,-3.1574,-3.1574,-3.1474,-3.1386,-3.1386,-3.1047,-3.0783,-3.0783,-3.0319,-2.9967,-2.9967,0.0,0.0,0.0,0.0,0.0,0.0,0.0,0.0,-3.1462,-3.1499,-3.2285,-3.3959,-3.3993,-3.4461,-3.5504,-3.5504,-3.5504,0.0,-3.5279,-3.5279,-3.5439,-3.3685,-3.2393,-3.1426,-3.0279,-2.9792,-2.9792,-2.9792,-2.9792,-2.9792,-2.9792,-2.9792,-2.9792,-2.9792,-2.9792,-2.9792,0.0,0.0,0.0,0.0,0.0,0.0,0.0,0.0,0.0,0.0,0.0,0.0,0.0,0.0,0.0,0.0,0.0,0.0,0.0,-4.4587,-4.3918,-4.3076,-4.2323,-4.1621,-4.0989,-4.0488,-3.963,-3.8452,-3.8546,-3.9192,-4.0354,-4.1961,-4.2386,-4.1759,-4.2092,-4.1847,-4.1145,-4.0764,-4.0577,-4.0521,-4.0521,-4.0521,-4.0521,-4.0521,-4.0343,-4.0096,-4.0096,0.0,0.0,0.0,0.0,0.0,0.0,0.0,-3.3869,-3.096,-2.9465,-2.8421,-2.6912,-2.7117,-2.7947,-2.8727,-2.9782,-3.0695,-3.0977,-3.0621,-3.029,-3.0572,-3.0819,-3.1022,-3.1022,-3.0809,-3.062,-3.062,-3.0394,-3.0218,-3.0218,-2.998,-2.9792,-2.9792,0.0,0.0,0.0,0.0,0.0,0.0,0.0,-2.9998,-3.0482,-3.052,-3.1193,-3.2593,-3.3101,-3.3788,-3.4758,-3.5246,-3.5504,-3.5504,-3.5019,-3.4758,-3.4725,-3.329,-3.2321,-3.1779,-3.0394,-2.9792,-2.9792,-2.9792,-2.9792,-2.9792,-2.9792,-2.9792,-2.9792,-2.9792,-2.9792,-2.9792,0.0,0.0,0.0,0.0,0.0,0.0,0.0,0.0,0.0,0.0,0.0,0.0,0.0,0.0,0.0,0.0,0.0,0.0,0.0,-4.4825,-4.4098,-4.2955,-4.2368,-4.1381,-3.993,-3.9802,-3.897,-3.7404,-3.7404,-3.8115,-3.9516,-4.1548,-4.2277,-4.1923,-4.254,-4.2456,-4.1863,-4.1271,-4.0646,-4.0096,-4.0096,-4.0096,-4.0096,-4.0096,-4.0096,-4.0096,-4.0096,-4.0096,-4.0121,-4.0204,0.0,0.0,0.0,0.0,-3.517,-3.2075,-3.0466,-2.9273,-2.7261,-2.6805,-2.7286,-2.8921,-2.9617,-2.9893,-2.9672,-2.9337,-2.8994,-2.8819,-2.9689,-3.047,-3.047,-3.0093,-2.9792,-2.9792,-2.9792,-2.9792,-2.9792,-2.9792,-2.9792,0.0,0.0,0.0,0.0,0.0,0.0,0.0,0.0,-2.9792,-2.9792,-2.9792,-3.0241,-3.118,-3.2105,-3.3066,-3.3993,-3.4986,-3.5504,-3.5504,-3.4461,-3.3993,-3.3959,-3.2855,-3.2464,-3.25,-3.0608,-2.9792,-2.9792,-2.9792,-2.9792,-2.9792,-2.9792,-2.9792,-2.9792,-2.9792,-2.9792,-2.9792,0.0,0.0,0.0,0.0,0.0,0.0,0.0,0.0,0.0,0.0,-4.3515,-4.3515,-4.3515,-4.3515,0.0,0.0,0.0,0.0,-4.5495,0.0,0.0,-4.2955,-4.2815,-4.1875,-3.9945,-3.9874,-3.9044,-3.7404,-3.7404,-3.7803,-3.8572,-3.9023,-3.9576,-4.0219,-4.0303,-4.0377,-4.04,-4.0299,-4.0197,-4.0096,-4.0096,-4.0096,-4.0096,-4.0096,-4.0096,-4.0096,-4.0096,-4.0096,-4.0154,-4.0631,-4.0716,0.0,0.0,0.0,-3.7311,-3.4082,-3.1899,-3.0143,-2.8237,-2.8143,-2.8974,-3.0663,-3.0782,-3.0242,-2.9246,-2.9346,-2.9386,-2.8403,-2.9086,-2.9905,-2.9905,-2.9842,-2.9792,-2.9792,-2.9792,-2.9792,-2.9792,-2.9792,-2.9792,0.0,0.0,0.0,0.0,0.0,0.0,0.0,-2.9792,-2.9792,-2.9792,-2.9792,-3.0241,-3.118,-3.2105,-3.3066,-3.3993,-3.4986,-3.5504,-3.5504,-3.4461,-3.3993,-3.3945,-3.2177,-3.1815,-3.25,-3.0608,-2.9792,-2.9792,-2.9792,-2.9792,-2.9792,-2.9792,-2.9792,-2.9792,-2.9792,-2.9792,-2.9792,0.0,0.0,0.0,0.0,0.0,0.0,0.0,0.0,0.0,0.0,0.0,-4.3515,-4.3515,-4.3515,0.0,0.0,0.0,0.0,-4.5292,-4.4872,0.0,0.0,-4.3191,-4.2111,-4.0492,-3.9719,-3.8557,-3.6957,-3.6544,-3.6851,-3.7838,-3.8277,-3.9133,-4.0371,-4.0867,-4.0904,-4.0577,-4.0255,-4.0096,-4.0096,-4.0096,-4.0096,-4.0096,-4.0096,-4.0096,-4.0096,-4.0096,-4.0096,-4.0179,-4.0726,-4.0703,-4.0431,-4.0419,0.0,0.0,0.0,-3.3206,-3.0553,-2.8031,-2.8005,-2.8824,-2.9382,-2.937,-2.908,-2.8562,-2.8634,-2.8727,-2.8215,-2.9028,-2.9792,-2.9792,-2.9792,-2.9792,-2.9792,-2.9792,-2.9792,-2.9792,-2.9792,-2.9792,0.0,0.0,0.0,0.0,0.0,0.0,0.0,-2.9792,-2.9792,-2.9792,-2.9792,-3.0011,-3.0419,-3.1328,-3.2285,-3.3206,-3.4177,-3.4953,-3.5504,-3.5052,-3.4543,-3.3959,-3.2593,-3.1924,-3.1742,-3.0394,-2.9792,-2.9792,-2.9792,-2.9792,-2.9792,-2.9792,-2.9792,-2.9792,-2.9792,-2.9792,-2.9792,0.0,0.0,0.0,0.0,0.0,0.0,0.0,0.0,0.0,0.0,0.0,-4.3515,-4.3515,0.0,0.0,0.0,0.0,0.0,-4.4806,0.0,0.0,0.0,0.0,-4.1992,-4.0637,-3.9299,-3.7963,-3.6615,-3.5863,-3.6252,-3.7674,-3.8167,-3.9199,-4.0662,-4.1342,-4.1306,-4.0753,-4.0241,-4.0188,-4.0367,-4.018,-4.0096,-4.0096,-4.0096,-4.0096,-4.0096,-4.0096,-4.0096,-4.0179,-4.0726,-4.0631,-4.0334,-4.0555,-3.9552,0.0,0.0,0.0,-3.13,-2.879,-2.8672,-2.9161,-2.8739,-2.8766,-2.8745,-2.8203,-2.8096,-2.8004,-2.7763,-2.8371,-2.8961,-2.8961,-2.9417,-2.9702,-2.9417,-2.9624,-2.9792,-2.9792,-2.9792,-2.9792,0.0,0.0,0.0,0.0,0.0,0.0,0.0,-2.9792,-2.9792,-2.9792,-2.9792,-2.9792,-2.9792,-3.0733,-3.1536,-3.2249,-3.3415,-3.4509,-3.5504,-3.5246,-3.4591,-3.3636,-3.2925,-3.196,-3.0796,-3.0101,-2.9792,-2.9792,-2.9792,-2.9792,-2.9792,-2.9792,-2.9792,-2.9792,-2.9792,-2.9792,-2.9792,0.0,0.0,0.0,0.0,0.0,0.0,0.0,0.0,0.0,0.0,0.0,0.0,-4.3515,-4.3515,-4.3629,-4.3971,0.0,0.0,0.0,0.0,0.0,0.0,0.0,0.0,-3.9893,-3.8536,-3.7429,-3.6615,-3.5863,-3.6477,-3.8347,-3.8377,-3.9131,-4.0417,-4.0604,-4.0499,-4.0133,-3.9979,-4.039,-4.1085,-4.0383,-4.0096,-4.0096,-4.0096,-4.0096,-4.0096,-4.0096,-4.0096,-4.0179,-4.0726,-4.088,-4.0735,-4.0071,-3.9766,-3.9301,0.0,0.0,0.0,-3.1729,-3.1447,-3.1208,-3.0313,-3.0587,-3.0518,-2.8548,-2.8096,-2.7804,-2.6801,-2.6648,-2.6689,-2.6689,-2.8383,-2.9456,-2.8347,-2.9106,-2.9792,-2.9792,-2.9792,-2.9792,0.0,0.0,0.0,0.0,0.0,0.0,0.0,-2.9792,-2.9792,-2.9792,-2.9792,-2.9792,-2.9792,-3.0733,-3.1217,-3.1278,-3.3101,-3.4509,-3.5504,-3.4543,-3.3602,-3.2664,-3.2629,-3.1586,-2.9856,-2.983,-2.9792,-2.9792,-2.9792,-2.9792,-2.9792,-2.9792,-2.9792,-2.9792,-2.9792,-2.9792,-2.9792,0.0,0.0,0.0,0.0,0.0,0.0,0.0,0.0,0.0,0.0,0.0,0.0,0.0,-4.3515,-4.3548,-4.3679,-4.3881,0.0,0.0,0.0,0.0,0.0,0.0,0.0,-4.1108,-3.9274,-3.8004,-3.7368,-3.6101,-3.6073,-3.718,-3.7584,-3.7808,-3.7948,-3.9336,-3.9667,-3.9135,-3.9235,-3.9439,-3.9751,-4.0002,-4.0096,-4.0096,-4.0096,-4.0096,-4.0096,-4.0096,-4.0096,-4.0179,-4.0726,-4.0369,-3.9696,-3.9767,-3.8906,-3.7534,-3.585,-3.4734,-3.3754,-3.2348,-3.1928,-3.1696,-3.0699,-3.0959,-3.1092,-2.9752,-2.9757,-2.959,-2.7872,-2.7522,-2.7075,-2.5672,-2.6637,-2.7545,-2.7128,-2.7988,-2.8727,-2.8727,-2.9326,-2.9792,0.0,0.0,0.0,0.0,0.0,0.0,0.0,0.0,-2.9792,-2.9792,-2.9792,-2.9792,-2.9792,-3.0139,-3.0595,-3.118,-3.2464,-3.3276,-3.365,-3.3276,-3.2593,-3.1706,-3.1706,-3.102,-2.9792,-2.9792,-2.9792,-2.9792,-2.9792,-2.9792,-2.9792,-2.9792,-2.9792,-2.9792,-2.9792,-2.9792,-2.9792,0.0,0.0,0.0,0.0,0.0,0.0,0.0,0.0,-4.3014,-4.3214,0.0,0.0,0.0,0.0,-4.3515,-4.3515,-4.3693,-4.3943,-4.4209,-4.3989,0.0,0.0,0.0,0.0,-4.1793,-3.9963,-3.8619,-3.7793,-3.6508,-3.6196,-3.6862,-3.7286,-3.7376,-3.7273,-3.8396,-3.8688,-3.8337,-3.8701,-3.9023,-3.9352,-3.9883,-4.0096,-4.0096,-4.0096,-4.0096,-4.0096,-4.0096,-4.0096,-4.0146,-4.0504,-4.0068,-3.9357,-3.9202,-3.7883,-3.6213,-3.5225,-3.4783,-3.435,-3.3239,-3.2926,-3.2702,-3.1707,-3.1768,-3.189,-3.1163,-3.0887,-3.037,-2.8895,-2.8275,-2.7383,-2.5199,-2.542,-2.5933,-2.5933,-2.6871,-2.7562,-2.7562,-2.853,0.0,0.0,0.0,0.0,0.0,0.0,0.0,0.0,0.0,0.0,-2.9792,-2.9792,-2.9792,-2.9792,-2.9792,-3.0241,-3.118,-3.1815,-3.2285,-3.2593,-3.2593,-3.2105,-3.1204,-3.1336,-3.0837,-2.9818,-2.9948,-2.991,-2.9792,-2.9792,-2.9792,-2.9792,-2.9792,-2.9792,-2.9792,-2.9792,-2.9792,-2.9792,0.0,0.0,0.0,0.0,0.0,0.0,0.0,0.0,-4.2035,-4.2596,0.0,0.0,0.0,0.0,0.0,-4.3515,-4.3515,-4.3515,-4.3515,-4.3515,0.0,0.0,0.0,0.0,-4.1793,-4.05,-3.9166,-3.7793,-3.6994,-3.6909,-3.7544,-3.7544,-3.7868,-3.8469,-3.7838,-3.7591,-3.767,-3.844,-3.924,-4.0029,-4.0059,-4.007,-4.0096,-4.0096,-4.0096,-4.0096,-4.0096,-4.0096,-4.0096,-4.0096,-4.0096,-3.9808,-3.8328,-3.6817,-3.56,-3.56,-3.5138,-3.4624,0.0,0.0,0.0,-3.3366,-3.3093,-3.3015,-3.2674,-3.1289,-2.9941,-2.9593,-2.8653,-2.7318,-2.5262,-2.483,-2.4787,-2.4787,-2.5714,-2.6431,-2.6431,-2.736,0.0,0.0,0.0,0.0,0.0,0.0,0.0,0.0,-2.9792,-2.9792,-2.9792,-2.9792,-2.9792,-2.9792,-2.9792,-3.0241,-3.1143,-3.118,-3.1609,-3.2536,-3.2536,-3.2033,-3.1154,-3.155,-3.1002,-2.9831,-3.0199,-3.0128,-2.9792,-2.9792,-2.9792,-2.9792,-2.9792,-2.9792,-2.9792,-2.9792,-2.9792,-2.9792,0.0,0.0,0.0,0.0,0.0,-4.3932,-4.3728,-4.3079,-4.2473,0.0,0.0,0.0,-4.2765,-4.3178,-4.3515,-4.3515,-4.3515,-4.3515,-4.3515,-4.3515,-4.3515,-4.3515,-4.3357,-4.281,-4.1814,-4.0873,-3.9539,-3.7793,-3.6994,-3.6429,-3.6086,-3.6086,-3.6192,-3.6358,-3.6722,-3.6582,-3.615,-3.6879,-3.7666,-3.848,-3.9007,-3.9584,-4.0096,-4.0096,-4.0096,-4.0096,-4.0096,-4.0096,-4.0096,-4.0096,-3.9757,-3.9039,-3.7574,-3.6417,-3.56,-3.56,-3.547,-3.5207,-3.4736,0.0,0.0,0.0,0.0,0.0,-3.241,-3.1876,-3.1217,-3.0086,-2.9038,-2.8084,-2.7192,-2.5804,-2.4787,-2.4787,-2.5041,-2.5252,-2.5252,-2.6254,0.0,0.0,0.0,0.0,0.0,0.0,0.0,0.0,-2.9792,-2.9792,-2.9792,-2.9792,-2.9792,-2.9792,-2.9792,-2.9934,-3.0177,-3.0177,-3.0317,-3.057,-3.057,-3.0419,-3.019,-2.9852,-2.9742,-2.9793,-2.9479,-2.9517,-2.9792,-2.9792,-2.9792,-2.9792,-2.9792,-2.9792,-2.9792,-2.9792,-2.9792,-2.9792,0.0,0.0,0.0,-4.4615,-4.4238,-4.3855,-4.3696,-4.3083,-4.259,0.0,0.0,0.0,-4.3557,-4.3815,-4.3864,-4.3533,-4.3515,-4.3515,-4.3515,-4.3515,-4.3515,-4.3515,-4.3515,-4.3069,-4.2183,-4.1476,-4.0117,-3.8132,-3.7438,-3.6722,-3.5943,-3.5943,-3.5943,-3.5975,-3.6415,-3.6196,-3.5537,-3.5943,-3.6783,-3.7863,-3.8608,-3.9368,-4.0096,-4.0096,-4.0096,-4.0096,-4.0096,-4.0096,-4.0096,-4.0096,-3.9622,-3.8785,-3.7618,-3.6941,-3.6428,-3.5785,-3.5836,-3.5943,-3.5205,-3.5028,-3.4913,-3.4527,0.0,0.0,-3.362,-3.333,-3.2792,-3.1546,-3.0829,-2.9985,-2.8612,-2.727,-2.6069,-2.5126,-2.4882,-2.4628,-2.4168,-2.5094,0.0,0.0,0.0,0.0,0.0,-2.9733,-3.0043,-2.9817,-2.9792,-2.9792,-2.9792,-2.9792,-2.9792,-2.9792,-2.9792,-2.9792,-2.9792,-2.9792,-2.9792,-2.9792,-2.9553,-2.9566,-2.9754,-2.8712,-2.8674,-2.939,-2.8586,-2.8561,-2.9089,-2.9089,-2.9365,-2.9767,-2.9528,-2.9578,-2.9767,-2.9528,-2.9578,-2.9792,0.0,0.0,-4.4615,-4.4615,-4.4012,-4.3678,-4.4139,-4.3183,-4.2583,0.0,-4.367,-4.4293,-4.4803,-4.4783,-4.4415,-4.3699,-4.3551,-4.3515,-4.3515,-4.3515,-4.3515,-4.3515,-4.3515,-4.325,-4.2711,-4.2121,-4.0753,-3.8611,-3.808,-3.7338,-3.6477,-3.6477,-3.6477,-3.6461,-3.6554,-3.6196,-3.5504,-3.5587,-3.6399,-3.7719,-3.837,-3.9236,-4.0096,-3.9995,-4.002,-4.0096,-4.0096,-4.0096,-4.0096,-4.0096,-3.9622,-3.8886,-3.8227,-3.7973,-3.7635,-3.6259,-3.6299,-3.6643,-3.5943,-3.5667,-3.5599,-3.5604,-3.5111,0.0,-3.5342,-3.4963,-3.4257,-3.344,-3.3125,-3.2278,-2.9875,-2.9011,-2.8,-2.5954,-2.5295,-2.4597,-2.329,-2.3963,-2.466,0.0,0.0,0.0,-2.8226,-2.9542,-3.0248,-2.9917,-2.9829,-2.9792,-2.9792,-2.9792,-2.9792,-2.9792,-2.9792,-2.9792,-2.9792,-2.9792,-2.9792,-2.9779,-2.9202,-2.9202,-2.9641,-2.8021,-2.7846,-2.8737,-2.7733,-2.7595,-2.8109,-2.8109,-2.8699,-2.9553,-2.9038,-2.9151,-2.9553,-2.9026,-2.9164,-2.9603,0.0,-4.4615,-4.4615,-4.4615,-4.4479,-4.4185,-4.3668,-4.3366,-4.299,-4.2539,-4.3408,-4.4573,-4.5768,-4.5185,-4.4654,-4.4488,-4.3864,-4.3515,-4.3515,-4.3515,-4.3515,-4.3515,-4.3515,-4.325,-4.2711,-4.2121,-4.0753,-3.8611,-3.808,-3.7086,-3.5701,-3.5701,-3.5701,-3.5718,-3.6337,-3.6196,-3.5537,-3.6134,-3.6554,-3.6843,-3.6978,-3.8286,-4.002,-3.9368,-3.9558,-4.0096,-4.0096,-4.0096,-4.0096,-4.0096,-3.9622,-3.8971,-3.8819,-3.8379,-3.7855,-3.755,-3.7127,-3.6778,-3.6609,-3.6096,-3.5611,-3.5593,-3.5105,0.0,-3.4767,-3.427,-3.3904,-3.4225,-3.3211,-3.2287,-3.2295,-3.0438,-2.8763,-2.8331,-2.725,-2.5676,-2.3404,-2.3299,-2.3757,0.0,0.0,0.0,-2.8562,-2.8985,-2.9533,-3.0378,-3.0043,-2.9792,-2.9792,-2.9792,-2.9792,-2.9792,-2.9792,-2.9792,-2.9792,-2.9792,-2.9792,-2.9779,-2.9202,-2.895,-2.9026,-2.7833,-2.7645,-2.8235,-2.757,-2.7595,-2.8109,-2.8109,-2.8235,-2.8423,-2.831,-2.8335,-2.8423,-2.831,-2.8335,-2.8436,-4.453,-4.4615,-4.4615,-4.4615,-4.4615,-4.4479,-4.4062,-4.3995,-4.3859,-4.3515,-4.4241,-4.5023,-4.5641,-4.5188,-4.4688,-4.4287,-4.3797,-4.3515,-4.3515,-4.3515,-4.3515,-4.3515,-4.3515,-4.3375,-4.3087,-4.2264,-4.1084,-3.9597,-3.8394,-3.7205,-3.6023,-3.5668,-3.5504,-3.5504,-3.5894,-3.5846,-3.5537,-3.5894,-3.6244,-3.6615,-3.6615,-3.7758,-3.9463,-3.9043,-3.9394,-4.0096,-4.0096,-4.0096,-4.0096,-4.0096,-3.9859,-3.9486,-3.9106,-3.8988,-3.8853,-3.8125,-3.7905,-3.7743,-3.6998,-3.6524,-3.6096,-3.5701,-3.5362,0.0,0.0,-3.4847,-3.4594,-3.4592,-3.3662,-3.2841,-3.2842,-3.1291,-2.9873,-2.9289,-2.8502,-2.7264,-2.5251,-2.4408,-2.4168,0.0,0.0,0.0,-2.6769,-2.8277,-2.9494,-3.0165,-2.9942,-2.9792,-2.9792,-2.9792,-2.9792,-2.9792,-2.9792,-2.9654,-2.9365,-2.9365,-2.9227,-2.895,-2.8373,-2.8247,-2.8449,-2.7369,-2.7168,-2.7657,-2.714,-2.7065,-2.7281,-2.7281,-2.7281,-2.7318,-2.7595,-2.7858,-2.8072,-2.7795,-2.7871,-2.8109,-4.4333,-4.4378,-4.4429,-4.4581,-4.4615,-4.4615,-4.4615,-4.4615,-4.4615,-4.4615,-4.5142,-4.5455,-4.5281,-4.5116,-4.4833,-4.4345,-4.388,-4.3616,-4.3616,-4.3578,-4.3486,-4.3357,-4.3444,-4.3515,-4.3515,-4.2386,-4.1407,-4.0614,-3.8716,-3.7397,-3.6569,-3.5846,-3.5504,-3.5504,-3.5504,-3.5504,-3.5504,-3.5504,-3.5831,-3.6384,-3.6384,-3.7306,-3.8663,-3.8509,-3.8951,-3.9679,-3.9825,-3.9876,-3.9901,-4.0045,-4.0096,-3.9994,-3.9394,-3.9622,-3.9876,-3.8667,-3.8633,-3.8734,-3.7557,-3.7032,-3.6643,-3.5994,-3.5701,-3.56,0.0,0.0,0.0,-3.4918,-3.426,-3.3633,-3.3093,0.0,0.0,0.0,0.0,0.0,0.0,-2.6815,0.0,0.0,0.0,0.0,0.0,-2.782,-2.9555,-2.9777,-2.9792,-2.9792,-2.9792,-2.9792,-2.9792,-2.9792,-2.9792,-2.9566,-2.9063,-2.895,-2.8662,-2.826,-2.7595,-2.7519,-2.7908,-2.6952,-2.6738,-2.714,-2.6688,-2.6499,-2.6499,-2.6499,-2.6499,-2.6537,-2.6989,-2.7394,-2.7733,-2.7329,-2.7406,-2.7783,-4.342,-4.3527,-4.3775,-4.4496,-4.4615,-4.4615,-4.4615,-4.4615,-4.4615,-4.4615,-4.5142,-4.5502,-4.5475,-4.5292,-4.5432,-4.6041,-4.4781,-4.3935,-4.3935,-4.384,-4.3474,-4.2806,-4.325,-4.3515,-4.3515,-4.2386,-4.1407,-4.0614,-3.8716,-3.7397,-3.6569,-3.5846,-3.5504,-3.5504,-3.5504,-3.5504,-3.5504,-3.5504,-3.5569,-3.5619,-3.5619,-3.6538,-3.7863,-3.7128,-3.7381,-3.8149,-3.8799,-3.9032,-3.9139,0.0,-4.0096,-4.0096,-4.0011,-4.0028,-4.0079,-3.991,-3.9453,-3.8954,-3.8785,-3.7811,-3.6778,-3.6694,-3.6129,-3.56,-3.56,0.0,-3.5577,-3.5492,0.0,-3.4455,-3.4382,0.0,0.0,0.0,0.0,0.0,-3.1636,-3.0811,-2.9312,-2.6603,0.0,0.0,0.0,-2.8219,-2.9197,-2.9752,-2.9792,-2.9792,-2.9792,-2.9792,-2.9792,-2.9792,-2.9792,-2.9767,-2.9691,-2.9189,-2.8863,-2.8787,-2.777,-2.7318,-2.7356,-2.6776,-2.6524,-2.6587,-2.6524,-2.6499,-2.6499,-2.6499,-2.6499,-2.6499,-2.6562,-2.6625,-2.6675,-2.6612,-2.6625,-2.6688,-4.254,-4.276,-4.2861,-4.32,-4.3278,-4.3403,-4.3842,-4.4282,-4.4767,-4.5179,-4.5086,-4.5296,-4.6157,-4.5684,-4.5459,-4.5808,-4.511,-4.4475,-4.4034,-4.3539,-4.314,-4.2819,-4.2967,-4.3032,-4.3032,-4.2206,-4.1629,-4.1306,-3.8964,-3.7632,-3.7279,-3.6053,-3.5504,-3.5504,-3.5504,-3.5504,-3.5504,-3.5504,-3.528,-3.4936,-3.534,-3.5667,-3.5952,-3.6414,-3.7084,-3.7835,-3.8149,-3.8246,-3.8386,0.0,-3.9129,0.0,0.0,0.0,0.0,-3.9952,-3.9893,-3.9529,-3.9106,0.0,0.0,0.0,0.0,0.0,-3.56,0.0,-3.56,0.0,0.0,0.0,0.0,0.0,0.0,0.0,-3.2962,0.0,0.0,0.0,-3.0806,0.0,0.0,0.0,0.0,0.0,0.0,0.0,0.0,-2.9792,-2.9792,-2.9792,-2.9792,-2.9792,-2.9792,-2.9478,-2.8825,-2.8574,-2.8134,-2.7494,-2.7065,-2.6839,-2.6839,-2.66,-2.6499,-2.6499,-2.6499,-2.6499,-2.6499,-2.6499,-2.6499,-2.6499,-2.6499,-2.6499,-2.6499,-2.6499,-2.6499,-2.6499,-4.15,-4.1847,-4.2049,-4.2252,-4.2136,-4.2253,-4.2992,-4.3951,-4.484,-4.5602,-4.5043,-4.5173,-4.6633,-4.6009,-4.566,-4.6045,-4.558,-4.504,-4.4499,-4.3541,-4.2989,-4.2989,-4.2656,-4.255,-4.2745,-4.198,-4.1556,-4.1556,-3.9023,-3.7793,-3.7764,-3.6227,-3.5504,-3.5504,-3.5504,-3.5504,-3.5504,-3.5504,-3.522,-3.4833,-3.5295,-3.5205,-3.4896,-3.5919,-3.6661,-3.7205,-3.7397,-3.7485,-3.7602,-3.8358,-3.8246,0.0,-3.9119,0.0,-3.8745,0.0,0.0,0.0,-3.9327,0.0,0.0,0.0,0.0,0.0,0.0,0.0,0.0,0.0,0.0,0.0,0.0,0.0,-3.4572,-3.3995,0.0,-3.3382,0.0,-3.2939,0.0,0.0,0.0,0.0,0.0,0.0,0.0,0.0,0.0,0.0,-2.9792,-2.9792,-2.9792,-2.9792,-2.9641,-2.9164,-2.8335,-2.8034,-2.7482,-2.6713,-2.6562,-2.6499,-2.6499,-2.6499,-2.6499,-2.6499,-2.6499,-2.6499,-2.6499,-2.6499,-2.6499,-2.6499,-2.6499,-2.6499,-2.6499,-2.6499,-2.6499,-2.6499,-4.0163,-4.0747,-4.1457,-4.2168,-4.171,-4.1477,-4.2233,-4.3635,-4.484,-4.5602,-4.5043,-4.5173,-4.6633,-4.6155,-4.6273,-4.7712,-4.6493,-4.5676,-4.5642,-4.4104,-4.3182,-4.3182,-4.2334,-4.2168,-4.289,-4.1613,-4.0926,-4.0926,-3.8815,-3.7793,-3.7764,-3.6227,-3.5504,-3.5504,-3.5504,-3.5504,-3.5504,-3.5504,-3.5489,-3.5474,-3.5489,-3.5489,-3.5474,0.0,-3.5554,-3.5683,-3.6384,0.0,0.0,-3.7573,-3.7822,0.0,0.0,0.0,0.0,0.0,0.0,0.0,0.0,0.0,0.0,-3.7872,0.0,0.0,0.0,0.0,-3.5802,0.0,0.0,0.0,0.0,-3.779,-3.7076,-3.4997,-3.5182,0.0,0.0,0.0,0.0,0.0,0.0,0.0,0.0,0.0,0.0,0.0,0.0,0.0,-2.9792,-2.9792,-2.9792,-2.9792,-2.9252,-2.89,-2.8863,-2.7846,-2.7329,-2.7291,-2.6751,-2.6499,-2.6499,-2.6499,-2.6499,-2.6499,-2.6499,-2.6499,-2.6499,-2.6499,-2.6499,-2.6499,-2.6499,-2.6499,-2.6499,-2.6499,-2.6499,-2.6499,-4.073,-4.0629,-4.0382,-4.0094,-3.9857,-4.0105,-4.1382,-4.2812,-4.4215,-4.5544,-4.5483,-4.5703,-4.6684,-4.6583,-4.643,-4.6447,-4.5991,-4.55,-4.4993,-4.3943,-4.3318,-4.3318,-4.2943,-4.2608,-4.2382,-4.1933,-4.1416,-4.0903,-3.8815,-3.7793,-3.7764,-3.6227,-3.5504,-3.5504,-3.5504,-3.5504,-3.5504,-3.5504,-3.5235,-3.4848,-3.4848,-3.51,-3.5504,0.0,0.0,-3.5537,-3.5782,-3.5863,0.0,-3.6753,-3.6677,-3.6461,-3.7472,-3.7139,-3.6497,-3.7267,-3.7031,0.0,0.0,0.0,-3.6693,-3.7675,0.0,0.0,0.0,0.0,0.0,0.0,0.0,0.0,0.0,-3.7475,-3.6853,-3.614,-3.5409,-3.507,0.0,0.0,0.0,0.0,0.0,0.0,0.0,0.0,0.0,0.0,-2.9792,0.0,0.0,-3.0139,-3.0062,-3.0696,-2.9529,-2.8712,-2.8386,-2.7657,-2.714,-2.6776,-2.6587,-2.6298,-2.5933,-2.6323,-2.6285,-2.5946,-2.6336,-2.6499,-2.6499,-2.6499,-2.6499,-2.6499,-2.6499,-2.6499,-2.6499,-2.6499,-2.6499,-2.6499,-4.1119,-4.0574,-3.979,-3.9038,-3.9116,-3.9552,-4.0518,-4.1898,-4.3293,-4.46,-4.476,-4.515,-4.6234,-4.6317,-4.627,-4.6097,-4.5855,-4.55,-4.501,-4.3995,-4.3538,-4.3809,-4.3235,-4.2774,-4.2568,-4.206,-4.1528,-4.0996,-3.8843,-3.7793,-3.7764,-3.6227,-3.5504,-3.5504,-3.5504,-3.5504,-3.5504,-3.5504,-3.525,-3.4846,-3.4846,-3.51,0.0,0.0,-3.5504,-3.5504,0.0,-3.5504,-3.5554,-3.6054,-3.5728,-3.5307,-3.6304,-3.5794,-3.5014,-3.5817,-3.5522,-3.5206,-3.6186,-3.608,0.0,-3.658,-3.6193,0.0,-3.5972,0.0,0.0,0.0,0.0,0.0,0.0,0.0,-3.716,-3.6152,-3.5831,-3.5999,0.0,-3.6909,0.0,0.0,0.0,-3.183,0.0,0.0,-3.0012,-2.9818,-2.9792,0.0,0.0,0.0,-3.0419,-3.0696,-2.9661,-2.8767,-2.8109,-2.7369,-2.6851,-2.6499,-2.6499,-2.6298,-2.5912,-2.6323,-2.6285,-2.5925,-2.6336,-2.6499,-2.6499,-2.6499,-2.6499,-2.6499,-2.6499,-2.6499,-2.6499,-2.6499,-2.6499,-2.6465,-4.1253,-4.0496,-3.9635,-3.9035,-3.9389,-3.9754,-3.9724,-4.0954,-4.2205,-4.2991,-4.3069,-4.367,-4.522,-4.5302,-4.5632,-4.649,-4.5908,-4.5549,-4.5578,-4.4226,-4.3753,-4.4564,-4.321,-4.2726,-4.3375,-4.1999,-4.1238,-4.1204,-3.89,-3.7793,-3.7764,-3.6227,-3.5504,-3.5504,-3.5504,-3.5504,-3.5504,-3.5504,-3.5504,-3.5504,-3.5504,-3.5504,-3.5504,-3.5504,-3.5504,-3.5504,-3.5504,-3.5504,-3.5504,-3.5504,-3.507,-3.4548,-3.4518,-3.4054,-3.3622,-3.4368,-3.4045,-3.3724,-3.5227,-3.5587,-3.5405,-3.4848,0.0,0.0,0.0,0.0,-3.4755,0.0,0.0,0.0,0.0,0.0,0.0,-3.5216,-3.6559,-3.7658,-3.6901,-3.7383,-3.7526,0.0,0.0,-3.3366,-3.1536,-3.1278,-3.0871,-2.9934,-2.983,-2.983,0.0,0.0,-3.0796,-2.9972,-2.9665,-2.909,-2.817,-2.7052,-2.6499,-2.6499,-2.6499,-2.6474,-2.6449,-2.6474,-2.6474,-2.6449,-2.6487,-2.6499,-2.6499,-2.6499,-2.6499,-2.6499,-2.6499,-2.6499,-2.6499,-2.6499,-2.6499,-2.6349,-4.1818,-4.0315,-3.9031,-3.9361,-3.8671,-3.8415,-3.9541,-4.0475,-4.1516,-4.2843,-4.3501,-4.376,-4.3637,-4.3654,-4.3573,-4.3261,-4.305,-4.3217,-4.3873,-4.3555,-4.3702,-4.457,-4.4225,-4.3809,-4.3392,-4.2489,-4.1745,-4.1204,-3.89,-3.7793,-3.7764,-3.6227,-3.5504,-3.5504,-3.5504,-3.5504,-3.5504,-3.5504,-3.5504,-3.5504,-3.5504,-3.5504,-3.5504,0.0,-3.5504,-3.5504,-3.5504,-3.5504,-3.5504,-3.5504,-3.5385,-3.516,-3.4668,-3.4054,-3.3425,-3.3155,-3.2566,-3.2239,-3.3146,-3.3421,-3.362,-3.4473,-3.441,-3.423,0.0,0.0,0.0,0.0,0.0,0.0,0.0,0.0,0.0,-3.6163,-3.6632,-3.6973,-3.6802,-3.7366,-3.7718,-3.751,0.0,0.0,-3.3435,-3.2629,-3.1852,-3.0895,-3.0177,0.0,0.0,0.0,0.0,-3.1865,-3.0344,-2.9394,-2.9148,-2.7363,-2.6499,-2.6499,-2.6499,-2.6273,-2.5871,-2.6298,-2.626,-2.5871,-2.6311,-2.6499,-2.6499,-2.6499,-2.6499,-2.6499,-2.6499,-2.6499,-2.6499,-2.6499,-2.6499,-2.6349,-4.1539,-4.0483,-3.9465,-3.9505,-3.9068,-3.9003,-3.9862,-4.0069,-4.0554,-4.1705,-4.2229,-4.2372,-4.2025,-4.2298,-4.237,-4.2029,-4.1997,-4.2221,-4.2707,-4.2724,-4.2939,-4.3439,-4.3844,-4.3834,-4.337,-4.2985,-4.2422,-4.1677,-3.9401,-3.811,-3.7764,-3.6227,-3.5504,-3.5504,-3.5504,-3.5504,-3.5504,-3.5504,-3.5504,-3.5504,-3.5504,-3.5504,0.0,-3.5504,-3.5504,-3.5504,-3.5504,-3.5504,-3.5504,-3.5504,-3.531,-3.4936,-3.4262,-3.3589,-3.2931,-3.2243,-3.1795,-3.1582,-3.2007,-3.2355,-3.2707,-3.3173,-3.3215,-3.3266,-3.3646,-3.3422,-3.3251,0.0,0.0,0.0,0.0,0.0,0.0,-3.6566,-3.6416,-3.6479,-3.7221,-3.7642,-3.7866,-3.7812,-3.7397,0.0,0.0,-3.3788,-3.2629,-3.1278,0.0,0.0,0.0,0.0,0.0,-3.1546,-3.064,-2.9791,-2.9056,-2.7374,-2.6499,-2.6499,-2.6499,-2.6323,-2.6009,-2.6084,-2.6084,-2.6009,-2.6084,-2.626,-2.6499,-2.6499,-2.6499,-2.6499,-2.6499,-2.6499,-2.6499,-2.6499,-2.6499,-2.628,-4.088,-4.0696,-4.0342,-3.9532,-3.9963,-4.0427,-4.0516,-4.0053,-3.9903,-4.0561,-4.0591,-4.0607,-4.0755,-4.1148,-4.146,-4.1624,-4.1674,-4.1707,-4.1836,-4.1836,-4.1869,-4.1997,-4.2724,-4.3139,-4.3139,-4.3094,-4.2713,-4.1984,-3.98,-3.836,-3.7602,-3.6164,-3.5504,-3.5504,-3.5504,-3.5504,-3.5504,-3.5504,-3.5504,-3.5504,-3.5504,-3.5504,-3.5504,-3.5504,-3.5504,-3.5504,-3.5504,-3.5504,-3.5504,-3.5504,-3.504,-3.4414,-3.3799,-3.311,-3.2378,-3.1795,-3.157,-3.1511,-3.1511,-3.1951,-3.2299,-3.1668,-3.1979,-3.241,-3.2269,-3.2317,-3.2333,-3.2273,-3.2781,-3.2916,0.0,0.0,0.0,-3.6251,-3.577,-3.5841,-3.7351,-3.7729,-3.7789,-3.7684,0.0,0.0,0.0,0.0,0.0,0.0,0.0,0.0,0.0,0.0,0.0,-3.0276,-3.074,0.0,-2.8554,0.0,-2.6499,-2.6499,-2.6499,-2.6449,-2.6361,-2.5824,-2.5871,-2.6248,-2.5711,-2.5774,-2.6285,-2.6348,-2.6424,-2.6499,-2.6499,-2.6499,-2.6499,-2.6499,-2.6499,-2.6233,-4.073,-4.0441,-4.022,-3.9514,-3.9963,-4.0591,-4.113,-4.1115,-4.1265,-4.1976,-4.1587,-4.1235,-4.1287,-4.0414,-3.9802,-3.9844,-3.9879,-4.015,-4.0878,-4.0912,-4.1247,-4.1965,-4.2157,-4.2221,-4.2221,-4.1639,-4.1005,-4.0337,-3.865,-3.7483,-3.6783,-3.5894,-3.5504,-3.5504,-3.5504,-3.5504,-3.5504,-3.5504,0.0,-3.5504,-3.5504,-3.5504,-3.5504,-3.5504,-3.5504,-3.5504,-3.5504,-3.5504,-3.5504,-3.5504,-3.504,-3.4488,-3.4369,-3.3484,-3.2497,-3.2348,-3.1929,-3.1511,-3.1511,-3.1582,-3.1668,-3.1524,-3.1582,-3.1548,-3.0984,-3.1271,-3.1511,-3.0971,-3.1376,-3.1944,-3.2258,0.0,0.0,0.0,0.0,0.0,-3.514,-3.6292,-3.6987,-3.6902,-3.7425,-3.6967,0.0,0.0,0.0,0.0,0.0,0.0,0.0,0.0,0.0,0.0,0.0,0.0,0.0,0.0,-2.6499,-2.6499,-2.6499,-2.6248,-2.5737,-2.5636,-2.5423,-2.5109,-2.5008,-2.5008,-2.5146,-2.5573,-2.6059,-2.6499,-2.6499,-2.6499,-2.6499,-2.6499,-2.6499,-2.6349,-4.1078,-4.0905,-4.0816,-4.0487,-4.098,-4.1572,0.0,-4.2177,-4.2267,-4.1946,-4.128,-4.0741,-4.0397,-3.9798,-3.9388,-3.9388,-3.9388,-3.9574,-3.999,-4.0025,-4.022,-4.0638,-4.108,-4.1346,-4.1346,-4.1405,-4.0942,-3.9916,-3.8748,-3.7622,-3.6569,-3.5846,-3.5504,-3.5504,-3.5504,-3.5504,-3.5504,0.0,0.0,-3.5504,-3.5504,-3.5504,-3.5504,-3.5504,-3.5504,-3.5504,-3.5504,-3.5504,-3.5504,-3.5504,-3.5295,-3.4951,-3.4623,-3.3799,-3.2961,-3.2617,-3.2019,-3.1511,-3.1511,-3.1511,-3.1511,-3.1511,-3.1511,-3.1316,-3.0657,-3.0761,-3.0883,-3.0567,-3.0776,-3.1271,-3.2317,-3.3051,0.0,0.0,0.0,0.0,0.0,0.0,-3.5939,-3.6573,-3.6969,-3.6609,0.0,0.0,0.0,0.0,0.0,0.0,0.0,0.0,0.0,0.0,0.0,0.0,0.0,0.0,0.0,-2.7129,-2.6679,-2.6185,-2.5586,-2.5322,-2.5209,-2.5209,-2.4913,-2.5146,-2.5686,-2.5971,-2.6248,-2.6499,-2.6499,-2.6499,-2.6499,-2.6499,-2.6499,-2.6349,-4.1662,-4.1632,-4.1587,-4.1399,-4.1961,-4.2396,-4.2396,-4.291,-4.2931,-4.1938,-4.11,-4.0412,-3.9888,-3.9553,-3.9388,-3.9388,-3.9388,-3.9388,-3.9388,-3.9388,-3.9388,-3.9388,-4.006,-4.0432,-4.0432,-4.1095,-4.0766,0.0,-3.8742,0.0,0.0,0.0,-3.5504,0.0,0.0,0.0,0.0,0.0,-3.518,-3.518,-3.518,-3.5326,-3.5504,-3.5504,-3.5504,-3.5504,-3.5504,-3.5504,-3.5504,-3.5504,-3.5415,-3.522,-3.4816,-3.4053,-3.3215,-3.2841,-3.2123,-3.1511,-3.1511,-3.1511,-3.1511,-3.1511,-3.1511,-3.1286,-3.0492,-3.0417,-3.0432,-3.0148,-3.0313,-3.0866,-3.2049,-3.2736,0.0,0.0,0.0,0.0,0.0,0.0,-3.511,-3.6228,-3.6368,-3.5953,-3.491,0.0,0.0,0.0,0.0,0.0,-3.029,-3.1725,0.0,0.0,0.0,-3.1467,-2.9919,0.0,-2.7703,0.0,-2.6871,-2.6185,-2.5586,-2.5172,-2.5146,-2.5398,-2.4838,-2.5209,-2.616,-2.626,-2.6386,-2.6499,-2.6499,-2.6499,-2.6499,-2.6499,-2.6499,-2.6383,-4.2425,-4.2306,-4.2111,-4.1527,-4.1961,-4.2396,-4.2396,-4.291,-4.3245,-4.3125,-4.2058,-4.1265,-4.1205,-4.0127,-3.9388,-3.9388,-3.9388,-3.9388,-3.9388,-3.9388,-3.9388,-3.9388,-3.9481,-3.9502,-3.9502,-3.961,-3.8983,0.0,0.0,-3.688,0.0,0.0,0.0,0.0,0.0,0.0,0.0,-3.4129,-3.4129,-3.4129,-3.4129,-3.4691,-3.5504,-3.5504,-3.5504,-3.5504,-3.5504,-3.5504,-3.5504,-3.5504,-3.51,-3.4698,-3.5235,-3.4113,-3.2706,-3.3245,-3.2512,-3.1511,-3.1511,-3.1511,-3.1511,-3.1511,-3.1511,-3.1182,-2.9953,-3.0103,-3.0178,-2.9026,-2.9699,-3.0731,-3.1451,-3.1645,-3.1797,0.0,0.0,0.0,0.0,0.0,-3.494,-3.5534,-3.5671,-3.4877,0.0,0.0,0.0,0.0,-3.1466,0.0,-3.1646,-3.2233,0.0,-2.8413,0.0,-3.1059,-2.8698,-2.8007,0.0,-2.7703,-2.6871,-2.6185,-2.5598,-2.5548,-2.5297,-2.4838,-2.4318,-2.4418,-2.5008,-2.5485,-2.6021,-2.6499,-2.6499,-2.6499,-2.6499,-2.6499,-2.6499,-2.6499,0.0,0.0,0.0,0.0,0.0,0.0,0.0,-4.3125,-4.329,-4.329,-4.2536,-4.1707,-4.0876,-4.0322,-3.9843,-3.9454,-3.9388,-3.9388,-3.9388,-3.9388,-3.9388,-3.9388,-3.9388,-3.9388,-3.9388,-3.9388,-3.8945,0.0,0.0,-3.6956,-3.6088,0.0,0.0,0.0,0.0,-3.4953,-3.3993,-3.3993,-3.3671,-3.3171,-3.3171,-3.3394,-3.3754,-3.3754,-3.3754,-3.3837,-3.4394,-3.461,-3.4691,-3.5294,-3.4907,-3.4259,-3.4537,-3.3396,-3.2013,-3.2288,-3.1681,-3.1008,-3.1222,-3.1257,-3.129,-3.1469,-3.1511,-3.1256,-3.0357,-3.0043,-2.9804,-2.9295,-2.952,-2.9726,-2.956,-3.0099,-3.0517,0.0,0.0,0.0,0.0,0.0,0.0,-3.454,-3.4794,-3.4575,0.0,0.0,0.0,0.0,0.0,0.0,0.0,0.0,0.0,-2.9406,0.0,-3.0364,-2.9294,-2.8246,-2.7703,-2.7703,-2.6871,-2.6185,-2.5598,-2.5598,-2.5485,-2.5297,-2.5456,-2.5632,-2.5858,-2.6059,-2.6285,-2.6499,-2.6499,-2.6129,-2.5594,-2.5594,-2.5594,-2.5594,-4.329,0.0,-4.2791,0.0,-4.2955,-4.2806,-4.3215,-4.329,-4.329,-4.329,-4.294,-4.2222,-4.11,-4.0636,-4.0217,-3.9753,-3.9493,-3.9388,-3.9388,-3.9388,-3.9388,-3.9388,-3.9388,0.0,-3.9388,-3.9388,-3.908,-3.8392,-3.7928,0.0,-3.6746,0.0,0.0,0.0,-3.5018,-3.4263,-3.3171,-3.3171,-3.2784,-3.2177,-3.2177,-3.2357,-3.2593,-3.2593,-3.2593,-3.2713,-3.3345,-3.3602,-3.3705,-3.4409,-3.3973,-3.3276,-3.3842,-3.2887,-3.1592,-3.1592,-3.1144,-3.064,-3.0682,-3.0718,-3.0734,-3.0774,-3.097,-3.0983,-3.0303,-2.9848,-2.9433,-2.8815,-2.8719,-2.8583,-2.8012,-2.8765,-2.9348,-2.8912,0.0,0.0,0.0,-3.2086,0.0,-3.3676,-3.3989,-3.4016,-3.3463,-3.3028,0.0,0.0,0.0,0.0,0.0,0.0,0.0,0.0,0.0,0.0,0.0,-2.8279,-2.7703,-2.7703,-2.6871,-2.6285,-2.585,-2.585,-2.5762,-2.5624,-2.6248,-2.6399,-2.6248,-2.6424,-2.6499,-2.6499,-2.6499,-2.5873,-2.504,-2.5335,-2.5264,-2.504,-4.329,-4.329,-4.329,-4.329,-4.329,-4.329,-4.329,-4.329,-4.329,-4.329,-4.329,-4.3075,-4.2455,-4.1175,-4.0397,-4.0382,-3.9798,-3.9388,-3.9388,-3.9388,-3.9388,0.0,0.0,-3.9388,-3.9388,-3.9388,-3.908,-3.8392,0.0,0.0,-3.7355,0.0,-3.5582,-3.4949,-3.389,-3.2612,-3.1217,-3.1217,-3.1217,-3.1217,-3.1217,-3.1779,-3.2593,-3.2593,-3.2593,-3.2593,-3.2593,-3.2629,-3.2629,-3.2629,-3.1997,-3.1573,-3.3415,-3.2887,-3.1592,-3.1592,-3.1144,-3.0506,-2.9967,-2.9835,-2.9683,-2.9154,-2.9659,-3.0126,-2.9477,-2.947,-2.9003,-2.6958,-2.7056,-2.7454,-2.7244,-2.7765,-2.8273,-2.8491,0.0,0.0,0.0,-3.1958,0.0,-3.3115,-3.3341,-3.2803,-3.1013,-3.1622,0.0,0.0,0.0,0.0,0.0,0.0,0.0,-2.7402,-2.9067,0.0,-2.852,-2.798,-2.7703,-2.7703,-2.6871,-2.6499,-2.6487,-2.6487,-2.6172,-2.5624,-2.6248,-2.6172,-2.5649,-2.626,-2.6499,-2.6499,-2.6499,-2.5873,-2.5123,-2.6129,-2.5838,-2.5158,-4.329,-4.329,-4.329,-4.329,-4.329,-4.329,-4.329,-4.329,-4.329,-4.329,-4.329,-4.3215,-4.3045,-4.1863,-4.0891,0.0,-3.9798,-3.9388,0.0,-3.9388,-3.9388,-3.9388,-3.9388,-3.9388,-3.9388,-3.9388,-3.932,-3.9095,0.0,0.0,0.0,-3.4894,-3.41,-3.389,-3.3185,-3.2246,-3.1217,-3.1217,-3.0833,-3.0241,-3.0241,-3.0419,-3.0671,-3.0671,-3.0671,-3.0771,-3.1439,-3.1633,-3.1742,-3.2393,-3.1997,-3.1278,-3.1888,-3.1319,-3.0361,-3.0361,-3.0208,-3.0084,-3.0069,-2.9827,-2.9544,-2.9534,-2.9466,-2.9355,-2.9128,-2.9255,-2.8943,-2.7314,-2.7434,-2.7489,-2.6327,-2.6622,-2.7074,-2.7131,-2.7974,0.0,0.0,0.0,-3.1662,-3.1303,-3.1832,-3.1828,0.0,-3.0794,0.0,0.0,0.0,0.0,0.0,0.0,0.0,0.0,-2.7708,0.0,-2.7688,-2.7152,-2.6871,-2.6871,-2.6624,-2.6499,-2.6499,-2.6499,-2.6399,-2.6223,-2.6411,-2.6386,-2.6235,-2.6411,-2.6499,-2.6499,-2.6499,-2.5873,-2.504,-2.537,-2.5264,-2.5052,-4.329,-4.2941,-4.2805,-4.325,-4.2941,-4.2805,-4.325,-4.329,-4.329,-4.329,-4.329,-4.329,-4.329,-4.2162,0.0,-4.0801,-3.9948,-3.9388,-3.9388,-3.9388,-3.9388,-3.9388,-3.9388,-3.9388,-3.9388,0.0,0.0,-3.9388,-3.8602,-3.7441,-3.5976,-3.4554,-3.365,-3.3216,-3.2691,-3.1787,-3.0671,-3.0891,-3.0509,-2.9792,-2.9792,-2.9792,-2.9792,-2.9792,-2.9792,-2.9869,-3.0444,-3.0658,-3.0758,-3.1341,-3.1156,-3.0658,-3.0658,-3.0279,-2.9792,-2.9792,-2.9792,-2.9769,-2.9712,-2.9316,-2.8911,-2.8875,-2.8677,-2.8534,-2.8618,-2.8705,-2.8408,-2.7004,-2.6969,-2.689,-2.5813,-2.5921,-2.6311,-2.6738,-2.7519,-2.8185,-2.8386,0.0,-3.0926,0.0,0.0,0.0,0.0,-3.0215,0.0,0.0,0.0,0.0,0.0,0.0,0.0,-2.7482,-2.6851,0.0,-2.7002,-2.6663,-2.6499,-2.6499,-2.6499,-2.6499,-2.6499,-2.6499,-2.6499,-2.6499,-2.6499,-2.6499,-2.6499,-2.6499,-2.6499,-2.6499,-2.6499,-2.5873,-2.5052,-2.5406,-2.5075,-2.4492,-4.3155,-4.233,0.0,0.0,-4.229,0.0,-4.3036,-4.3115,-4.3076,-4.3155,-4.317,-4.321,-4.329,-4.2207,-4.1467,-4.1422,0.0,0.0,0.0,-3.9388,-3.9388,-3.9388,-3.9388,-3.9388,-3.9388,-3.9388,-3.9337,-3.9301,-3.8144,-3.706,-3.6079,-3.5007,-3.3949,-3.2909,-3.238,-3.1323,-2.993,-3.0407,-3.0319,-2.9842,-2.9804,-2.9792,-2.9792,-2.9792,-2.9792,-2.9792,-2.9792,-2.9792,-2.9792,-2.9792,-2.9792,-2.9792,-2.9792,-2.9792,-2.9792,-2.9792,-2.9792,-2.9679,-2.9139,-2.8561,-2.7984,-2.7469,-2.7477,-2.7689,-2.7925,-2.7975,-2.7594,-2.6299,-2.6025,-2.5957,-2.5714,-2.5649,-2.6013,-2.7105,-2.7745,-2.8298,-2.8813,0.0,0.0,0.0,0.0,0.0,0.0,-2.98,-2.974,0.0,0.0,0.0,0.0,0.0,-2.7027,-2.6512,-2.6499,-2.6499,-2.6499,-2.6499,-2.6499,-2.6499,-2.6499,-2.6499,-2.6499,-2.6499,-2.6499,-2.6499,-2.6499,-2.6499,-2.6499,-2.6499,-2.6499,-2.6499,-2.6499,-2.5921,-2.5229,-2.6164,-2.5276,-2.3745,0.0,0.0,-4.1684,-4.1932,-4.1767,-4.1684,-4.1932,-4.1267,-4.1014,-4.1906,-4.1988,-4.233,-4.321,-4.2611,-4.1976,-4.1429,-4.0172,-3.9388,-3.9388,-3.9388,-3.9388,-3.9388,-3.9388,-3.9388,-3.9388,-3.9388,-3.898,-3.8182,-3.6332,-3.5292,-3.5034,-3.3488,-3.267,-3.2361,-3.1836,-3.1373,-3.0997,-3.0733,-3.0545,-3.0382,-2.9967,-2.9792,-2.9792,-2.9792,-2.9792,-2.9792,-2.9792,-2.9792,-2.9792,-2.9792,-2.9792,-2.9792,-2.9792,-2.9792,-2.9792,-2.9792,-2.9792,-2.9767,-2.9628,-2.8863,-2.8072,-2.7946,-2.7344,-2.6968,-2.763,-2.7786,-2.7681,-2.734,-2.7281,-2.7072,-2.643,-2.6285,-2.6512,-2.7168,-2.7745,-2.8298,-2.8813,-2.9214,0.0,0.0,-2.9078,-2.923,-2.8462,-2.8883,-2.8961,0.0,0.0,0.0,0.0,-2.6688,-2.6625,-2.6499,-2.6499,-2.6499,-2.6499,-2.6499,-2.6499,-2.6499,-2.6499,-2.6499,-2.6499,-2.6499,-2.6499,-2.6499,-2.6499,-2.6499,-2.6499,-2.6499,-2.6499,-2.6499,-2.6499,-2.6349,-2.6164,-2.6418,-2.5687,-2.4671,-4.0703,-4.0376,-4.0161,-4.0746,-4.0376,-4.0204,-4.0746,-4.0275,-4.0102,-4.0746,-4.1295,-4.185,-4.2467,-4.2188,-4.1811,-4.1414,-4.0442,-3.9738,-3.9403,-3.9388,-3.9388,-3.9388,-3.9388,-3.9388,-3.9388,-3.8907,-3.7919,-3.6371,-3.5264,-3.447,-3.3953,-3.3026,-3.2466,-3.2215,-3.2177,-3.1876,-3.1386,-3.1361,-3.1198,-3.0922,-3.0382,-3.0168,-3.0143,-2.9892,-2.9792,-2.9792,-2.9792,-2.9792,-2.9792,-2.9792,-2.9792,-2.9792,-2.9792,-2.9792,-2.9792,-2.9792,-2.9792,-2.9792,-2.9792,-2.9151,-2.836,-2.7858,-2.7281,-2.694,-2.7092,-2.7162,-2.7162,-2.7162,-2.7162,-2.704,-2.6589,-2.67,-2.7052,-2.757,-2.7908,-2.8298,-2.8813,-2.8675,0.0,-2.7795,-2.8399,-2.8574,-2.7808,-2.8461,-2.8599,-2.7795,0.0,0.0,-2.6524,-2.6499,-2.6499,-2.6499,-2.6499,-2.6499,-2.6499,-2.6499,-2.6499,-2.6499,-2.6499,-2.6499,-2.6499,-2.6499,-2.6499,-2.6499,-2.6499,-2.6499,-2.6499,-2.6499,-2.6499,-2.6499,-2.6499,-2.6499,-2.6499,-2.6499,-2.5581,-2.4301,-3.9579,-3.8783,-3.8424,-3.9461,-3.8783,-3.8469,-3.9448,-3.9492,-3.9505,-3.9855,-4.0561,-4.1197,-4.1545,-4.1324,-4.1104,-4.0897,-4.0492,-4.0018,-3.9433,-3.9388,-3.9337,-3.9177,-3.9141,-3.909,-3.8929,-3.7866,-3.6489,-3.4705,-3.4553,-3.3995,-3.3124,-3.3124,-3.2817,-3.2365,-3.2855,-3.2541,-3.1662,-3.2051,-3.1938,-3.1461,-3.0859,-3.0658,-3.0658,-3.003,-2.9842,-2.9905,-2.9829,-2.9792,-2.9792,-2.9792,-2.9792,-2.9792,-2.9792,-2.9792,-2.9792,-2.9792,-2.9792,-2.9792,-2.9792,-2.9365,-2.865,-2.7657,-2.7406,-2.7281,-2.6851,-2.6738,-2.6738,-2.6738,-2.6738,-2.6738,-2.6738,-2.7128,-2.7595,-2.8134,-2.8235,-2.8398,-2.8825,0.0,-2.7665,-2.7153,-2.7754,-2.7841,-2.6951,-2.7656,-2.7817,-2.6938,-2.679,-2.6578,0.0,-2.628,-2.6349,-2.6499,-2.6499,-2.6499,-2.6499,-2.6499,-2.6499,-2.6499,-2.6499,-2.6499,-2.6499,-2.6499,-2.6499,-2.6499,-2.6499,-2.6499,-2.6499,-2.6499,-2.6499,-2.6499,-2.6499,-2.6499,-2.6499,-2.6499,-2.524,-2.3514,-3.8211,-3.8243,-3.8153,-3.8334,-3.8243,-3.8153,-3.8334,-3.7553,-3.7645,-3.9637,-3.9183,-3.942,-4.1378,-4.0703,-3.9704,-3.8641,-3.9256,-3.9638,-3.9412,-3.9388,-3.898,-3.8069,-3.8032,-3.7625,-3.6721,-3.5682,-3.502,-3.4705,-3.3797,-3.3283,-3.3124,-3.3124,-3.3074,-3.2943,-3.3074,-3.3023,-3.2792,-3.239,-3.2164,-3.2001,-3.1009,-3.0884,-3.116,-3.0168,-3.008,-3.0432,-2.9955,-2.9792,-2.9792,-2.9792,-2.9792,-2.9792,-2.9792,-2.9792,-2.9792,-2.9792,-2.9792,-2.9792,-2.9792,-2.9365,-2.8737,-2.8134,-2.7971,-2.7959,-2.7871,-2.7846,-2.7846,-2.7846,-2.7846,-2.7846,-2.7846,-2.7921,-2.816,-2.8675,-2.8762,-2.8787,-2.8888,0.0,-2.6635,-2.6105,-2.544,-2.4952,-2.4791,-2.4917,-2.4952,-2.4791,-2.4354,-2.4418,-2.5194,-2.5229,-2.5616,-2.6452,-2.6499,-2.6499,-2.6499,-2.6499,-2.6499,-2.6499,-2.6499,-2.6499,-2.6499,-2.6499,-2.6499,-2.6499,-2.6499,-2.6499,-2.6499,-2.6499,-2.6499,-2.6499,-2.6499,-2.6499,-2.6499,-2.6499,-2.524,-2.3514,-3.7057,-3.7196,-3.7196,-3.7196,-3.7196,-3.7196,-3.7196,-3.6756,-3.6803,-3.7874,-3.8075,-3.8501,-3.9596,-3.9481,-3.911,-3.8545,-3.8615,-3.8543,-3.8198,-3.8423,-3.8308,-3.7829,-3.7266,-3.6462,-3.54,-3.4938,-3.4428,-3.3839,-3.3356,-3.3124,-3.3124,-3.3124,-3.3124,-3.3124,-3.3124,-3.3124,-3.3056,-3.2792,-3.2679,-3.2604,-3.18,-3.1625,-3.1712,-3.0645,-3.0394,-3.0545,-2.9993,-2.9792,-2.9792,-2.9792,-2.9792,-2.9792,-2.9792,-2.9792,-2.9792,-2.9792,-2.9792,-2.9792,-2.9792,-2.9591,-2.9264,-2.865,-2.8512,-2.8473,-2.8172,-2.8109,-2.8109,-2.8109,-2.8109,-2.8109,-2.8109,-2.8348,-2.8599,-2.885,-2.8888,0.0,0.0,-2.678,-2.576,-2.4682,-2.4422,-2.4191,-2.3884,-2.4134,-2.4179,-2.3873,-2.3649,-2.3697,-2.4156,-2.4719,-2.5229,-2.5699,-2.6211,-2.6499,-2.6499,-2.6499,-2.6499,-2.6499,-2.6499,-2.6499,-2.6499,-2.6499,-2.6499,-2.6499,-2.6499,-2.6499,-2.6499,-2.6499,-2.6499,-2.6499,-2.6499,-2.6499,-2.6499,-2.6499,-2.5385,-2.388,-3.6405,-3.6405,-3.6405,-3.6405,-3.6405,-3.6405,-3.6405,-3.6405,-3.6499,-3.6756,-3.7322,-3.7802,-3.8062,-3.8234,-3.8249,-3.8114,-3.7853,-3.7506,-3.6948,-3.7111,-3.7229,-3.7088,-3.6067,-3.5116,-3.4345,-3.4304,-3.3911,-3.3124,-3.3124,-3.3124,-3.3124,-3.3124,-3.3124,-3.3124,-3.3124,-3.3124,-3.3124,-3.3124,-3.3124,-3.3074,-3.2441,-3.229,-3.229,-3.121,-3.0871,-3.0909,-3.0218,-2.998,-2.9967,-2.9829,-2.9792,-2.9792,-2.9792,-2.9792,-2.9792,-2.9792,-2.9792,-2.9792,-2.9792,-2.9792,-2.9691,-2.9239,-2.9126,-2.8976,-2.8599,-2.83,-2.8089,-2.8089,-2.8089,-2.8089,-2.8089,-2.8637,-2.9126,-2.9126,0.0,0.0,0.0,-2.5904,-2.4794,-2.3479,-2.3393,-2.3291,-2.2857,-2.3188,-2.3356,-2.318,-2.3147,-2.3257,-2.3478,-2.4445,-2.5123,-2.5335,-2.6094,-2.6499,-2.6499,-2.6499,-2.6499,-2.6499,-2.6499,-2.6499,-2.6499,-2.6499,-2.6499,-2.6499,-2.6499,-2.6499,-2.6499,-2.6499,-2.6499,-2.6499,-2.6499,-2.6499,-2.6512,-2.6637,-2.5792,-2.454,-3.6405,-3.6405,-3.6405,-3.6405,-3.6405,-3.6405,-3.6405,-3.6405,-3.6803,-3.7848,-3.715,-3.693,-3.7984,-3.7204,-3.6362,-3.5797,-3.6612,-3.6933,-3.6396,-3.5955,-3.5468,-3.4965,-3.3911,-3.327,-3.324,-3.324,-3.3197,-3.3124,-3.3124,-3.3124,-3.3124,-3.3124,-3.3124,-3.3124,-3.3124,-3.3124,-3.3124,-3.3124,-3.3124,-3.3074,-3.2441,-3.2528,-3.2893,-3.1763,-3.165,-3.1964,-3.0922,-3.0557,-3.0482,-2.9967,-2.9792,-2.9792,-2.9792,-2.9792,-2.9792,-2.9792,-2.9792,-2.9792,-2.9792,-2.9792,-2.9779,-2.9741,-2.9729,-2.9716,-2.9679,-2.8866,-2.8096,-2.8096,-2.8096,-2.8096,-2.8096,-2.902,-2.9729,-2.9729,0.0,0.0,-2.7323,-2.5189,-2.343,-2.2847,-2.1659,-2.0867,-2.0828,-2.0858,-2.1233,-2.2038,-2.2103,-2.2515,-2.3441,-2.4445,-2.5441,-2.6349,-2.6452,-2.6499,-2.6499,-2.6499,-2.6499,-2.6499,-2.6499,-2.6499,-2.6499,-2.6499,-2.6499,-2.6499,-2.6499,-2.6499,-2.6499,-2.6499,-2.6499,-2.6499,-2.6499,-2.6499,-2.6562,-2.7065,-2.6587,-2.5617,-3.6405,-3.6405,-3.6405,-3.6405,-3.6405,-3.6405,-3.6405,-3.6405,-3.6534,-3.6977,-3.6675,-3.6534,-3.7023,-3.6675,-3.6329,-3.6069,-3.6451,-3.6414,-3.5865,-3.5302,-3.463,-3.3751,-3.3313,-3.3124,-3.3124,-3.3124,-3.3124,-3.3124,-3.3124,-3.3124,-3.3124,-3.3124,-3.3124,-3.3124,-3.3124,-3.3124,-3.3124,-3.3124,-3.3124,-3.3056,-3.283,-3.288,-3.2993,-3.2202,-3.2026,-3.2077,-3.1009,-3.062,-3.0532,-2.998,-2.9792,-2.9792,-2.9792,-2.9792,-2.9792,-2.9792,-2.9792,-2.9792,-2.9792,-2.9792,-2.9792,-2.9792,-2.9792,-2.9624,-2.8897,-2.8426,-2.7924,-2.7238,-2.7128,-2.7128,-2.7128,-2.7464,-2.7758,-2.7758,0.0,-2.6701,-2.5547,-2.4519,-2.3419,-2.1959,-2.1313,-2.0869,-2.0635,-2.0605,-2.075,-2.1116,-2.1116,-2.1308,-2.1669,-2.2627,-2.4169,-2.6418,-2.5873,-2.5873,-2.6487,-2.6499,-2.6499,-2.6499,-2.6499,-2.6499,-2.6499,-2.6499,-2.6499,-2.6499,-2.6499,-2.6499,-2.6465,-2.5838,-2.5955,-2.643,-2.5804,-2.6153,-2.7027,-2.7205,-2.7054,-2.6588,-3.6405,-3.6405,-3.6405,-3.6405,-3.6405,-3.6405,-3.6405,-3.6405,-3.6405,-3.6405,-3.6405,-3.6405,-3.6405,-3.6405,-3.6405,-3.6405,-3.6405,-3.6194,-3.583,-3.5082,-3.4223,-3.3174,-3.3124,-3.3124,-3.3124,-3.3124,-3.3124,-3.3124,-3.3124,-3.3124,-3.3124,-3.3124,-3.3124,-3.3124,-3.3124,-3.3124,-3.3124,-3.3124,-3.3124,-3.3124,-3.3124,-3.3124,-3.3031,-3.2641,-3.2478,-3.2365,-3.1449,-3.1009,-3.0771,-3.0231,-2.993,-2.9792,-2.9792,-2.9792,-2.9792,-2.9792,-2.9792,-2.9792,-2.9792,-2.9792,-2.9792,-2.9792,-2.9792,-2.9495,-2.8347,-2.7855,-2.7279,-2.6171,-2.5975,-2.5975,-2.5975,-2.6265,-2.6524,-2.6524,-2.6182,-2.5605,-2.4534,-2.3846,-2.2971,-2.1585,-2.1191,-2.0908,-2.0635,-2.0605,-2.0712,-2.1011,-2.1049,-2.1193,-2.1489,-2.1811,-2.3099,-2.5499,-2.5194,-2.5335,-2.6025,-2.6349,-2.6499,-2.6499,-2.6499,-2.6499,-2.6499,-2.6499,-2.6499,-2.6499,-2.6499,-2.6499,-2.6418,-2.5406,-2.5406,-2.5955,-2.5264,-2.5767,-2.6876,-2.7362,-2.7422,-2.7179,-3.6405,-3.6405,-3.6405,-3.6405,-3.6405,-3.6405,-3.6405,-3.6405,-3.6405,-3.6405,-3.6405,-3.6405,-3.6405,-3.6405,-3.6405,-3.6405,-3.6405,-3.6405,-3.6405,-3.5328,-3.4223,-3.3174,-3.3124,-3.3124,-3.3124,-3.3124,-3.3124,-3.3124,-3.3124,-3.3124,-3.3124,-3.3124,-3.3124,-3.3124,-3.3124,-3.3124,-3.3124,-3.3124,-3.3124,-3.3124,-3.3124,-3.3124,-3.3124,-3.3124,-3.3124,-3.3006,-3.2416,-3.1863,-3.1311,-3.0796,-3.0256,-2.9804,-2.9792,-2.9792,-2.9792,-2.9792,-2.9792,-2.9792,-2.9792,-2.9792,-2.9792,-2.9792,-2.9792,-2.9495,-2.8347,-2.725,-2.6182,-2.4999,-2.4787,-2.4787,-2.4787,-2.5714,-2.6483,-2.6483,-2.5504,-2.4787,-2.4787,-2.314,-2.1894,-2.1885,-2.1143,-2.0605,-2.0605,-2.0605,-2.1011,-2.1924,-2.1989,-2.244,-2.3452,-2.2553,-2.244,-2.3478,-2.448,-2.4981,-2.5004,-2.599,-2.6499,-2.6499,-2.6499,-2.6499,-2.6499,-2.6499,-2.6499,-2.6499,-2.6499,-2.6499,-2.6418,-2.5406,-2.4981,-2.5016,-2.4981,-2.5313,-2.6008,-2.7519,-2.779,-2.7238,-3.6405,-3.6405,-3.6405,-3.6405,-3.6405,-3.6405,-3.6405,-3.6405,-3.6405,-3.6405,-3.6405,-3.6405,-3.6405,-3.6405,-3.6405,-3.6405,-3.6405,-3.6078,-3.5265,-3.4901,-3.4223,-3.3174,-3.3124,-3.3124,-3.3124,-3.3124,-3.3124,-3.3124,-3.3124,-3.3124,-3.3124,-3.3124,-3.3124,-3.3124,-3.3124,-3.3124,-3.3124,-3.3124,-3.3124,-3.3124,-3.3124,-3.3124,-3.3124,-3.3124,-3.3124,-3.3006,-3.2416,-3.2102,-3.1825,-3.0922,-3.0507,-3.0306,-2.9917,-2.9792,-2.9792,-2.9792,-2.9792,-2.9792,-2.9792,-2.9236,-2.8806,-2.9585,-2.9792,-2.9287,-2.7424,-2.6719,-2.5933,-2.4006,-2.3594,-2.3594,-2.3594,-2.3887,-2.4092,-2.4092,-2.3844,-2.3594,-2.3594,-2.287,-2.2217,-2.1924,-2.1387,-2.0908,-2.0635,-2.0605,-2.0712,-2.1011,-2.1011,-2.1745,-2.3404,-2.1935,-2.2113,-2.4492,-2.4156,-2.4301,-2.5004,-2.599,-2.6499,-2.6499,-2.6499,-2.6499,-2.6499,-2.6499,-2.6499,-2.6499,-2.6499,-2.6499,-2.6383,-2.466,-2.4545,-2.5284,-2.3928,-2.4812,-2.6897,-2.7382,-2.8189,-2.8819,-3.6405,-3.6405,-3.6405,-3.6405,-3.6405,-3.6405,-3.6405,-3.6405,-3.6405,-3.6405,-3.6405,-3.6405,-3.6405,-3.6405,-3.6405,-3.6405,-3.6405,-3.5994,-3.5056,-3.5006,-3.4605,-3.3771,-3.3721,-3.352,-3.3124,-3.3294,-3.3294,-3.3124,-3.3294,-3.3294,-3.3124,-3.3124,-3.3124,-3.3124,-3.3124,-3.3124,-3.3124,-3.3124,-3.3124,-3.3124,-3.3124,-3.3124,-3.3124,-3.3124,-3.3124,-3.3031,-3.2679,-3.2403,-3.2114,-3.1461,-3.0972,-3.052,-2.9967,-2.9792,-2.9792,-2.9792,-2.9792,-2.9702,-2.9236,-2.8636,-2.8176,-2.841,-2.8502,-2.8051,-2.6224,-2.585,-2.5305,-2.3474,-2.3091,-2.3091,-2.3091,-2.3091,-2.3091,-2.3091,-2.3091,-2.3091,-2.3091,-2.274,-2.2353,-2.1934,-2.1504,-2.1055,-2.0644,-2.0605,-2.0605,-2.0605,-2.0934,-2.1489,-2.2301,-2.1973,-2.2188,-2.3231,-2.3415,-2.3588,-2.3818,-2.4803,-2.5721,-2.6499,-2.6499,-2.6499,-2.6499,-2.6499,-2.6499,-2.6499,-2.6725,-2.67,-2.6421,-2.5203,-2.5084,-2.5545,-2.4161,-2.5132,-2.7362,-2.7311,-2.8059,-2.8949,-3.6405,-3.6405,-3.6405,-3.6405,-3.6405,-3.6405,-3.6405,-3.6405,-3.6405,-3.6405,-3.6405,-3.6405,-3.6405,-3.6405,-3.6405,-3.6405,-3.6405,-3.6119,-3.5533,-3.5495,-3.5257,-3.4705,-3.468,-3.4248,-3.3244,-3.3721,-3.3709,-3.3156,-3.3658,-3.3621,-3.3124,-3.3124,-3.3124,-3.3124,-3.3124,-3.3124,-3.3124,-3.3124,-3.3124,-3.3124,-3.3124,-3.3124,-3.3124,-3.3124,-3.3124,-3.3124,-3.3124,-3.2742,-3.2277,-3.2227,-3.1537,-3.0595,-3.0093,-2.9905,-2.9867,-2.9867,-2.979,-2.9404,-2.8386,-2.7964,-2.7562,-2.6595,-2.6265,-2.5933,-2.4999,-2.4787,-2.4457,-2.3343,-2.3091,-2.3091,-2.3091,-2.3091,-2.3091,-2.3091,-2.3091,-2.3091,-2.3091,-2.274,-2.2353,-2.1934,-2.1504,-2.1055,-2.0644,-2.0605,-2.0605,-2.0605,-2.1479,-2.1669,-2.0895,-2.2451,-2.2601,-2.0895,-2.2489,-2.2925,-2.2027,-2.3043,-2.4443,-2.6233,-2.6233,-2.628,-2.6383,-2.6383,-2.6455,-2.66,-2.7102,-2.7065,-2.6643,-2.6516,-2.619,-2.5698,-2.5036,-2.5796,-2.7277,-2.7226,-2.7601,-2.8096,-3.6405,-3.6405,-3.6405,-3.6405,-3.6405,-3.6405,-3.6405,-3.6405,-3.6405,-3.6405,-3.6405,-3.6405,-3.6405,-3.6405,-3.6405,-3.6405,-3.6405,-3.6119,-3.5533,-3.5495,-3.5257,-3.4705,-3.468,-3.4613,-3.4374,-3.4487,-3.4274,-3.3721,-3.3847,-3.3621,-3.3124,-3.3124,-3.3124,-3.3124,-3.3124,-3.3124,-3.3124,-3.3124,-3.3124,-3.3124,-3.3124,-3.3124,-3.3124,-3.3124,-3.3124,-3.3124,-3.3124,-3.3006,-3.2817,-3.2365,-3.1775,-3.1198,-3.1085,-3.0758,-3.0432,-3.0432,-2.949,-2.8426,-2.8176,-2.6849,-2.5452,-2.521,-2.451,-2.4016,-2.467,-2.4787,-2.4457,-2.3343,-2.3091,-2.3091,-2.3091,-2.3091,-2.3091,-2.3091,-2.3091,-2.3091,-2.3091,-2.274,-2.2353,-2.1934,-2.1504,-2.1055,-2.0644,-2.0605,-2.0605,-2.0605,-2.1479,-2.2253,-2.285,-2.2515,-2.2478,-2.285,-2.2515,-2.2215,-2.1989,-2.3382,-2.4092,-2.4145,-2.4145,-2.4552,-2.5335,-2.5335,-2.6001,-2.714,-2.7231,-2.7457,-2.7613,-2.6028,-2.5462,-2.5475,-2.3732,-2.4002,-2.5509,-2.6345,-2.7267,-2.7964,-3.6405,-3.6405,-3.6405,-3.6405,-3.6405,-3.6405,-3.6405,-3.6405,-3.6405,-3.6405,-3.6405,-3.6405,-3.6405,-3.6405,-3.6405,-3.6405,-3.6405,-3.6292,-3.5956,-3.5931,-3.5805,-3.5516,-3.5504,-3.5504,-3.5504,-3.5504,-3.5115,-3.4299,-3.4299,-3.401,-3.347,-3.3206,-3.3124,-3.3124,-3.3124,-3.3124,-3.3124,-3.3124,-3.3124,-3.3124,-3.3124,-3.3124,-3.3124,-3.3124,-3.3124,-3.3124,-3.3124,-3.3124,-3.2993,-3.2403,-3.2026,-3.1687,-3.1185,-3.0834,-3.057,-3.0306,-2.9588,-2.8806,-2.8255,-2.7267,-2.6108,-2.5073,-2.4339,-2.392,-2.3963,-2.4006,-2.3844,-2.3222,-2.3091,-2.3091,-2.3091,-2.3091,-2.3091,-2.3091,-2.3091,-2.3091,-2.3091,-2.2906,-2.2578,-2.1963,-2.1865,-2.1551,-2.0947,-2.0693,-2.0605,-2.0605,-2.1479,-2.2038,-2.2124,-2.2478,-2.2622,-2.2422,-2.2373,-2.2105,-2.1632,-2.2621,-2.2856,-2.2422,-2.3398,-2.3971,-2.4276,-2.4519,-2.5322,-2.6577,-2.6512,-2.71,-2.7988,-2.6375,-2.599,-2.6211,-2.4315,-2.4429,-2.563,-2.5672,-2.6696,-2.7936,-3.6405,-3.6405,-3.6405,-3.6405,-3.6405,-3.6405,-3.6405,-3.6405,-3.6405,-3.6405,-3.6405,-3.6405,-3.6405,-3.6405,-3.6405,-3.6405,-3.6405,-3.6405,-3.6405,-3.6405,-3.6405,-3.6405,-3.6405,-3.6405,-3.6405,-3.6405,-3.5868,-3.4818,-3.4718,-3.4449,-3.3884,-3.3332,-3.3124,-3.3124,-3.3124,-3.3124,-3.3124,-3.3124,-3.3124,-3.3124,-3.3124,-3.3124,-3.3124,-3.3124,-3.3124,-3.3124,-3.3124,-3.3124,-3.3006,-3.2516,-3.2353,-3.2202,-3.1323,-3.0972,-3.0783,-3.0231,-2.9875,-2.9359,-2.8171,-2.7683,-2.7105,-2.5241,-2.466,-2.4286,-2.3551,-2.3266,-2.3091,-2.3091,-2.3091,-2.3091,-2.3091,-2.3091,-2.3091,-2.3091,-2.3091,-2.3091,-2.3091,-2.3091,-2.2808,-2.209,-2.2236,-2.2129,-2.1375,-2.0947,-2.0684,-2.0684,-2.1492,-2.1659,-2.0895,-2.2451,-2.2788,-2.1491,-2.2167,-2.2178,-2.1348,-2.1777,-2.185,-2.161,-2.3175,-2.376,-2.3486,-2.4084,-2.485,-2.5753,-2.5667,-2.6449,-2.7753,-2.6662,-2.647,-2.6718,-2.5134,-2.5094,-2.5808,-2.5083,-2.5942,-2.7389,-3.6405,-3.6405,-3.6405,-3.6405,-3.6405,-3.6405,-3.6405,-3.6405,-3.6405,-3.6405,-3.6405,-3.6405,-3.6405,-3.6405,-3.6405,-3.6405,-3.6405,-3.6405,-3.6405,-3.6405,-3.6405,-3.6405,-3.6405,-3.6405,-3.6405,-3.6405,-3.6056,-3.5382,-3.4906,-3.4449,-3.3884,-3.3332,-3.3124,-3.3124,-3.3124,-3.3124,-3.3124,-3.3124,-3.3124,-3.3124,-3.3124,-3.3124,-3.3124,-3.3124,-3.3124,-3.3124,-3.3124,-3.3124,-3.3111,-3.2993,-3.2998,-3.293,-3.2792,-3.2403,-3.1888,-3.1336,-3.0151,-2.8666,-2.712,-2.6005,-2.5157,-2.4872,-2.4049,-2.3551,-2.4382,-2.38,-2.3091,-2.3091,-2.3091,-2.3091,-2.3091,-2.3091,-2.3091,-2.3091,-2.3091,-2.3091,-2.3091,-2.3091,-2.2916,-2.248,-2.2158,-2.1924,-2.1807,-2.1406,-2.1103,-2.1103,-2.1675,-2.1952,-2.1811,-2.2454,-2.2706,-2.2507,-2.2171,-2.1952,-2.1797,-2.2217,-2.2689,-2.3179,-2.2867,-2.294,-2.3372,-2.4392,-2.5155,-2.5639,-2.5614,-2.6004,-2.6619,-2.5492,-2.5083,-2.503,-2.3813,-2.343,-2.3637,-2.45,-2.4999,-2.5241,-3.6405,-3.6405,-3.6405,-3.6405,-3.6405,-3.6405,-3.6405,-3.6405,-3.6405,-3.6405,-3.6405,-3.6405,-3.6405,-3.6405,-3.6405,-3.6405,-3.6405,-3.6405,-3.6405,-3.6405,-3.6405,-3.6405,-3.6405,-3.6405,-3.6405,-3.6405,-3.6292,-3.5994,-3.514,-3.46,-3.4349,-3.3483,-3.3124,-3.3124,-3.3124,-3.3124,-3.3124,-3.3124,-3.3124,-3.3124,-3.3124,-3.3124,-3.3124,-3.3124,-3.3124,-3.3124,-3.3124,-3.3124,-3.3124,-3.3124,-3.3124,-3.3061,-3.2692,-3.2416,-3.2102,-3.1549,-3.0661,-2.9695,-2.8967,-2.8224,-2.7452,-2.6808,-2.5786,-2.4967,-2.483,-2.392,-2.3091,-2.3091,-2.3091,-2.3091,-2.3091,-2.3091,-2.3091,-2.3091,-2.3091,-2.3091,-2.3091,-2.3091,-2.3023,-2.2838,-2.2285,-2.1982,-2.2207,-2.1846,-2.1592,-2.1592,-2.1799,-2.1949,-2.1949,-2.214,-2.2362,-2.2604,-2.2369,-2.2236,-2.2236,-2.2613,-2.285,-2.2948,-2.4169,-2.462,-2.4338,-2.3817,-2.4365,-2.5663,-2.4628,-2.507,-2.6348,-2.4595,-2.4211,-2.4702,-2.3551,-2.3091,-2.3266,-2.4382,-2.4787,-2.4787]},{"header":{"parameterUnit":"m.s-1","parameterCategory":1,"la1":30.6,"la2":28.766,"lo1":-90.7593,"lo2":-88.6598,"dy":0.0162,"dx":0.0183,"nx":116,"ny":114,"refTime":"2024-05-22T06:00:00:Z","depth":0,"parameterNumber":3,"parameterNumberName":"V-component_of_WINDS"},"data":[0.0,0.0,0.0,0.0,0.0,0.0,0.0,0.0,0.0,0.0,0.0,0.0,0.0,0.0,0.0,0.0,0.0,0.0,0.0,0.0,0.0,0.0,0.0,0.0,0.0,0.0,0.0,0.0,0.0,0.0,0.0,0.0,0.0,0.0,0.0,0.0,0.0,0.0,0.0,0.0,0.0,0.0,0.0,0.0,0.0,0.0,0.0,0.0,0.0,0.0,0.0,0.0,0.0,0.0,0.0,0.0,0.0,0.0,0.0,0.0,0.0,0.0,0.0,0.0,0.0,0.0,0.0,0.0,0.0,0.0,0.0,0.0,0.0,0.0,0.0,0.0,0.0,0.0,0.0,0.0,0.0,0.0,0.0,0.0,0.0,0.0,0.0,0.0,0.0,0.0,0.0,0.0,0.0,0.0,0.0,0.0,0.0,0.0,0.0,0.0,0.0,0.0,0.0,0.0,0.0,0.0,0.0,0.0,0.0,0.0,0.0,0.0,0.0,0.0,0.0,0.0,0.0,0.0,0.0,0.0,0.0,0.0,0.0,0.0,0.0,0.0,0.0,0.0,0.0,0.0,0.0,0.0,0.0,0.0,0.0,0.0,0.0,0.0,0.0,0.0,0.0,0.0,0.0,0.0,0.0,0.0,0.0,0.0,0.0,0.0,0.0,0.0,0.0,0.0,0.0,0.0,0.0,0.0,0.0,0.0,0.0,0.0,0.0,0.0,0.0,0.0,0.0,0.0,0.0,0.0,0.0,0.0,0.0,0.0,0.0,0.0,0.0,0.0,0.0,0.0,0.0,0.0,0.0,0.0,0.0,0.0,0.0,0.0,0.0,0.0,0.0,0.0,0.0,0.0,0.0,0.0,0.0,0.0,0.0,0.0,0.0,0.0,0.0,0.0,0.0,0.0,0.0,0.0,0.0,0.0,0.0,0.0,0.0,0.0,0.0,0.0,0.0,0.0,0.0,0.0,0.0,0.0,0.0,0.0,0.0,0.0,0.0,0.0,0.0,0.0,0.0,0.0,0.0,0.0,0.0,0.0,0.0,0.0,0.0,0.0,0.0,0.0,0.0,0.0,0.0,0.0,0.0,0.0,0.0,0.0,0.0,0.0,0.0,0.0,0.0,0.0,0.0,0.0,0.0,0.0,0.0,0.0,0.0,0.0,0.0,0.0,0.0,0.0,0.0,0.0,0.0,0.0,0.0,0.0,0.0,0.0,0.0,0.0,0.0,0.0,0.0,0.0,0.0,0.0,0.0,0.0,0.0,0.0,0.0,0.0,0.0,0.0,0.0,0.0,0.0,0.0,0.0,0.0,0.0,0.0,0.0,0.0,0.0,0.0,0.0,0.0,0.0,0.0,0.0,0.0,0.0,0.0,0.0,0.0,0.0,0.0,0.0,0.0,0.0,0.0,0.0,0.0,0.0,0.0,0.0,0.0,0.0,0.0,0.0,0.0,0.0,0.0,0.0,0.0,0.0,0.0,0.0,0.0,0.0,0.0,0.0,0.0,0.0,0.0,0.0,0.0,0.0,0.0,0.0,0.0,0.0,0.0,0.0,0.0,0.0,0.0,0.0,0.0,0.0,0.0,0.0,0.0,0.0,0.0,0.0,0.0,0.0,0.0,0.0,0.0,0.0,0.0,0.0,0.0,0.0,0.0,0.0,0.0,0.0,0.0,0.0,0.0,0.0,0.0,0.0,0.0,0.0,0.0,0.0,0.0,0.0,0.0,0.0,0.0,0.0,0.0,0.0,0.0,0.0,0.0,0.0,0.0,0.0,0.0,0.0,0.0,0.0,0.0,0.0,0.0,0.0,0.0,0.0,0.0,0.0,0.0,0.0,0.0,0.0,0.0,0.0,0.0,0.0,0.0,0.0,0.0,0.0,0.0,0.0,0.0,0.0,0.0,0.0,0.0,0.0,0.0,0.0,0.0,0.0,0.0,0.0,0.0,0.0,0.0,0.0,0.0,0.0,0.0,0.0,0.0,0.0,0.0,0.0,0.0,0.0,0.0,0.0,0.0,0.0,0.0,0.0,0.0,0.0,0.0,0.0,0.0,0.0,0.0,0.0,0.0,0.0,0.0,0.0,0.0,0.0,0.0,0.0,0.0,0.0,0.0,0.0,0.0,0.0,0.0,0.0,0.0,0.0,0.0,0.0,0.0,0.0,0.0,0.0,0.0,0.0,0.0,0.0,0.0,0.0,0.0,0.0,0.0,0.0,0.0,0.0,0.0,0.0,0.0,0.0,0.0,0.0,0.0,0.0,0.0,0.0,0.0,0.0,0.0,0.0,0.0,0.0,0.0,0.0,0.0,0.0,0.0,0.0,0.0,0.0,0.0,0.0,0.0,0.0,0.0,0.0,0.0,0.0,0.0,0.0,0.0,0.0,0.0,0.0,0.0,0.0,0.0,0.0,0.0,0.0,0.0,0.0,0.0,0.0,0.0,0.0,0.0,0.0,0.0,0.0,0.0,0.0,0.0,0.0,0.0,0.0,0.0,0.0,0.0,0.0,0.0,0.0,0.0,0.0,0.0,0.0,0.0,0.0,0.0,0.0,0.0,0.0,0.0,0.0,0.0,0.0,0.0,0.0,0.0,0.0,0.0,0.0,0.0,0.0,0.0,0.0,0.0,0.0,0.0,0.0,0.0,0.0,0.0,0.0,0.0,0.0,0.0,0.0,0.0,0.0,0.0,0.0,0.0,0.0,0.0,0.0,0.0,0.0,0.0,0.0,0.0,0.0,0.0,0.0,0.0,0.0,0.0,0.0,0.0,0.0,0.0,0.0,0.0,0.0,0.0,0.0,0.0,0.0,0.0,0.0,0.0,0.0,0.0,0.0,0.0,0.0,0.0,0.0,0.0,0.0,0.0,0.0,0.0,0.0,0.0,0.0,0.0,0.0,0.0,0.0,0.0,0.0,0.0,0.0,0.0,0.0,0.0,0.0,0.0,0.0,0.0,0.0,0.0,0.0,0.0,0.0,0.0,0.0,0.0,0.0,0.0,0.0,0.0,0.0,0.0,0.0,0.0,0.0,0.0,0.0,0.0,0.0,0.0,0.0,0.0,0.0,0.0,0.0,0.0,0.0,0.0,0.0,0.0,0.0,0.0,0.0,0.0,0.0,0.0,0.0,0.0,0.0,0.0,0.0,0.0,0.0,0.0,0.0,0.0,0.0,0.0,0.0,0.0,0.0,0.0,0.0,0.0,0.0,0.0,0.0,0.0,0.0,0.0,0.0,0.0,0.0,0.0,0.0,0.0,0.0,0.0,0.0,0.0,0.0,0.0,0.0,0.0,0.0,0.0,0.0,0.0,0.0,0.0,0.0,0.0,0.0,0.0,0.0,0.0,0.0,0.0,0.0,0.0,0.0,0.0,0.0,0.0,0.0,0.0,0.0,0.0,0.0,0.0,0.0,0.0,0.0,0.0,0.0,0.0,0.0,0.0,0.0,0.0,0.0,0.0,0.0,0.0,0.0,0.0,0.0,0.0,0.0,0.0,0.0,0.0,0.0,0.0,0.0,0.0,0.0,0.0,0.0,0.0,0.0,0.0,0.0,0.0,0.0,0.0,0.0,0.0,0.0,0.0,0.0,0.0,0.0,0.0,0.0,0.0,0.0,0.0,0.0,0.0,0.0,0.0,0.0,0.0,0.0,0.0,0.0,0.0,0.0,0.0,0.0,0.0,0.0,0.0,0.0,0.0,0.0,0.0,0.0,0.0,0.0,0.0,0.0,0.0,0.0,0.0,0.0,0.0,0.0,0.0,0.0,0.0,0.0,0.0,0.0,0.0,0.0,0.0,0.0,0.0,0.0,0.0,0.0,0.0,0.0,0.0,0.0,0.0,0.0,0.0,0.0,0.0,0.0,0.0,0.0,0.0,0.0,0.0,0.0,0.0,0.0,0.0,0.0,0.0,0.0,0.0,0.0,0.0,0.0,0.0,0.0,0.0,0.0,0.0,0.0,0.0,0.0,0.0,0.0,0.0,0.0,0.0,0.0,0.0,0.0,0.0,0.0,0.0,0.0,0.0,0.0,0.0,0.0,0.0,0.0,0.0,0.0,0.0,0.0,0.0,0.0,0.0,0.0,0.0,0.0,0.0,0.0,0.0,0.0,0.0,0.0,0.0,0.0,0.0,0.0,0.0,0.0,0.0,0.0,0.0,0.0,0.0,0.0,0.0,0.0,0.0,0.0,0.0,0.0,0.0,0.0,0.0,0.0,0.0,0.0,0.0,0.0,0.0,0.0,0.0,0.0,0.0,0.0,0.0,0.0,0.0,0.0,0.0,0.0,0.0,0.0,0.0,0.0,0.0,0.0,0.0,0.0,0.0,0.0,0.0,0.0,0.0,0.0,0.0,0.0,0.0,0.0,0.0,0.0,0.0,0.0,0.0,0.0,0.0,0.0,0.0,0.0,0.0,0.0,0.0,0.0,0.0,0.0,0.0,0.0,0.0,0.0,0.0,0.0,0.0,0.0,0.0,0.0,0.0,0.0,0.0,0.0,0.0,0.0,0.0,0.0,0.0,0.0,0.0,0.0,0.0,0.0,0.0,0.0,0.0,0.0,0.0,0.0,0.0,0.0,0.0,0.0,0.0,0.0,0.0,0.0,0.0,0.0,0.0,0.0,0.0,0.0,0.0,0.0,0.0,0.0,0.0,0.0,0.0,0.0,0.0,0.0,0.0,0.0,0.0,0.0,0.0,0.0,0.0,0.0,0.0,0.0,0.0,0.0,0.0,0.0,0.0,0.0,0.0,0.0,0.0,0.0,0.0,0.0,0.0,0.0,0.0,0.0,0.0,0.0,0.0,0.0,0.0,0.0,0.0,0.0,0.0,0.0,0.0,0.0,0.0,0.0,0.0,0.0,0.0,0.0,0.0,0.0,0.0,0.0,0.0,0.0,0.0,0.0,0.0,0.0,0.0,0.0,0.0,0.0,0.0,0.0,0.0,0.0,0.0,0.0,0.0,0.0,0.0,0.0,0.0,0.0,0.0,0.0,0.0,0.0,0.0,0.0,0.0,0.0,0.0,0.0,0.0,0.0,0.0,0.0,0.0,0.0,0.0,0.0,0.0,0.0,0.0,0.0,0.0,0.0,0.0,0.0,0.0,0.0,0.0,0.0,0.0,0.0,0.0,0.0,0.0,0.0,0.0,0.0,0.0,0.0,0.0,0.0,0.0,0.0,0.0,0.0,0.0,0.0,0.0,0.0,0.0,0.0,0.0,0.0,0.0,0.0,0.0,0.0,0.0,0.0,0.0,0.0,0.0,0.0,0.0,0.0,0.0,0.0,0.0,0.0,0.0,0.0,0.0,0.0,0.0,0.0,0.0,0.0,0.0,0.0,0.0,0.0,0.0,0.0,0.0,0.0,0.0,0.0,0.0,0.0,0.0,0.0,0.0,0.0,0.0,0.0,0.0,0.0,0.0,0.0,0.0,0.0,0.0,0.0,0.0,0.0,0.0,0.0,0.0,0.0,0.0,0.0,0.0,0.0,0.0,0.0,0.0,0.0,0.0,0.0,0.0,0.0,0.0,0.0,0.0,0.0,0.0,0.0,0.0,0.0,0.0,0.0,0.0,0.0,0.0,0.0,0.0,0.0,0.0,0.0,0.0,0.0,0.0,0.0,0.0,0.0,0.0,0.0,0.0,0.0,0.0,0.0,0.0,0.0,0.0,0.0,0.0,0.0,0.0,0.0,0.0,0.0,0.0,0.0,0.0,0.0,0.0,0.0,0.0,0.0,0.0,0.0,0.0,0.0,0.0,0.0,0.0,0.0,0.0,0.0,0.0,0.0,0.0,0.0,0.0,0.0,0.0,0.0,0.0,0.0,0.0,0.0,0.0,0.0,0.0,0.0,0.0,0.0,0.0,0.0,0.0,0.0,0.0,0.0,0.0,0.0,0.0,0.0,0.0,0.0,0.0,0.0,0.0,0.0,0.0,0.0,0.0,0.0,0.0,0.0,0.0,0.0,0.0,0.0,0.0,0.0,0.0,0.0,0.0,0.0,0.0,0.0,0.0,0.0,0.0,0.0,0.0,0.0,0.0,0.0,0.0,0.0,0.0,0.0,0.0,0.0,0.0,0.0,0.0,0.0,0.0,1.7282,0.0,0.0,0.0,0.0,0.0,0.0,0.0,0.0,0.0,0.0,0.0,0.0,0.0,0.0,0.0,0.0,0.0,0.0,0.0,0.0,0.0,0.0,0.0,0.0,2.2301,2.2784,2.4575,2.417,2.432,2.5546,0.0,0.0,0.0,0.0,0.0,2.8372,2.7948,2.8039,2.8774,2.8245,2.7981,2.7932,2.5988,2.399,2.2029,0.0,0.0,0.0,0.0,0.0,0.0,0.0,0.0,0.0,0.0,0.0,0.0,0.0,0.0,0.0,0.0,0.0,0.0,0.0,0.0,0.0,0.0,0.0,0.0,0.0,0.0,0.0,0.0,0.0,0.0,0.0,0.0,0.0,0.0,0.0,0.0,0.0,0.0,0.0,0.0,0.0,0.0,0.0,0.0,0.0,0.0,0.0,0.0,0.0,0.0,0.0,0.0,0.0,0.0,0.0,0.0,0.0,0.0,0.0,0.0,0.0,0.0,0.0,0.0,0.0,0.0,0.0,0.0,0.0,0.0,0.0,1.7863,0.0,0.0,0.0,0.0,0.0,0.0,0.0,0.0,0.0,0.0,0.0,0.0,0.0,0.0,0.0,0.0,0.0,0.0,0.0,0.0,0.0,2.1872,2.3984,2.3926,2.4519,2.6352,2.6524,2.6595,2.676,2.676,0.0,0.0,0.0,2.9513,3.1389,3.1023,3.1393,3.2593,3.1702,3.1285,3.1251,2.9649,2.8014,2.6397,2.4586,0.0,0.0,0.0,0.0,0.0,0.0,0.0,0.0,0.0,0.0,0.0,0.0,0.0,0.0,0.0,0.0,0.0,0.0,0.0,0.0,0.0,0.0,0.0,0.0,0.0,0.0,0.0,0.0,0.0,0.0,0.0,0.0,0.0,0.0,0.0,0.0,0.0,0.0,0.0,0.0,0.0,0.0,0.0,0.0,0.0,0.0,0.0,0.0,0.0,0.0,0.0,0.0,0.0,0.0,0.0,0.0,0.0,0.0,0.0,0.0,0.0,0.0,0.0,2.4414,2.4414,2.4404,2.4062,2.3295,2.2236,2.0828,1.9425,1.8002,1.8002,0.0,0.0,0.0,0.0,0.0,0.0,0.0,0.0,0.0,0.0,0.0,0.0,0.0,0.0,0.0,0.0,0.0,0.0,0.0,2.3283,2.4209,2.4586,2.5278,2.6393,2.6524,2.6883,2.7844,2.7896,0.0,0.0,3.0781,3.1288,3.2393,3.2346,3.2417,3.2593,3.2477,3.2394,3.2394,3.2132,3.1869,3.1442,2.6962,2.4959,2.4853,0.0,0.0,0.0,0.0,0.0,0.0,0.0,0.0,0.0,0.0,0.0,0.0,0.0,0.0,0.0,0.0,0.0,0.0,0.0,0.0,0.0,0.0,0.0,0.0,0.0,0.0,0.0,0.0,0.0,0.0,0.0,0.0,0.0,0.0,0.0,0.0,0.0,0.0,0.0,0.0,0.0,2.1978,2.2171,0.0,0.0,0.0,0.0,0.0,0.0,0.0,0.0,0.0,0.0,0.0,0.0,0.0,2.42,2.4336,2.42,2.4229,2.4414,2.4414,2.4414,2.4414,2.4365,2.404,2.3554,2.3307,0.0,1.9268,1.9268,0.0,0.0,0.0,0.0,0.0,0.0,0.0,0.0,0.0,0.0,0.0,0.0,0.0,0.0,0.0,0.0,0.0,0.0,0.0,0.0,0.0,2.7448,2.8101,2.9783,2.9923,3.0125,3.0616,3.0641,3.104,3.196,3.1997,3.2429,3.338,3.3824,3.4538,3.5525,3.5525,3.5284,3.4842,3.4301,3.3824,3.3282,3.057,2.8587,2.7264,2.7022,0.0,0.0,0.0,0.0,0.0,0.0,0.0,0.0,0.0,0.0,0.0,0.0,0.0,0.0,0.0,0.0,0.0,0.0,0.0,0.0,0.0,0.0,0.0,0.0,0.0,0.0,0.0,0.0,0.0,0.0,0.0,0.0,0.0,0.0,0.0,0.0,0.0,0.0,0.0,2.3405,2.3408,2.3588,2.3701,2.3744,0.0,0.0,0.0,0.0,0.0,0.0,0.0,0.0,0.0,2.4766,2.4785,2.4902,2.5109,2.5109,2.5109,2.5109,2.5109,2.5109,2.5099,2.4893,2.4551,2.4131,2.3896,2.2936,2.1454,2.08,2.0124,1.9497,0.0,0.0,0.0,0.0,1.9715,2.0044,0.0,0.0,0.0,0.0,0.0,0.0,0.0,0.0,0.0,0.0,0.0,0.0,2.9983,3.0059,3.0667,3.2425,3.2593,3.2593,3.2593,3.2778,3.2919,3.2961,3.3344,3.3926,3.467,3.546,3.6491,3.7793,3.7793,3.7485,3.6873,3.6199,3.5555,3.4952,3.4216,3.2364,2.9831,2.9712,2.8131,2.5721,0.0,0.0,0.0,0.0,0.0,0.0,0.0,0.0,0.0,0.0,0.0,0.0,0.0,0.0,0.0,0.0,0.0,0.0,0.0,0.0,0.0,0.0,0.0,0.0,0.0,0.0,0.0,0.0,0.0,0.0,0.0,0.0,0.0,0.0,0.0,0.0,0.0,2.4414,2.4709,2.4709,2.5039,2.4941,0.0,0.0,0.0,0.0,0.0,0.0,2.4912,2.4922,2.5117,2.5557,2.5566,2.5674,2.5908,2.5908,2.5801,2.5693,2.5693,2.5693,2.5674,2.5391,2.5,2.456,2.4131,2.3701,2.3203,2.2167,2.1212,2.0404,2.0404,2.0404,2.0404,2.0404,2.0811,2.136,0.0,0.0,0.0,0.0,0.0,0.0,0.0,0.0,0.0,0.0,0.0,2.9439,3.0618,3.1315,3.1937,3.2552,3.2593,3.2593,3.2593,3.3336,3.3815,3.391,3.5399,3.6292,3.6477,3.7263,3.7719,3.7793,3.7793,3.7793,3.7719,3.769,3.7661,3.7589,3.7421,3.5522,3.2368,3.186,3.1557,3.1227,2.9295,0.0,0.0,0.0,0.0,0.0,0.0,0.0,0.0,0.0,0.0,0.0,0.0,0.0,0.0,0.0,0.0,0.0,0.0,0.0,0.0,0.0,0.0,0.0,0.0,0.0,0.0,0.0,0.0,0.0,0.0,0.0,0.0,0.0,0.0,0.0,0.0,0.0,0.0,2.5615,2.5645,0.0,0.0,0.0,0.0,2.5018,2.5067,2.5448,2.625,2.6289,2.6484,2.6904,2.6914,2.6738,2.6357,2.6357,2.6143,2.5693,2.5693,2.5693,2.5693,2.5664,2.5459,2.5057,2.457,2.415,2.3721,2.3222,2.296,2.2916,2.2916,2.2916,2.2916,2.2916,2.294,2.2974,0.0,0.0,0.0,0.0,0.0,2.3403,2.4558,2.6675,2.8265,2.8677,3.0699,3.2391,3.3215,3.4334,3.5064,3.5173,3.5651,3.5714,3.52,3.5443,3.5617,3.5663,3.623,3.7021,3.8044,3.837,3.8761,3.9279,3.9279,3.9022,3.8497,3.8497,3.8246,3.7825,3.8259,3.7778,3.6529,3.4656,3.3318,3.2339,3.1179,2.982,0.0,0.0,0.0,0.0,0.0,0.0,0.0,0.0,0.0,0.0,0.0,0.0,0.0,0.0,0.0,0.0,0.0,0.0,0.0,0.0,0.0,0.0,0.0,0.0,0.0,0.0,0.0,0.0,0.0,0.0,0.0,0.0,0.0,0.0,0.0,0.0,0.0,2.6162,2.665,0.0,2.5986,2.6025,2.6045,2.5928,2.6172,2.6465,2.6777,2.6797,2.6992,2.7422,2.7168,2.6943,2.6797,2.6523,2.6172,2.5693,2.5693,2.5693,2.5693,2.5693,2.5488,2.5086,2.4609,2.418,2.375,2.3276,2.3091,2.3091,2.3091,2.3091,2.3091,2.3091,2.3091,2.3091,0.0,0.0,0.0,0.0,2.2624,2.4038,2.5017,2.7697,2.9681,2.9864,3.2083,3.3896,3.4557,3.5884,3.6684,3.6599,3.7338,3.7573,3.7024,3.7247,3.7277,3.7024,3.7247,3.8068,3.9545,3.9571,3.9935,4.0666,4.0466,4.0111,3.9562,3.9404,3.9032,3.8618,3.9048,3.937,3.9479,3.7487,3.594,3.4732,3.4066,3.2834,3.128,0.0,0.0,0.0,0.0,0.0,0.0,0.0,0.0,0.0,0.0,0.0,0.0,0.0,0.0,0.0,0.0,0.0,0.0,0.0,0.0,0.0,0.0,0.0,0.0,0.0,0.0,0.0,0.0,0.0,0.0,0.0,0.0,0.0,0.0,2.6045,2.6602,2.6602,2.7226,2.7383,2.667,2.6846,2.6963,2.6826,2.708,2.7295,2.7441,2.7441,2.7578,2.7871,2.7598,2.7305,2.7012,2.6738,2.6309,2.5693,2.5693,2.5693,2.5693,2.5693,2.5528,2.5273,2.4824,2.4394,2.3965,2.3535,2.3227,2.3091,2.3091,2.3091,2.3091,2.3091,2.3091,2.3091,0.0,0.0,0.0,2.0591,2.2364,2.3884,2.4415,2.7401,2.9831,3.0417,3.2302,3.3831,3.4491,3.583,3.6661,3.6661,3.7381,3.7835,3.7835,3.8497,3.858,3.7879,3.8525,3.9536,4.088,4.0903,4.1201,4.181,4.1206,4.0926,4.0926,4.0368,4.0121,4.013,3.9999,4.0334,4.0964,4.0294,3.9548,3.8758,3.8043,3.6786,3.5149,0.0,0.0,0.0,0.0,0.0,0.0,0.0,0.0,0.0,0.0,0.0,0.0,0.0,0.0,0.0,0.0,0.0,0.0,0.0,0.0,0.0,0.0,0.0,0.0,0.0,0.0,0.0,0.0,0.0,0.0,0.0,0.0,0.0,2.5703,2.6494,2.7031,2.7031,2.7422,2.7519,2.71,2.7051,2.7226,2.7708,2.7738,2.7861,2.8271,2.8291,2.8291,2.8291,2.8291,2.7891,2.7041,2.7021,2.6592,2.5703,2.5693,2.5693,2.5693,2.5693,2.5693,2.5664,2.5264,2.4814,2.4385,2.3965,2.3535,2.3091,2.3091,2.3091,2.3091,2.3091,2.3091,2.3091,0.0,0.0,1.9358,2.0511,2.2364,2.3884,2.4415,2.7401,2.9831,3.0417,3.3215,3.542,3.6085,3.7427,3.8286,3.8286,3.8453,3.8608,3.8608,3.8799,3.8799,3.8608,3.8799,3.9536,4.088,4.0903,4.1201,4.181,4.1621,4.1556,4.1534,4.0967,4.0679,4.0689,4.0798,4.0956,4.1198,4.2072,4.1977,4.1126,3.987,3.8686,3.7552,0.0,0.0,0.0,0.0,0.0,0.0,0.0,0.0,0.0,0.0,0.0,0.0,0.0,0.0,0.0,0.0,0.0,0.0,0.0,0.0,0.0,0.0,0.0,0.0,0.0,0.0,0.0,0.0,0.0,0.0,0.0,2.5361,2.5801,2.6162,2.6953,2.749,2.749,2.7861,2.8076,2.7949,2.7939,2.7988,2.8115,2.8125,2.8174,2.8281,2.8291,2.8291,2.8291,2.8291,2.8037,2.749,2.7178,2.6748,2.6201,2.584,2.5693,2.5693,2.5693,2.5693,2.5664,2.5264,2.4814,2.4385,2.3965,2.3535,2.3091,2.3091,2.3091,2.3091,2.3091,2.3091,2.3091,0.0,1.7731,1.8568,1.9656,2.1483,2.3083,2.4017,2.6971,2.9553,3.0788,3.3509,3.5578,3.6242,3.759,3.8305,3.8008,3.8579,3.8935,3.8935,3.9228,3.9394,3.9394,3.9394,3.9876,4.088,4.1155,4.1578,4.2183,4.2183,4.2183,4.2162,4.1313,4.0903,4.0897,4.0796,4.0916,4.1271,4.2117,4.2555,4.262,4.1766,4.0857,3.9896,3.8836,3.7811,3.6764,3.5232,3.4482,3.398,3.2458,0.0,0.0,0.0,0.0,0.0,0.0,0.0,0.0,0.0,0.0,0.0,0.0,0.0,0.0,0.0,0.0,0.0,0.0,0.0,0.0,0.0,0.0,0.0,0.0,2.6143,2.6631,2.6885,2.7405,2.7986,2.8709,2.8496,2.8291,2.8291,2.8291,2.8291,2.8291,2.8291,2.8291,2.8291,2.8291,2.8291,2.8291,2.8291,2.8096,2.7718,2.7236,2.6807,2.6387,2.5947,2.5693,2.5693,2.5693,2.5693,0.0,2.5459,2.499,2.4394,2.415,2.3691,0.0,0.0,0.0,0.0,0.0,2.3091,2.3091,0.0,1.7034,1.7727,1.8518,2.0232,2.1973,2.3317,2.6309,2.9147,3.1217,3.3367,3.4968,3.5655,3.6895,3.7449,3.6867,3.8079,3.8956,3.9188,3.9765,4.0121,4.0179,4.0121,4.0343,4.088,4.1424,4.2038,4.2711,4.2711,4.2711,4.2692,4.1534,4.0972,4.088,4.0343,4.0468,4.1085,4.117,4.2016,4.3274,4.3358,4.297,4.2139,4.0867,4.0213,3.9734,3.8165,3.708,3.6079,3.4113,0.0,0.0,0.0,0.0,0.0,0.0,0.0,0.0,0.0,0.0,0.0,0.0,0.0,0.0,0.0,0.0,0.0,0.0,0.0,0.0,0.0,0.0,0.0,0.0,2.7231,2.778,2.7986,2.7839,2.8324,2.987,2.8996,2.8291,2.8291,2.8291,2.8291,2.8291,2.8291,2.8291,2.8291,0.0,0.0,0.0,0.0,2.8115,2.7796,2.7256,2.6826,2.6455,2.5967,2.5693,2.5693,2.5693,2.5693,2.5693,2.5693,2.5187,2.4414,2.4414,2.3916,2.3091,2.3091,2.3091,2.3091,2.3091,2.3091,0.0,0.0,1.6595,1.7069,1.8188,2.0117,2.1716,2.2316,2.5812,2.8965,3.0518,3.3033,3.515,3.6365,3.6753,3.7126,3.7631,3.7902,3.8732,4.0427,4.0251,4.0286,4.0726,4.0336,4.0343,4.088,4.1018,4.1599,4.2711,4.2711,4.2711,4.2674,4.1958,4.138,4.088,4.0343,4.018,4.0367,4.095,4.1711,4.2557,4.3139,4.3693,4.3985,4.3036,4.2197,4.134,3.98,3.9024,3.847,3.665,3.5581,3.4724,3.3556,3.2281,0.0,0.0,0.0,0.0,0.0,0.0,0.0,0.0,0.0,0.0,0.0,0.0,0.0,0.0,0.0,0.0,0.0,0.0,0.0,2.8458,2.8065,2.8182,2.958,2.8876,2.83,2.8635,2.8441,2.8291,2.8291,2.8291,2.8291,2.8291,2.8291,2.8291,2.8291,2.8291,2.8291,2.8291,2.8291,2.8252,2.8174,2.7402,2.6973,2.6885,0.0,0.0,2.5693,2.5693,2.5693,2.5693,2.5693,2.5187,2.4414,2.4414,2.3916,2.3091,2.3091,2.3091,2.3091,2.3091,2.3091,2.3091,1.6548,1.6608,1.6908,1.7884,1.9171,2.0381,2.1345,2.4389,2.7108,2.8526,3.1164,3.3305,3.4388,3.4824,3.5227,3.5704,3.671,3.822,4.0363,4.0254,4.0229,4.0497,3.9859,3.9808,4.0497,4.0394,4.0834,4.181,4.2101,4.2262,4.2241,4.1621,4.1201,4.088,4.0343,4.0096,4.0146,4.0882,4.1627,4.2354,4.3115,4.3637,4.3948,4.3948,4.3122,4.1917,4.1115,4.0223,3.9169,3.7767,3.7001,3.6284,3.4406,3.326,3.2384,0.0,0.0,0.0,0.0,0.0,0.0,0.0,0.0,0.0,0.0,0.0,0.0,0.0,0.0,3.2965,3.2547,0.0,3.0644,3.0451,2.9399,2.8873,2.953,2.9015,2.8785,2.9227,2.8698,2.8291,2.8291,2.8291,2.8291,2.8291,2.89,2.9303,2.9303,2.9964,3.0317,3.0317,3.0317,2.986,2.8988,2.832,2.7583,2.6699,2.5996,2.5693,2.5693,2.5693,2.5693,2.5693,2.5693,2.5187,2.4385,2.3955,2.3481,2.3091,2.3091,2.3091,2.3091,2.3091,2.3091,2.3091,1.6736,1.6892,1.7103,1.7615,1.8207,1.9071,2.0492,2.2887,2.5,2.6356,2.8752,3.0698,3.167,3.2459,3.3248,3.4137,3.5805,3.7769,4.011,4.0171,4.0079,4.0045,3.9299,3.9139,3.9653,3.9476,3.9834,4.0681,4.1171,4.1477,4.1621,4.1133,4.0833,4.0726,4.044,4.0316,4.0367,4.1102,4.1847,4.2574,4.3139,4.3349,4.335,4.3942,4.3158,4.1739,4.1739,4.0647,3.9086,3.8354,3.7907,3.7215,3.4977,3.4126,3.3671,3.2016,3.1713,0.0,0.0,0.0,0.0,0.0,0.0,0.0,0.0,3.515,3.547,3.5494,3.5403,3.5416,3.5695,3.4559,3.3298,3.233,3.096,2.9822,2.9147,2.8975,2.9257,3.0297,2.9162,2.8291,2.8291,2.8291,2.8388,2.8644,2.9713,3.0421,3.0669,3.1724,3.228,3.228,3.228,3.1554,3.004,2.9373,2.8239,2.6755,2.6035,2.5693,2.5693,2.5693,2.5693,2.5674,2.5508,2.5031,2.4355,2.3452,2.3091,2.3091,2.3091,2.3091,2.3091,2.3091,2.3091,2.3091,0.0,1.7607,1.7778,1.7494,1.8083,1.8933,1.9878,2.1977,2.3888,2.505,2.6588,2.8152,2.9739,3.061,3.2547,3.6135,3.666,3.7936,4.0612,4.0368,4.0028,3.9851,3.9232,3.8635,3.8064,3.8048,3.8636,3.9917,3.9991,4.0367,4.0995,4.0926,4.0655,4.0213,4.0807,4.1085,4.1136,4.1863,4.2608,4.3274,4.3358,4.3349,4.324,4.2758,4.1845,4.086,4.086,3.9841,3.8586,3.9056,3.8187,3.6814,3.6145,3.5332,3.4247,3.2599,3.2764,3.3354,3.2935,3.3503,3.474,3.6912,3.6936,3.6773,0.0,3.8068,3.7864,3.8326,3.8018,3.7639,3.7667,3.6595,3.521,3.3798,3.2437,3.1103,2.9715,2.916,2.9421,3.0735,2.9343,2.8291,2.8291,2.8291,2.8794,2.9964,3.0214,3.0824,3.2028,3.223,3.228,3.228,3.228,3.1995,3.1318,2.976,2.8663,2.798,2.6455,2.5693,2.5693,2.5693,2.5693,2.5645,2.4855,2.4512,2.4355,2.3452,2.3091,2.3091,2.3091,2.3091,2.3091,2.3091,2.3091,2.3091,0.0,1.7394,1.7959,1.7773,1.8025,1.8459,1.9038,2.0674,2.1896,2.1947,2.3735,2.5237,2.5808,2.765,3.0463,3.4488,3.4814,3.6043,3.8914,3.8908,3.8487,3.7846,3.713,3.655,3.6137,3.5687,3.5968,3.6951,3.7539,3.797,3.8302,3.884,3.917,3.9362,3.9657,4.0287,4.1139,4.1916,4.2685,4.3399,4.3354,4.301,4.2408,4.1229,4.0186,3.9371,3.9486,3.8791,0.0,3.7493,3.6946,3.6112,3.4747,3.4033,3.3526,3.2498,3.2494,3.299,3.3709,3.5675,3.7685,3.8256,3.9406,4.0333,4.0005,4.0027,3.9988,3.9528,3.9229,3.9064,3.902,3.7834,3.6654,3.6062,3.401,3.2156,3.1031,2.9948,2.9331,2.9444,2.9477,2.9765,3.0566,3.0618,3.0876,3.1429,3.2241,3.2905,3.3514,3.4252,3.4691,3.4691,3.4691,3.4088,3.2797,3.1759,3.0628,2.9332,2.8346,2.7484,2.6802,2.6802,2.6287,2.5312,2.4687,2.4277,2.4004,2.3344,2.3091,2.3091,2.3091,2.3091,2.3091,2.3091,2.3091,2.3091,0.0,1.6927,1.7681,1.794,1.8008,1.8154,1.8539,1.9368,1.9813,1.9429,2.0783,2.2051,2.2718,2.5401,2.8625,3.2286,3.2834,3.4167,3.6835,3.7002,3.6611,3.5703,3.483,3.4182,3.3829,3.2972,3.293,3.3684,3.4845,3.5555,3.5809,3.694,3.773,3.82,3.8388,3.9106,4.0151,4.0935,4.178,4.2551,4.2507,4.2141,4.1481,3.9978,3.8886,3.8152,3.8302,3.7828,3.7029,3.6262,3.587,3.5418,3.3567,3.2987,3.2896,3.2371,3.2328,3.2782,3.4269,3.6607,3.8599,3.8623,4.0619,4.225,4.1146,4.1358,4.1497,4.031,3.9899,3.9724,3.9525,3.8635,3.7798,3.7547,3.5704,3.3931,3.2932,3.1597,3.0659,3.042,3.0984,3.1938,3.3281,3.2744,3.2431,3.2844,3.3822,3.4581,3.4921,3.587,3.6405,3.6405,3.6405,3.5692,3.423,3.3312,3.2159,3.0696,2.9827,2.8947,2.8085,2.8085,2.7373,2.6042,2.5584,2.4922,2.4232,2.373,2.3387,2.3091,2.3091,2.3091,2.3091,2.3091,2.3091,2.3091,0.0,0.0,1.6922,1.7828,1.8008,1.8154,1.8539,1.8153,1.792,1.8308,1.7859,1.8563,2.1424,2.4472,2.7491,3.0325,3.1472,3.2881,3.4878,3.4985,3.4658,3.3912,3.2812,3.1853,3.1116,3.0021,2.9842,3.0616,3.2227,3.341,3.4194,3.5859,3.6648,3.6692,3.7406,3.7759,3.7853,3.8582,3.9523,4.0482,4.0497,4.0588,4.0603,3.922,3.8183,3.7434,3.7454,0.0,3.6462,3.6116,3.5567,3.4775,3.3432,3.2987,3.2896,3.2371,3.2604,3.3288,3.4387,3.5141,3.6018,3.7717,3.9404,4.0838,4.1429,4.2006,4.2067,4.0902,4.0185,3.9607,3.9019,3.8894,3.8573,3.7659,3.7412,3.6853,3.5419,3.4318,3.4166,3.5411,3.4781,3.4824,3.6156,3.3836,3.2844,3.4227,3.4385,3.4981,3.6263,3.6358,3.6405,3.6405,3.6405,3.6094,3.5462,3.3744,3.2601,3.2019,3.0251,2.9361,2.9361,2.9361,2.9047,2.8466,2.8009,2.6868,2.5338,2.4901,2.4092,2.3091,2.3091,2.3091,2.3091,2.3091,2.3091,2.3091,0.0,0.0,0.0,1.7705,1.8383,1.8906,1.9043,1.8294,1.7383,1.6426,1.6413,0.0,0.0,0.0,0.0,0.0,2.8079,2.9002,3.0667,3.1057,3.0804,2.9909,2.953,2.8507,2.6789,2.7226,2.718,2.6571,2.8864,3.0132,3.0431,3.1926,3.2864,3.3275,3.354,3.4678,3.6377,3.6628,3.8169,4.0338,3.9022,3.8981,3.9555,3.8007,3.7025,3.6447,0.0,3.6387,3.5618,3.4241,3.3578,3.3131,3.1406,3.0893,3.0994,3.1521,3.234,3.297,3.2494,3.3558,3.4943,3.5617,3.727,3.9214,4.1153,4.1156,4.0723,4.0717,3.9895,3.9007,3.8426,3.8617,3.8817,3.8457,3.7895,3.724,3.6397,3.5146,3.4279,3.4091,3.4574,3.4989,3.5054,3.5054,0.0,3.5667,3.5715,3.5918,3.6358,3.6405,3.6405,3.6405,3.6405,3.6094,3.5508,3.4566,3.3827,3.3284,3.1484,3.0586,3.0586,2.9772,2.8959,2.8131,2.7952,2.7212,2.6079,2.5147,2.4585,2.4168,2.3387,2.3551,2.4125,2.3387,2.3594,2.4125,0.0,0.0,0.0,0.0,0.0,0.0,0.0,0.0,0.0,0.0,0.0,0.0,0.0,0.0,0.0,0.0,0.0,2.6559,2.7597,2.8067,2.804,2.7417,2.659,2.5487,2.4079,2.4002,2.3606,2.277,2.505,2.6247,2.6324,2.7861,2.9125,3.0095,3.0095,3.1357,3.3436,3.3436,3.5116,3.7631,3.6147,3.647,3.7742,3.6874,3.6273,0.0,3.6348,3.6207,3.5525,3.3325,3.2593,3.2326,3.0637,3.0344,3.0796,3.1486,3.2353,3.284,3.1545,3.2366,3.3515,3.3141,3.4879,3.7072,3.8728,3.921,3.9261,3.9196,3.8729,3.8128,3.7541,3.7877,3.8454,3.8856,3.8391,3.7955,3.7849,3.6863,3.5922,3.5317,3.5791,3.6049,3.5721,3.6267,3.6619,3.6417,3.6593,3.6619,3.6417,3.6405,3.6405,3.6405,3.6405,3.6094,3.5508,3.4956,3.4349,3.3596,3.2442,3.1877,3.1865,3.1101,3.0171,2.9133,2.9133,2.834,2.6994,2.6273,2.5744,2.5336,2.4595,2.4755,2.5336,2.4595,2.4766,2.5252,0.0,0.0,0.0,0.0,0.0,0.0,0.0,0.0,0.0,0.0,0.0,0.0,0.0,0.0,0.0,0.0,0.0,0.0,2.5612,2.608,2.6318,2.6318,2.4118,2.2901,2.2805,2.0631,1.9451,1.9405,2.1091,2.2016,2.2331,2.3954,2.5541,2.7051,2.7144,2.7907,2.9134,2.9191,3.0547,3.2584,3.2009,3.3177,3.5278,3.5676,3.587,3.6028,3.6388,3.6518,3.6168,3.3579,3.2676,3.2382,3.1099,3.1399,3.2227,3.2252,3.2641,3.2797,3.1456,3.1549,3.1735,3.0427,3.2293,3.4474,3.4571,3.6376,3.7715,3.6724,3.6885,3.7032,3.6442,3.6822,3.7575,3.8705,3.8881,3.9094,3.9622,3.9245,3.8957,3.8919,3.8379,3.804,3.8002,3.7525,3.6998,3.6493,0.0,3.6958,3.643,3.6405,3.6405,3.6367,3.6367,3.6044,3.542,3.4868,3.411,3.3124,3.3124,3.3124,3.3124,3.3086,3.2428,3.1386,3.1361,3.0146,2.8176,2.8124,2.7481,2.6595,2.6513,2.6513,2.6595,2.6513,2.6513,2.6431,0.0,0.0,0.0,0.0,0.0,0.0,0.0,0.0,0.0,0.0,0.0,0.0,0.0,0.0,0.0,0.0,0.0,0.0,2.3356,2.373,2.3973,2.3973,2.2522,2.131,2.0414,1.9798,1.9039,1.8141,1.978,2.0632,2.0687,2.1471,2.2078,2.2509,2.3438,2.4516,2.5742,2.6668,2.8432,3.0491,2.9474,3.0671,3.3046,3.3129,3.4121,3.5587,3.6395,3.6913,3.689,3.5018,3.3734,3.2772,3.2021,3.1989,3.2303,3.2729,3.2968,3.2612,3.0463,3.0454,3.069,2.925,3.0607,3.2723,3.4267,3.513,3.5763,3.6392,3.6217,3.5923,3.5764,3.6872,3.7889,3.8178,3.8931,3.9534,3.9672,3.9572,3.9333,3.8969,3.8743,3.8479,3.8052,3.7889,3.7563,0.0,3.6769,3.6556,3.6417,3.6405,3.6169,3.5768,3.5708,3.5245,3.4324,3.3771,3.3357,3.3124,3.3124,3.3124,3.3056,3.2629,3.2051,3.1361,3.0984,3.0248,2.9314,2.8466,2.7924,2.7602,2.6801,2.7005,2.7614,2.6801,2.7005,2.7643,0.0,0.0,0.0,0.0,0.0,0.0,0.0,0.0,0.0,0.0,0.0,0.0,0.0,0.0,0.0,0.0,0.0,0.0,0.0,2.2867,2.2862,2.235,2.1168,1.9943,1.8726,1.8318,1.7678,1.685,1.7351,1.757,1.7529,1.7252,1.7791,1.9069,1.9741,2.1363,2.3651,2.4372,2.6072,0.0,0.0,2.8593,3.1177,3.1622,3.3009,3.4823,3.6264,3.7228,3.767,3.6583,3.5131,3.3766,3.3685,3.3522,3.3382,3.3709,3.3796,3.3375,3.1457,3.0886,3.0433,2.9019,2.9374,3.0477,3.218,3.2892,3.3491,3.4753,3.5092,3.5069,3.4818,3.637,3.7651,3.7651,3.8592,3.9421,3.9659,3.9697,3.9584,3.927,3.9233,3.9107,3.8781,3.8304,3.7877,3.7563,3.7036,3.6669,3.6417,3.6405,3.6107,3.552,3.5495,3.4969,3.3909,3.3357,3.3124,3.3124,3.3124,3.3124,3.3056,3.2478,3.1913,3.1361,0.0,3.0306,2.9753,2.9106,2.8858,2.8779,2.8159,2.8331,2.8767,2.8171,2.8331,2.8858,0.0,0.0,0.0,0.0,0.0,0.0,0.0,0.0,0.0,0.0,0.0,0.0,0.0,0.0,0.0,0.0,0.0,0.0,0.0,0.0,2.2394,2.1337,1.9988,1.8772,1.7738,1.6745,1.6086,1.5784,1.474,1.4256,1.4207,1.2924,1.3805,1.643,1.6572,1.8722,2.2207,2.2348,2.3767,2.5829,2.5311,2.6791,2.9442,0.0,0.0,3.3926,3.5999,3.7397,3.8282,3.8005,3.6719,3.5301,3.5703,3.5426,3.4906,3.4846,3.4776,3.4441,3.3246,3.1946,3.0674,2.9349,2.8649,2.8566,2.9758,3.0617,3.1545,3.284,3.3897,3.4462,3.3985,3.5642,3.7098,3.7174,3.814,3.9108,3.9622,3.9697,3.9697,3.9697,3.9634,3.9584,3.9584,3.8555,3.7902,3.7902,3.7387,3.6908,3.643,3.6329,3.5968,3.5307,3.5207,3.4705,3.3796,3.3319,3.3124,3.3124,3.3124,3.3124,3.3099,3.2403,3.1838,3.1361,0.0,0.0,2.9792,2.9792,2.9792,2.9792,2.9792,2.9792,2.9792,2.9792,2.9792,2.9792,0.0,0.0,0.0,0.0,0.0,0.0,0.0,0.0,0.0,0.0,1.5317,1.5357,0.0,0.0,0.0,0.0,0.0,0.0,0.0,0.0,0.0,2.1293,1.9177,1.7917,1.7692,1.6536,1.5879,1.5784,1.4556,1.3991,1.3943,1.2586,1.2845,1.4431,1.5456,1.7438,2.0091,2.1094,2.2326,2.3648,2.3535,2.4869,2.7051,2.8209,0.0,0.0,3.549,3.7005,3.7997,3.8467,3.8413,3.7955,3.7252,3.6608,3.6061,3.5514,3.5031,3.4441,3.3246,3.2141,3.0986,2.9374,2.883,2.8898,2.9788,3.0617,3.1545,3.284,3.3596,3.401,3.3922,3.5374,3.6694,3.7111,3.814,3.9108,3.9622,3.9697,3.9697,3.9697,3.9295,3.9057,3.9057,3.799,3.7324,3.7324,3.6857,3.6505,3.6417,3.5931,3.5182,3.4223,3.3746,3.342,3.3219,3.3174,3.3124,3.3124,3.3124,3.3124,3.3043,3.2001,3.1486,3.1336,3.0357,0.0,2.9792,2.9792,2.9792,2.9792,2.9792,2.9792,2.9792,2.9792,2.9792,2.9792,0.0,0.0,0.0,0.0,0.0,0.0,0.0,1.5409,1.5506,1.5429,1.5524,1.5618,1.5618,1.6858,1.8187,0.0,0.0,0.0,0.0,0.0,0.0,0.0,1.9588,1.8319,1.7684,1.664,1.5985,1.5784,0.0,1.3035,1.2813,1.0823,1.0921,1.2861,1.3465,1.5549,1.8634,1.9852,2.1078,2.2236,2.3104,2.4579,2.6372,0.0,0.0,0.0,3.4776,3.6107,3.7067,3.7741,3.7966,3.7978,3.8108,3.7534,3.6695,3.6105,3.578,3.5474,3.4891,3.3887,3.2632,3.1097,2.9778,2.9165,3.0131,3.0305,3.0822,3.2711,3.352,3.3809,3.352,3.5097,3.6405,3.6332,3.7513,3.8617,3.9182,3.9007,3.8931,3.9233,3.8768,3.8417,3.8417,3.7663,3.7186,3.7186,3.6719,3.6405,3.6405,3.5567,3.4738,3.3922,3.337,3.3124,3.3124,3.3124,3.3124,3.3124,3.3124,3.3124,3.3074,3.1901,3.1386,3.1336,3.0256,0.0,2.9792,2.9792,2.9792,2.9792,2.9792,2.9792,2.9792,2.9792,2.9792,2.9792,0.0,0.0,0.0,0.0,0.0,0.0,0.0,1.481,1.5135,1.5444,1.5691,1.5784,1.5784,1.6709,1.7909,0.0,0.0,0.0,0.0,0.0,0.0,0.0,0.0,1.8956,1.7738,0.0,0.0,1.5925,1.3527,0.0,0.0,0.0,0.0,0.0,1.1896,1.4052,1.7777,1.9001,2.0215,0.0,0.0,2.4646,0.0,0.0,0.0,0.0,0.0,3.5007,3.5976,3.651,3.6796,3.7137,3.7935,3.7601,3.6886,3.6379,3.6194,3.6267,3.6367,3.5415,3.4129,3.3055,3.1059,2.972,3.0874,3.044,3.0406,3.2655,3.342,3.3583,3.3156,3.4632,3.5768,3.5533,3.6734,3.7939,3.8755,3.8366,3.8216,3.8856,3.8253,3.7839,3.7839,3.7324,3.701,3.701,3.6656,3.6304,3.6065,3.519,3.4412,3.3746,3.3307,3.3124,3.3124,3.3124,3.3124,3.3124,3.2955,3.2893,3.2855,3.1738,3.1223,3.1173,3.0218,0.0,0.0,2.9792,2.9792,2.9792,2.9792,2.9792,2.9792,2.9792,2.9792,2.9792,0.0,0.0,0.0,0.0,0.0,0.0,0.0,1.4988,1.5164,1.5718,1.5764,1.5784,1.5784,1.592,1.6936,0.0,0.0,0.0,0.0,0.0,0.0,0.0,0.0,0.0,0.0,0.0,0.0,1.6233,1.3556,0.0,0.0,0.0,0.0,0.0,0.0,1.4052,1.7777,1.9001,0.0,0.0,0.0,0.0,0.0,0.0,0.0,0.0,0.0,3.3953,3.4828,3.4922,3.5521,3.6246,3.5917,3.6164,3.6415,3.575,3.5571,3.5683,3.6267,3.5415,3.4385,3.4227,3.2457,3.103,3.2218,3.1744,3.1412,3.2797,3.3162,3.3174,3.3124,3.3646,3.4437,3.5345,3.6094,3.7109,3.8693,3.8366,3.8216,3.8856,3.7914,3.7262,3.7262,3.6807,3.648,3.648,3.643,3.5931,3.4926,3.4776,3.4236,3.3224,3.3149,3.3124,3.3124,3.3124,3.3124,3.3111,3.2541,3.229,3.2252,3.1185,3.0683,3.0658,3.0055,0.0,0.0,2.9792,2.9792,2.9792,2.9792,2.9792,2.9792,2.9792,2.9792,2.9792,0.0,0.0,0.0,0.0,0.0,0.0,1.4914,1.5008,1.517,1.5752,1.5784,1.5784,1.5784,1.648,1.7358,1.8319,0.0,0.0,0.0,0.0,0.0,0.0,0.0,0.0,0.0,0.0,1.7476,1.6533,1.3786,0.0,0.0,0.0,0.0,0.0,0.0,1.3327,1.5589,1.8334,0.0,0.0,0.0,0.0,0.0,0.0,0.0,0.0,0.0,0.0,3.3755,3.3755,3.3982,3.4288,3.4084,3.4242,3.4515,3.4911,3.5245,3.5545,3.5805,3.5717,3.5415,3.4581,3.3242,3.223,3.2605,3.1926,3.1545,3.284,3.3124,3.3124,3.3124,3.3533,3.4161,3.4881,3.5516,3.6332,3.7676,3.7374,3.7272,3.7789,3.7209,3.6732,3.6732,3.6543,3.6405,3.6405,3.6056,3.5529,3.4718,3.468,3.4223,3.3106,3.3124,3.3124,3.3124,3.2729,3.2554,3.2554,3.1989,3.1725,3.1687,3.0959,3.062,3.0583,3.003,0.0,0.0,2.9792,2.9792,2.9792,2.9792,2.9792,2.9792,2.9792,2.9792,2.9792,0.0,0.0,0.0,0.0,0.0,1.4389,1.4934,1.5082,1.5271,1.5718,1.5784,1.5784,1.5784,1.6943,1.7729,1.7873,1.9196,0.0,0.0,0.0,0.0,0.0,0.0,0.0,0.0,0.0,1.8372,1.7424,1.4651,1.3106,0.0,0.0,0.9804,1.0945,0.0,0.0,0.0,0.0,0.0,0.0,0.0,0.0,0.0,0.0,0.0,0.0,0.0,0.0,0.0,0.0,0.0,3.3124,3.3124,3.3124,3.3257,3.4211,3.4705,3.5044,3.5207,3.5579,3.5719,3.4895,3.3941,3.3192,3.3291,3.2494,3.2008,3.2939,3.3124,3.3124,3.3124,3.3395,3.3834,3.4399,3.4893,3.5646,3.6797,3.6656,3.6619,3.7123,3.6744,3.6405,3.6405,3.6405,3.6405,3.6405,3.5855,3.5257,3.4705,3.4562,3.4048,3.3106,3.3124,3.2993,3.283,3.2416,3.2127,3.1964,3.1424,3.116,3.1148,3.062,3.0369,3.0357,0.0,0.0,0.0,2.9792,2.9792,2.9792,2.9792,2.9792,2.9792,2.9792,2.9792,2.9792,0.0,0.0,0.0,0.0,0.0,0.0,1.4961,1.5211,1.5498,1.5744,1.5784,1.5784,1.5784,1.6943,1.7858,1.8276,2.0154,0.0,0.0,0.0,0.0,0.0,0.0,0.0,0.0,0.0,2.0118,1.9192,1.6369,1.4289,1.2968,1.1557,1.1501,1.2582,0.0,0.0,0.0,0.0,0.0,0.0,0.0,0.0,0.0,0.0,0.0,0.0,0.0,0.0,0.0,0.0,0.0,0.0,0.0,3.3124,3.3224,3.3746,3.3909,3.4035,3.4575,3.4726,3.4818,3.537,3.468,3.4048,3.4555,3.3872,3.3068,3.3124,3.3124,3.3124,3.3124,3.3081,3.3269,3.3822,3.4374,3.5127,3.6257,3.6383,3.6619,3.7123,3.6744,3.6405,3.6405,3.6405,3.6405,3.6405,3.5855,0.0,3.4705,3.4211,3.3658,3.3136,3.3124,3.2805,3.2227,3.2215,3.1938,3.1386,3.0871,3.062,3.0608,3.0055,2.9804,0.0,0.0,0.0,0.0,2.9792,2.9792,2.9792,2.9792,2.9792,2.9792,2.9792,2.9792,2.9792,0.0,0.0,0.0,0.0,0.0,0.0,0.0,1.5337,1.5504,1.5744,1.5784,1.5784,1.5784,1.7911,1.9539,1.9989,2.111,0.0,0.0,0.0,0.0,0.0,0.0,0.0,0.0,0.0,2.132,1.9478,1.7621,1.5522,1.3158,1.1711,1.1183,1.1462,1.2286,1.3469,0.0,0.0,0.0,0.0,0.0,0.0,0.0,0.0,0.0,0.0,0.0,0.0,0.0,0.0,0.0,0.0,0.0,0.0,0.0,3.3282,3.3608,3.3935,3.411,3.4437,3.4718,3.4893,3.4437,3.3947,3.4123,3.3596,3.3124,3.3124,3.3124,3.3124,3.3124,3.3124,3.3382,3.4311,3.4613,3.5115,3.6219,3.6417,3.6468,3.6644,3.6518,3.6405,3.6405,3.6405,3.6207,3.583,3.5245,0.0,3.4186,3.3257,3.2667,3.2491,3.2491,3.2215,3.165,3.1298,3.1035,3.0859,3.0319,3.0055,3.0043,2.988,0.0,0.0,0.0,0.0,0.0,2.9792,2.9792,2.9792,2.9792,2.9792,2.9792,2.9792,2.9792,2.9792,0.0,0.0,0.0,0.0,0.0,0.0,0.0,1.5491,1.5625,1.5758,1.5784,1.5784,1.5784,1.837,2.0315,2.0776,2.227,0.0,0.0,0.0,0.0,0.0,0.0,0.0,0.0,2.3435,2.2354,2.0535,1.9027,1.6916,1.4261,1.2654,1.217,1.2622,1.2755,1.371,0.0,0.0,0.0,0.0,0.0,0.0,0.0,0.0,0.0,0.0,0.0,0.0,0.0,0.0,0.0,0.0,0.0,0.0,0.0,0.0,3.3319,3.3583,3.3583,3.3847,3.4148,3.4361,3.3997,3.3646,3.3847,3.347,3.3124,3.3124,3.3124,3.3124,3.3124,3.3124,3.3307,3.3985,3.4825,3.5468,3.5735,3.6489,3.6883,3.6452,3.6405,3.6405,3.6405,3.6169,3.5906,3.552,3.4839,0.0,3.3922,3.283,3.2114,3.1901,3.1901,3.1637,3.1097,3.0783,3.0507,3.0306,2.9955,2.9792,2.9792,2.9792,0.0,0.0,0.0,0.0,0.0,2.9792,2.9792,2.9792,2.9792,2.9792,2.9792,2.9792,2.9792,2.9792,0.0,0.0,0.0,0.0,0.0,0.0,0.0,1.5658,1.5784,1.5784,1.5784,1.5784,1.5784,1.8299,2.0198,2.0729,0.0,0.0,0.0,0.0,0.0,0.0,0.0,0.0,2.5155,2.4333,2.3305,2.2116,2.0535,1.8436,1.5853,1.4239,1.4126,1.5352,1.3736,1.4458,0.0,0.0,0.0,0.0,0.0,0.0,0.0,0.0,0.0,0.0,0.0,0.0,0.0,0.0,0.0,0.0,0.0,0.0,0.0,0.0,0.0,0.0,0.0,3.3086,3.3206,3.3709,3.3458,3.3206,3.3721,3.3532,0.0,3.3124,3.3154,3.321,3.3174,3.3149,3.3106,3.3181,3.5077,3.607,3.4944,3.6593,3.7586,3.6534,3.6405,3.6392,3.6355,3.5843,3.547,3.5382,0.0,0.0,3.3784,3.2742,3.1901,3.1348,3.1298,3.1047,3.0557,3.0557,3.0306,2.9792,2.9792,2.9792,2.9792,2.9792,0.0,0.0,0.0,0.0,0.0,2.9792,2.9792,2.9792,2.9792,2.9792,2.9792,2.9792,2.9792,2.9792,0.0,0.0,0.0,0.0,0.0,0.0,0.0,0.0,0.0,0.0,1.5784,1.5784,1.5784,1.7712,1.9524,0.0,0.0,0.0,0.0,0.0,0.0,0.0,0.0,0.0,2.5566,2.5691,2.4569,2.2116,2.1819,1.9692,1.5908,1.5212,1.5091,1.5364,1.4974,1.6336,0.0,0.0,0.0,0.0,0.0,0.0,0.0,0.0,0.0,0.0,2.9187,3.0474,0.0,0.0,0.0,0.0,0.0,0.0,0.0,0.0,3.2992,3.3474,3.2642,0.0,3.3106,3.3244,3.3169,3.3106,0.0,3.3815,3.4066,3.3283,3.3755,3.4208,3.3795,3.337,3.3357,3.4198,3.5551,3.6201,3.5415,3.6151,3.6709,3.6452,3.6405,3.6194,3.578,3.5571,3.5144,3.4349,0.0,3.352,3.2654,3.1951,3.1336,3.0809,3.0382,3.0118,2.9993,2.9993,2.9917,2.9792,2.9792,2.9792,2.9792,2.9792,0.0,0.0,0.0,0.0,2.9792,2.9792,2.9792,2.9792,2.9792,2.9792,2.9792,2.9792,2.9792,2.9792,0.0,0.0,0.0,0.0,0.0,0.0,0.0,0.0,0.0,0.0,0.0,0.0,0.0,0.0,0.0,0.0,0.0,0.0,0.0,0.0,0.0,0.0,0.0,2.5549,2.6562,2.6448,2.538,2.3349,2.2775,2.0955,1.8048,1.6416,1.5916,1.6387,1.6262,1.7467,0.0,0.0,0.0,0.0,0.0,0.0,0.0,0.0,0.0,0.0,2.8527,2.9829,0.0,3.1035,3.1386,3.1838,0.0,0.0,0.0,0.0,3.3224,3.3883,3.3304,3.3113,3.3174,3.3395,3.3458,3.3458,3.3458,3.4104,3.4553,3.3953,3.465,3.5291,3.5018,3.4737,3.462,3.5028,3.6708,3.7903,3.7585,3.6878,3.6405,3.6405,3.6144,3.5868,0.0,3.5044,3.455,0.0,0.0,3.3144,3.2265,3.1687,3.1148,3.0633,3.008,2.9792,2.9792,2.9792,2.9792,2.9792,2.9792,2.9792,2.9792,2.9792,2.9792,0.0,0.0,0.0,2.9792,2.9792,2.9792,2.9792,2.9792,2.9792,2.9792,2.9792,2.9792,2.9792,0.0,0.0,0.0,0.0,0.0,0.0,0.0,0.0,0.0,0.0,0.0,0.0,0.0,0.0,0.0,0.0,0.0,0.0,0.0,0.0,0.0,0.0,0.0,2.6216,2.7851,2.7104,2.6141,2.5045,2.3633,2.2159,2.0646,1.7779,1.688,1.7569,1.738,1.8008,0.0,0.0,0.0,0.0,0.0,0.0,0.0,0.0,0.0,0.0,0.0,0.0,0.0,3.0495,3.0834,3.1273,3.1273,0.0,0.0,0.0,0.0,0.0,3.4341,3.3927,3.3602,3.3837,3.389,3.3916,3.399,3.4435,3.4845,3.4925,3.568,3.6311,3.6348,3.635,3.6236,3.594,3.8005,3.9802,4.0121,3.8055,3.6548,3.6548,3.5835,0.0,3.5257,3.4449,3.3872,0.0,0.0,3.2692,3.2114,3.1574,3.1035,3.0507,3.0043,2.9792,2.9792,2.9792,2.9792,2.9792,2.9792,2.9792,2.9792,2.9792,2.9792,0.0,0.0,0.0,2.9792,2.9792,2.9792,2.9792,2.9792,2.9792,2.9792,2.9792,2.9792,2.9792,0.0,0.0,0.0,0.0,0.0,0.0,0.0,0.0,0.0,0.0,0.0,0.0,0.0,0.0,0.0,0.0,0.0,0.0,0.0,0.0,0.0,2.9004,2.7881,2.7834,2.9085,2.8354,2.7409,2.6299,2.4793,2.2906,2.07,1.9557,1.8541,1.7582,1.7535,1.7693,1.7989,0.0,0.0,0.0,0.0,0.0,0.0,0.0,0.0,0.0,0.0,0.0,0.0,2.9917,3.0281,3.0733,3.0733,0.0,0.0,0.0,0.0,0.0,3.4488,3.5055,3.5399,3.404,3.3811,3.4021,3.4468,3.4902,3.5358,3.5864,3.634,3.677,3.6926,3.6999,3.7179,3.7648,3.8519,3.9648,4.1153,3.894,3.7159,3.7159,0.0,3.4618,3.4198,3.3997,0.0,0.0,0.0,3.2102,3.1549,3.1022,3.0482,2.993,2.9829,2.9792,2.9792,2.9792,2.9792,2.9792,2.9792,2.9792,2.9792,2.9792,2.9792,0.0,0.0,2.9792,2.9792,2.9792,2.9792,2.9792,2.9792,2.9792,2.9792,2.9792,2.9792,2.9792,0.0,0.0,0.0,0.0,0.0,0.0,0.0,0.0,0.0,0.0,0.0,0.0,0.0,0.0,0.0,0.0,0.0,0.0,0.0,0.0,0.0,2.819,2.8498,2.9131,3.0361,2.9598,2.8603,2.746,2.6181,2.425,2.1717,1.9703,1.8728,1.8655,1.7937,1.7989,1.8655,1.8558,0.0,0.0,0.0,0.0,0.0,0.0,0.0,0.0,0.0,0.0,0.0,0.0,3.0725,3.1008,3.1527,0.0,0.0,0.0,0.0,0.0,3.5056,3.5709,3.622,3.5162,3.5548,3.6135,3.602,3.6346,3.6735,3.7003,3.7659,3.8231,3.8312,3.8664,3.9266,4.0249,3.9886,3.9871,4.0918,3.8869,3.7175,0.0,0.0,3.4173,3.3922,3.3633,0.0,0.0,0.0,0.0,3.1022,3.0746,3.0357,2.9817,2.9792,2.9792,2.9792,2.9792,2.9792,2.9792,2.9792,2.9792,2.9792,2.9792,2.9792,2.9792,0.0,2.9792,2.9792,2.9792,2.9792,2.9792,2.9792,2.9792,2.9792,2.9792,2.9792,2.9792,0.0,0.0,0.0,0.0,0.0,0.0,0.0,0.0,0.0,0.0,0.0,0.0,0.0,0.0,0.0,0.0,0.0,0.0,0.0,0.0,2.4247,2.6841,2.8547,3.009,3.1589,3.0731,2.9871,2.9057,2.7576,2.552,2.3031,2.0301,1.9428,2.0199,1.9042,1.8961,1.9524,1.8506,1.9265,0.0,0.0,0.0,0.0,0.0,0.0,0.0,0.0,0.0,0.0,0.0,0.0,0.0,0.0,0.0,0.0,3.3993,3.4725,3.5534,3.5684,3.6301,3.678,3.6359,3.6953,3.7633,3.7503,3.7416,3.7564,3.8275,3.8804,3.923,3.9394,3.9963,4.0786,4.1976,4.1071,4.0376,4.0764,3.8741,3.719,3.6905,3.5033,3.3827,3.4076,0.0,0.0,0.0,0.0,0.0,3.0658,3.0495,3.0231,2.9804,2.9792,2.9792,2.9792,2.9792,2.9792,2.9792,2.9792,2.9792,2.9792,2.9792,2.9792,2.9792,2.9792,2.9934,3.0139,3.0139,3.0254,3.047,3.047,3.047,3.047,3.047,3.0317,3.0139,0.0,0.0,0.0,0.0,0.0,0.0,0.0,0.0,0.0,0.0,0.0,0.0,0.0,0.0,0.0,0.0,0.0,0.0,0.0,0.0,2.2628,2.5488,2.8036,3.0508,3.2896,3.1769,3.1284,3.1642,2.8882,2.6367,2.4152,2.2687,2.2048,2.2103,2.1603,2.0743,1.9576,1.948,1.9576,1.9878,2.1194,0.0,0.0,0.0,0.0,0.0,0.0,0.0,0.0,0.0,0.0,0.0,0.0,0.0,3.3993,3.3993,3.4725,3.5639,3.6252,3.6858,3.7327,3.7316,3.6751,3.6674,3.8325,3.7307,3.6823,3.9639,3.9284,3.8661,3.9305,3.9963,4.0636,4.1377,4.1375,4.1299,4.133,0.0,3.7545,3.8525,3.5405,3.3534,0.0,0.0,0.0,0.0,0.0,0.0,3.062,3.0131,2.9829,2.9792,2.9792,2.9792,2.9792,2.9792,2.9792,2.9792,2.9792,2.9792,2.9792,2.9792,2.9792,2.9792,2.9792,3.0279,3.1106,3.1106,3.1609,3.2393,3.2393,3.2393,3.2393,3.2393,3.1852,3.1106,0.0,0.0,0.0,0.0,0.0,0.0,0.0,0.0,0.0,0.0,0.0,0.0,0.0,0.0,0.0,0.0,0.0,0.0,0.0,1.9009,2.118,2.3894,2.5684,2.8265,3.1853,3.2239,3.2062,3.1475,2.845,2.6069,2.4278,2.3414,2.317,2.3494,2.2527,2.2078,2.2064,2.0341,2.0135,2.0939,2.1499,0.0,0.0,0.0,0.0,0.0,0.0,0.0,0.0,0.0,3.1609,3.2249,3.3171,3.4143,3.4953,3.4953,3.5213,3.5564,3.5804,3.6626,3.7315,3.6926,3.7205,3.782,3.8914,3.8576,3.8529,4.0084,3.9993,3.9723,3.9993,4.0232,4.0621,4.1265,4.1422,4.1235,4.0831,3.9286,3.8179,3.8194,3.575,3.4131,0.0,0.0,0.0,0.0,0.0,0.0,3.0118,2.9905,2.9792,2.9792,2.9792,2.9792,2.9792,2.9792,2.9792,2.9792,2.9792,2.9792,2.9792,2.9792,3.0101,3.0658,3.0658,3.118,3.2069,3.2069,3.2285,3.2593,3.2593,3.2593,3.2593,3.2593,3.2393,3.1997,0.0,0.0,0.0,0.0,0.0,0.0,0.0,0.0,0.0,0.0,0.0,0.0,0.0,0.0,0.0,0.0,0.0,0.0,1.6315,1.7957,1.9929,2.2215,2.3881,2.6437,3.0085,3.1411,3.1994,3.1821,2.9024,2.6734,2.4965,2.4524,2.4541,2.4895,2.3847,2.3491,2.3592,2.171,2.0947,2.1092,2.1954,2.212,0.0,0.0,0.0,0.0,0.0,0.0,0.0,0.0,3.1533,3.2749,3.3705,3.4691,3.5504,3.5504,3.5504,3.5504,3.5504,3.6148,3.6761,3.6537,3.715,3.8078,3.917,3.9245,3.9334,4.0217,4.0232,4.0083,4.0083,4.0083,4.0232,4.0681,4.0756,4.0606,4.0157,3.8977,3.8115,3.7994,3.5992,0.0,0.0,0.0,0.0,0.0,0.0,0.0,0.0,2.9792,2.9792,2.9792,2.9792,2.9792,2.9792,2.9792,2.9792,2.9792,2.9792,2.9792,2.9792,3.0101,3.0595,3.1217,3.1499,3.2177,3.3031,3.3031,3.3241,3.3512,3.3512,3.3512,3.3512,3.3512,3.331,3.2961,0.0,0.0,0.0,0.0,0.0,0.0,0.0,0.0,0.0,0.0,0.0,0.0,0.0,0.0,0.0,0.0,0.0,0.0,1.6246,1.7553,1.8969,2.0553,2.301,2.5485,2.7841,2.9168,3.0907,3.3068,3.0996,2.8769,2.6436,2.6387,2.6387,2.6367,2.5937,2.4962,2.3732,2.3683,2.2106,1.987,2.2558,2.2357,0.0,0.0,0.0,0.0,0.0,0.0,0.0,0.0,3.0863,3.2749,3.3705,3.4691,3.5504,3.5504,3.5504,3.5504,3.5504,3.5504,3.5669,3.6312,3.6492,3.7015,3.896,3.8886,3.8781,4.0127,3.9873,3.9388,3.9388,3.9388,3.9388,3.9388,3.9373,3.9373,3.9373,3.7923,3.7216,3.8256,3.5974,0.0,0.0,0.0,0.0,0.0,0.0,0.0,0.0,2.9792,2.9792,2.9792,2.9792,2.9792,2.9792,2.9792,2.9792,2.9792,2.9792,2.9792,2.983,3.0758,3.1217,3.1278,3.2213,3.3136,3.4027,3.4027,3.461,3.5504,3.5504,3.5504,3.5504,3.5504,3.4872,3.4027,0.0,0.0,0.0,0.0,0.0,0.0,0.0,0.0,0.0,0.0,0.0,0.0,0.0,0.0,0.0,0.0,0.0,0.0,1.4672,1.6036,1.7919,2.0134,2.1212,2.3886,2.8443,3.0908,3.1822,3.1221,3.0011,2.8816,2.766,2.7072,2.6504,2.5879,2.5742,2.5141,2.4117,2.3197,2.1833,2.0352,2.1184,2.0948,2.0237,0.0,0.0,0.0,0.0,0.0,0.0,0.0,0.0,0.0,3.2459,3.3671,3.4576,3.5279,3.5504,3.5504,3.5504,3.5848,3.6133,3.5863,3.6821,3.7853,3.7973,3.8586,3.9364,4.0217,3.9873,3.9388,3.9388,3.9388,3.9388,3.9388,3.9005,3.8691,3.8691,3.7847,3.7347,3.7669,3.6344,0.0,0.0,0.0,0.0,0.0,0.0,0.0,0.0,3.0796,3.0482,2.983,2.9792,2.9792,2.9792,2.9792,2.9792,2.9792,2.9792,2.9792,2.983,3.0758,3.1573,3.2249,3.3171,3.4143,3.5067,3.5067,3.5246,3.5504,3.5504,3.5504,3.5504,3.5504,3.5326,3.4953,0.0,0.0,0.0,0.0,0.0,0.0,0.0,0.0,0.0,0.0,1.5985,1.6146,0.0,0.0,0.0,0.0,0.0,0.0,0.0,1.4812,1.6717,1.9717,2.0072,2.2686,2.8085,3.098,3.199,3.1107,2.9871,2.8811,2.795,2.6953,2.6181,2.5693,2.5693,2.5342,2.4631,2.3805,2.2645,2.1345,2.1916,2.1546,2.0788,0.0,0.0,0.0,0.0,0.0,0.0,0.0,0.0,0.0,3.1452,3.2905,3.4264,3.5576,3.5733,3.5554,3.5863,3.6019,3.6133,3.6237,3.7135,3.8033,3.8182,3.8805,3.9493,3.9933,3.9469,3.9005,3.9005,3.8796,3.8616,3.8616,3.8272,3.8003,3.8003,3.7449,3.7045,3.7045,0.0,0.0,0.0,0.0,0.0,0.0,0.0,0.0,0.0,3.1742,3.1328,3.0381,3.0343,3.0177,2.9792,2.9792,2.9792,2.9792,3.0177,3.0177,2.983,3.0758,3.1706,3.2664,3.3993,3.4953,3.5504,3.5504,3.5504,3.5504,3.5504,3.5504,3.5504,3.5504,3.5504,3.5392,0.0,0.0,0.0,0.0,0.0,0.0,0.0,0.0,0.0,0.0,1.5784,1.5932,0.0,0.0,0.0,0.0,0.0,0.0,0.0,0.0,1.5468,1.9023,1.9675,2.23,2.739,3.0042,3.1693,3.229,3.0407,2.8881,2.7667,2.6416,2.5732,2.5508,2.5508,2.5312,2.494,2.494,2.389,2.2402,2.3632,2.3175,2.1879,2.3126,0.0,0.0,0.0,0.0,0.0,0.0,0.0,0.0,3.0462,3.2198,3.4086,3.5948,3.6071,3.575,3.6508,3.6211,3.5947,3.7117,3.7394,3.7749,3.9035,3.9239,3.926,3.932,3.8781,3.8302,3.8302,3.7808,3.7404,3.7404,3.736,3.733,3.733,3.6791,3.6402,3.6402,0.0,0.0,0.0,0.0,0.0,0.0,0.0,0.0,0.0,3.2749,3.2249,3.1217,3.1217,3.0758,2.9792,2.9792,2.9792,0.0,3.0658,3.0633,2.983,3.0871,3.1852,3.282,3.4706,3.5504,3.5504,3.5504,3.5504,3.5504,3.5504,3.5504,3.5504,3.5504,3.5504,3.5504,0.0,0.0,0.0,0.0,0.0,0.0,0.0,0.0,0.0,0.0,0.0,0.0,0.0,0.0,0.0,0.0,0.0,0.0,0.0,0.0,1.4667,1.643,2.0891,2.5113,2.8869,3.0467,3.1803,3.2893,3.1076,2.9639,2.8486,2.7218,2.5756,2.4209,2.4209,2.3965,2.351,2.351,2.2754,2.1554,2.1825,2.1734,2.1428,2.1751,2.2337,0.0,0.0,0.0,0.0,0.0,0.0,0.0,2.895,3.0662,3.2143,3.4738,3.5917,3.6538,3.7338,3.734,3.7214,3.7506,3.7488,3.7614,3.8422,3.8212,3.7988,3.8512,3.8078,3.7629,3.7629,3.7509,3.7404,3.7404,3.7,3.6686,3.6686,3.6133,3.5714,3.5714,0.0,0.0,0.0,0.0,0.0,0.0,0.0,0.0,3.3739,3.3705,3.2925,3.1254,3.1217,3.0758,2.9792,2.9792,2.9792,0.0,2.9998,2.9998,2.9869,3.1549,3.282,3.3774,3.4986,3.5504,3.5504,3.5504,3.5504,3.5504,3.5504,3.5504,3.5504,3.5504,3.5504,3.5504,0.0,0.0,0.0,0.0,0.0,0.0,0.0,0.0,0.0,0.0,0.0,0.0,0.0,0.0,0.0,0.0,0.0,0.0,0.0,1.1843,1.4376,1.7678,2.2032,2.5756,2.8634,3.0097,3.1312,3.2265,3.1353,3.0414,2.9521,2.7971,2.6486,2.5154,2.467,2.416,2.3695,2.3535,2.2957,2.2173,2.2173,2.2173,2.2173,2.2173,2.2536,2.3091,2.3091,0.0,0.0,0.0,0.0,0.0,0.0,0.0,3.0832,3.3566,3.5115,3.6214,3.7469,3.7755,3.7682,3.7608,3.7778,3.8074,3.8424,3.7983,3.7572,3.7922,3.7469,3.6971,3.6971,3.6716,3.6492,3.6492,3.6222,3.6013,3.6013,3.5729,3.5504,3.5504,0.0,0.0,0.0,0.0,0.0,0.0,0.0,3.5279,3.4758,3.4725,3.4041,3.2593,3.2105,3.1439,3.0482,3.0037,2.9792,2.9792,3.0241,3.0482,3.052,3.1938,3.289,3.3415,3.4887,3.5504,3.5504,3.5504,3.5504,3.5504,3.5504,3.5504,3.5504,3.5504,3.5504,3.5504,0.0,0.0,0.0,0.0,0.0,0.0,0.0,0.0,0.0,0.0,0.0,0.0,0.0,0.0,0.0,0.0,0.0,0.0,0.0,1.1072,1.4328,1.986,2.2409,2.4987,2.783,2.9251,3.0446,3.1386,3.1386,3.1141,3.0666,2.8823,2.7455,2.6451,2.5561,2.4822,2.417,2.3828,2.3467,2.3091,2.3091,2.3091,2.3091,2.3091,2.3091,2.3091,2.3091,2.3091,2.3047,2.2862,0.0,0.0,0.0,0.0,2.9186,3.2145,3.391,3.5275,3.7095,3.7666,3.7729,3.7606,3.7908,3.8262,3.8409,3.7804,3.7278,3.7389,3.6827,3.6312,3.6312,3.5863,3.5504,3.5504,3.5504,3.5504,3.5504,3.5504,3.5504,0.0,0.0,0.0,0.0,0.0,0.0,0.0,0.0,3.5504,3.5504,3.5504,3.5019,3.4027,3.3101,3.2141,3.1217,3.0279,2.9792,2.9792,3.0758,3.1217,3.1254,3.2357,3.2749,3.2713,3.4673,3.5504,3.5504,3.5504,3.5504,3.5504,3.5504,3.5504,3.5504,3.5504,3.5504,3.5504,0.0,0.0,0.0,0.0,0.0,0.0,0.0,0.0,0.0,0.0,1.5784,1.5784,1.5784,1.5784,0.0,0.0,0.0,0.0,0.8432,0.0,0.0,1.986,2.0479,2.2914,2.7775,2.8115,2.9289,3.1386,3.1386,3.158,3.1938,3.0283,2.8164,2.5746,2.5614,2.4683,2.3266,2.3208,2.3149,2.3091,2.3091,2.3091,2.3091,2.3091,2.3091,2.3091,2.3091,2.3091,2.295,2.1889,2.1649,0.0,0.0,0.0,2.5884,2.9889,3.2319,3.4145,3.6061,3.7094,3.759,3.7446,3.7094,3.6932,3.7602,3.6728,3.5967,3.66,3.616,3.5639,3.5639,3.5564,3.5504,3.5504,3.5504,3.5504,3.5504,3.5504,3.5504,0.0,0.0,0.0,0.0,0.0,0.0,0.0,3.5504,3.5504,3.5504,3.5504,3.5019,3.4027,3.3101,3.2141,3.1217,3.0279,2.9792,2.9792,3.0758,3.1217,3.1241,3.3031,3.338,3.2713,3.4673,3.5504,3.5504,3.5504,3.5504,3.5504,3.5504,3.5504,3.5504,3.5504,3.5504,3.5504,0.0,0.0,0.0,0.0,0.0,0.0,0.0,0.0,0.0,0.0,0.0,1.5784,1.5784,1.5784,0.0,0.0,0.0,0.0,0.9266,1.0877,0.0,0.0,1.9343,2.1805,2.5425,2.6791,2.8142,2.9528,3.0191,3.0922,3.175,3.1343,3.03,2.8664,2.7113,2.5871,2.4805,2.3594,2.3091,2.3091,2.3091,2.3091,2.3091,2.3091,2.3091,2.3091,2.3091,2.3091,2.2906,2.1712,2.1756,2.2296,2.2117,0.0,0.0,0.0,2.9378,3.1777,3.5003,3.5845,3.5994,3.6774,3.6758,3.664,3.6971,3.6568,3.6196,3.6523,3.6006,3.5504,3.5504,3.5504,3.5504,3.5504,3.5504,3.5504,3.5504,3.5504,3.5504,0.0,0.0,0.0,0.0,0.0,0.0,0.0,3.5504,3.5504,3.5504,3.5504,3.5294,3.4839,3.3891,3.2925,3.1997,3.1044,3.0317,2.9792,3.0203,3.0696,3.1254,3.2593,3.3276,3.3449,3.4887,3.5504,3.5504,3.5504,3.5504,3.5504,3.5504,3.5504,3.5504,3.5504,3.5504,3.5504,0.0,0.0,0.0,0.0,0.0,0.0,0.0,0.0,0.0,0.0,0.0,1.5784,1.5784,0.0,0.0,0.0,0.0,0.0,1.1068,0.0,0.0,0.0,0.0,2.1051,2.3403,2.5765,2.733,2.8096,2.9236,3.0419,3.1612,3.2026,3.2098,3.1769,2.9286,2.7405,2.5962,2.4419,2.3554,2.3247,2.314,2.3091,2.3091,2.3091,2.3091,2.3091,2.3091,2.3091,2.2906,2.1712,2.1889,2.2473,2.145,2.215,0.0,0.0,0.0,2.9638,3.3046,3.3868,3.4068,3.5411,3.5841,3.6057,3.6507,3.6615,3.6661,3.6843,3.6477,3.6085,3.6085,3.5765,3.5554,3.5765,3.5619,3.5504,3.5504,3.5504,3.5504,0.0,0.0,0.0,0.0,0.0,0.0,0.0,3.5504,3.5504,3.5504,3.5504,3.5504,3.5504,3.4509,3.3671,3.2961,3.1779,3.0733,2.9792,3.0037,3.0671,3.1573,3.2285,3.3241,3.4428,3.5166,3.5504,3.5504,3.5504,3.5504,3.5504,3.5504,3.5504,3.5504,3.5504,3.5504,3.5504,0.0,0.0,0.0,0.0,0.0,0.0,0.0,0.0,0.0,0.0,0.0,0.0,1.5784,1.5784,1.5289,1.4022,0.0,0.0,0.0,0.0,0.0,0.0,0.0,0.0,2.2974,2.5326,2.7069,2.8096,2.9236,3.0608,3.2177,3.2202,3.2762,3.369,3.1938,2.9021,2.5445,2.5469,2.4812,2.3721,2.3257,2.3091,2.3091,2.3091,2.3091,2.3091,2.3091,2.3091,2.2906,2.1712,2.1337,2.1318,2.086,2.0811,2.1228,0.0,0.0,0.0,2.9523,3.0836,3.2176,3.3153,3.3748,3.457,3.6213,3.6615,3.6813,3.7573,3.7706,3.7677,3.7677,3.6492,3.5733,3.6446,3.5943,3.5504,3.5504,3.5504,3.5504,0.0,0.0,0.0,0.0,0.0,0.0,0.0,3.5504,3.5504,3.5504,3.5504,3.5504,3.5504,3.4509,3.3993,3.391,3.2105,3.0733,2.9792,3.0696,3.1609,3.2522,3.2558,3.365,3.5424,3.5472,3.5504,3.5504,3.5504,3.5504,3.5504,3.5504,3.5504,3.5504,3.5504,3.5504,3.5504,0.0,0.0,0.0,0.0,0.0,0.0,0.0,0.0,0.0,0.0,0.0,0.0,0.0,1.5784,1.5635,1.5146,1.4364,0.0,0.0,0.0,0.0,0.0,0.0,0.0,2.072,2.3715,2.5876,2.7087,2.891,3.0269,3.1198,3.1537,3.1725,3.1772,3.1149,2.9891,2.8109,2.5969,2.4824,2.4359,2.3446,2.3091,2.3091,2.3091,2.3091,2.3091,2.3091,2.3091,2.2906,2.1712,2.1634,2.1891,2.0978,2.085,2.1236,2.2239,2.3319,2.4749,2.7324,2.8434,2.93,3.1308,3.2199,3.2908,3.4151,3.4688,3.5342,3.6737,3.7024,3.7352,3.833,3.769,3.7055,3.7338,3.6722,3.6196,3.6196,3.5814,3.5504,0.0,0.0,0.0,0.0,0.0,0.0,0.0,0.0,3.5504,3.5504,3.5504,3.5504,3.5504,3.5133,3.4658,3.4027,3.2749,3.1924,3.1586,3.1924,3.2593,3.3484,3.3484,3.4225,3.5504,3.5504,3.5504,3.5504,3.5504,3.5504,3.5504,3.5504,3.5504,3.5504,3.5504,3.5504,3.5504,0.0,0.0,0.0,0.0,0.0,0.0,0.0,0.0,1.6889,1.648,0.0,0.0,0.0,0.0,1.5784,1.5784,1.5045,1.4172,1.3253,1.4028,0.0,0.0,0.0,0.0,1.9488,2.2495,2.484,2.6524,2.8331,2.9507,3.005,3.0396,3.047,3.0318,3.0133,2.9821,2.9284,2.6723,2.5402,2.4889,2.361,2.3091,2.3091,2.3091,2.3091,2.3091,2.3091,2.3091,2.3003,2.2164,2.2267,2.2494,2.1451,2.1053,2.1066,2.1428,2.1735,2.2521,2.4821,2.5841,2.6838,2.9374,3.0279,3.0998,3.2625,3.3341,3.4101,3.5762,3.6353,3.7006,3.8619,3.8497,3.8177,3.8177,3.7499,3.6994,3.6994,3.6352,0.0,0.0,0.0,0.0,0.0,0.0,0.0,0.0,0.0,0.0,3.5504,3.5504,3.5504,3.5504,3.5504,3.5019,3.4027,3.338,3.2925,3.2593,3.2593,3.3101,3.3979,3.3457,3.4023,3.5457,3.491,3.502,3.5504,3.5504,3.5504,3.5504,3.5504,3.5504,3.5504,3.5504,3.5504,3.5504,0.0,0.0,0.0,0.0,0.0,0.0,0.0,0.0,1.9101,1.7917,0.0,0.0,0.0,0.0,0.0,1.5784,1.5784,1.5784,1.5784,1.5784,0.0,0.0,0.0,0.0,1.9488,2.1762,2.4118,2.6524,2.7562,2.8386,2.8939,2.8939,2.9254,2.9786,2.9165,2.8845,2.8775,2.7737,2.6593,2.5317,2.3773,2.3135,2.3091,2.3091,2.3091,2.3091,2.3091,2.3091,2.3091,2.3091,2.3091,2.2925,2.2129,2.131,2.0605,2.0605,2.127,2.1952,0.0,0.0,0.0,2.7322,2.8015,2.8826,3.176,3.2613,3.3253,3.4803,3.5781,3.6835,3.8531,3.8881,3.8908,3.8908,3.8302,3.7835,3.7835,3.7144,0.0,0.0,0.0,0.0,0.0,0.0,0.0,0.0,3.5504,3.5504,3.5504,3.5504,3.5504,3.5504,3.5504,3.5019,3.4061,3.4027,3.3602,3.2678,3.2678,3.3171,3.3998,3.2387,3.31,3.5394,3.3835,3.4054,3.5504,3.5504,3.5504,3.5504,3.5504,3.5504,3.5504,3.5504,3.5504,3.5504,0.0,0.0,0.0,0.0,0.0,2.2748,2.1683,2.0606,1.9693,0.0,0.0,0.0,1.7714,1.6574,1.5784,1.5784,1.5784,1.5784,1.5784,1.5784,1.5784,1.5784,1.6157,1.7296,1.9443,2.0882,2.3232,2.6524,2.7562,2.859,2.9549,2.9549,2.9636,2.9772,2.8755,2.8775,2.947,2.8362,2.7241,2.6078,2.485,2.3844,2.3091,2.3091,2.3091,2.3091,2.3091,2.3091,2.3091,2.3091,2.2896,2.2539,2.1639,2.1025,2.0605,2.0605,2.0789,2.1155,2.1811,0.0,0.0,0.0,0.0,0.0,2.836,2.9595,3.1013,3.3122,3.4301,3.5386,3.6831,3.8076,3.8908,3.8908,3.8745,3.8608,3.8608,3.7933,0.0,0.0,0.0,0.0,0.0,0.0,0.0,0.0,3.5504,3.5504,3.5504,3.5504,3.5504,3.5504,3.5504,3.5359,3.51,3.51,3.4953,3.4706,3.4706,3.4839,3.5037,3.4115,3.4366,3.5427,3.4515,3.4637,3.5504,3.5504,3.5504,3.5504,3.5504,3.5504,3.5504,3.5504,3.5504,3.5504,0.0,0.0,0.0,2.5693,2.4775,2.3811,2.299,2.2308,2.1642,0.0,0.0,0.0,1.7268,1.6436,1.5965,1.5791,1.5784,1.5784,1.5784,1.5784,1.5784,1.5784,1.5784,1.6749,1.8726,1.9839,2.218,2.5721,2.6889,2.7988,2.9106,2.9106,2.9106,2.9067,2.8386,2.8727,2.9753,2.9106,2.7907,2.6389,2.5252,2.4125,2.3091,2.3091,2.3091,2.3091,2.3091,2.3091,2.3091,2.3091,2.2818,2.2393,2.1719,2.1328,2.1085,2.0713,2.0742,2.0909,2.131,2.1413,2.1711,2.2961,0.0,0.0,2.6031,2.687,2.8007,3.0398,3.1372,3.2366,3.425,3.5943,3.723,3.7872,3.8499,3.9032,3.9342,3.8734,0.0,0.0,0.0,0.0,0.0,3.5909,3.5804,3.5534,3.5504,3.5504,3.5504,3.5504,3.5504,3.5504,3.5504,3.5504,3.5504,3.5504,3.5504,3.5504,3.522,3.5235,3.5459,3.4218,3.4173,3.5026,3.4068,3.4038,3.4666,3.4666,3.4996,3.5474,3.519,3.525,3.5474,3.519,3.525,3.5504,0.0,0.0,2.5693,2.5693,2.541,2.4775,2.3655,2.406,2.4092,0.0,2.1536,1.9605,1.6918,1.641,1.6166,1.5905,1.5798,1.5784,1.5784,1.5784,1.5784,1.5784,1.5784,1.6386,1.7692,1.8864,2.1158,2.4598,2.5867,2.7128,2.8307,2.8307,2.8307,2.8295,2.8176,2.8727,2.9792,2.9663,2.8502,2.6595,2.5577,2.4339,2.3091,2.3266,2.3222,2.3091,2.3091,2.3091,2.3091,2.3091,2.2818,2.2451,2.207,2.1924,2.1728,2.0987,2.0957,2.1103,2.0752,2.0644,2.0917,2.2302,2.2314,0.0,2.4404,2.4538,2.4889,2.72,2.7857,2.8746,3.1208,3.3008,3.4577,3.5969,3.7501,3.889,3.9935,3.9489,3.8989,0.0,0.0,0.0,3.6785,3.6645,3.637,3.5654,3.5549,3.5504,3.5504,3.5504,3.5504,3.5504,3.5504,3.5504,3.5504,3.5504,3.5504,3.5489,3.4801,3.4801,3.5325,3.3395,3.3185,3.4324,3.3051,3.2886,3.3499,3.3499,3.4203,3.522,3.4607,3.4741,3.522,3.4592,3.4756,3.528,0.0,2.5693,2.5693,2.5693,2.5615,2.5382,2.4832,2.4848,2.4758,2.4129,2.2058,2.0079,1.8783,1.7232,1.6253,1.6192,1.5965,1.5784,1.5784,1.5784,1.5784,1.5784,1.5784,1.6386,1.7692,1.8864,2.1158,2.4598,2.5867,2.7504,2.9495,2.9495,2.9495,2.9443,2.8518,2.8727,2.9753,2.8806,2.8176,2.7763,2.755,2.5703,2.3222,2.4125,2.3887,2.3091,2.3091,2.3091,2.3091,2.3091,2.2818,2.25,2.2412,2.2158,2.1855,2.168,2.1435,2.1181,2.1083,2.084,2.0664,2.0966,2.1512,0.0,2.2524,2.317,2.3905,2.4866,2.6299,2.7697,2.8698,3.0907,3.2654,3.2952,3.48,3.7098,3.9732,3.9952,3.9636,0.0,0.0,0.0,3.7561,3.7434,3.7128,3.6364,3.5804,3.5504,3.5504,3.5504,3.5504,3.5504,3.5504,3.5504,3.5504,3.5504,3.5504,3.5489,3.4801,3.4578,3.4668,3.317,3.2946,3.3649,3.2856,3.2886,3.3499,3.3499,3.3649,3.3873,3.3739,3.3769,3.3873,3.3739,3.3769,3.3888,2.5645,2.5693,2.5693,2.5693,2.5693,2.5615,2.5439,2.54,2.5322,2.506,2.3338,2.1656,2.0321,1.8602,1.7434,1.7334,1.6375,1.5784,1.5784,1.5784,1.5784,1.5784,1.5784,1.6109,1.6756,1.8542,2.0596,2.2861,2.5292,2.7342,2.8976,2.9534,2.9792,2.9792,2.9197,2.9287,2.9753,2.9197,2.8636,2.8096,2.8096,2.6438,2.4006,2.4575,2.4082,2.3091,2.3091,2.3091,2.3091,2.3091,2.2955,2.274,2.2578,2.251,2.2432,2.2012,2.1885,2.1736,2.1307,2.1034,2.084,2.0664,2.0934,0.0,0.0,2.1669,2.2252,2.3005,2.4345,2.5601,2.6417,2.8673,3.0532,3.0931,3.2572,3.4739,3.7436,3.8778,3.9342,0.0,0.0,0.0,3.8408,3.8215,3.7582,3.6109,3.5684,3.5504,3.5504,3.5504,3.5504,3.5504,3.5504,3.534,3.4996,3.4996,3.4831,3.4502,3.3814,3.3664,3.3979,3.2617,3.2377,3.2961,3.2273,3.2183,3.2512,3.2512,3.2512,3.2557,3.2886,3.32,3.3455,3.3125,3.3215,3.3499,2.5596,2.5557,2.5586,2.5674,2.5693,2.5693,2.5693,2.5693,2.5693,2.5693,2.451,2.3161,2.1841,2.0205,1.9146,1.8995,1.7618,1.6742,1.6742,1.6456,1.6259,1.6157,1.592,1.5784,1.5784,1.8211,2.0028,2.1086,2.4724,2.7046,2.8124,2.9287,2.9792,2.9792,2.9792,2.9792,2.9792,2.9792,2.9275,2.8426,2.8426,2.7105,2.5168,2.5368,2.4755,2.3724,2.3517,2.343,2.3387,2.3178,2.3091,2.3033,2.2744,2.2818,2.2964,2.2324,2.2305,2.2363,2.1629,2.1327,2.1103,2.0781,2.0664,2.0605,0.0,0.0,0.0,2.1555,2.2515,2.3441,2.4264,0.0,0.0,0.0,0.0,0.0,0.0,3.6405,0.0,0.0,0.0,0.0,0.0,3.8645,3.7658,3.5644,3.5504,3.5504,3.5504,3.5504,3.5504,3.5504,3.5504,3.5235,3.4713,3.4578,3.4234,3.3679,3.2886,3.2796,3.326,3.2049,3.1795,3.2273,3.1735,3.1511,3.1511,3.1511,3.1511,3.1555,3.2093,3.2647,3.3051,3.2497,3.2662,3.311,2.5068,2.5194,2.5273,2.5625,2.5693,2.5693,2.5693,2.5693,2.5693,2.5693,2.451,2.3624,2.3421,2.1907,2.1065,2.1469,2.0704,2.0254,2.0254,1.8835,1.7841,1.7512,1.6386,1.5784,1.5784,1.8211,2.0028,2.1086,2.4724,2.7046,2.8124,2.9287,2.9792,2.9792,2.9792,2.9792,2.9792,2.9792,2.9714,2.9624,2.9624,2.8291,2.6389,2.7348,2.7035,2.5975,2.4957,2.4628,2.4457,0.0,2.3091,2.3091,2.3042,2.3052,2.3081,2.2984,2.2721,2.249,2.2393,2.1775,2.1181,2.1132,2.0859,2.0605,2.0605,0.0,2.0644,2.075,0.0,2.2215,2.2328,0.0,0.0,0.0,0.0,0.0,3.0021,3.261,3.5244,3.7642,0.0,0.0,0.0,3.8136,3.712,3.5614,3.5504,3.5504,3.5504,3.5504,3.5504,3.5504,3.5504,3.5474,3.5385,3.4786,3.4474,3.4384,3.3095,3.2557,3.2602,3.1839,3.154,3.1615,3.154,3.1511,3.1511,3.1511,3.1511,3.1511,3.1585,3.166,3.172,3.1645,3.166,3.1735,2.456,2.4687,2.4746,2.4941,2.4923,2.5059,2.5312,2.5566,2.5781,2.6084,2.5379,2.5043,2.5585,2.3909,2.2851,2.3026,2.188,2.1035,2.0827,1.9899,1.9264,1.912,1.7688,1.6897,1.6897,1.8626,1.9745,2.0146,2.4406,2.6719,2.7209,2.9,2.9792,2.9792,2.9792,2.9792,2.9792,2.9792,2.9603,2.9315,2.9654,2.9012,2.79,2.8068,2.7441,2.6431,2.5975,2.5797,2.5588,0.0,2.451,0.0,0.0,0.0,0.0,2.3299,2.2974,2.2822,2.2578,0.0,0.0,0.0,0.0,0.0,2.0605,0.0,2.0605,0.0,0.0,0.0,0.0,0.0,0.0,0.0,2.5349,0.0,0.0,0.0,3.2534,0.0,0.0,0.0,0.0,0.0,0.0,0.0,0.0,3.5504,3.5504,3.5504,3.5504,3.5504,3.5504,3.513,3.4352,3.4053,3.3529,3.2766,3.2183,3.1914,3.1914,3.163,3.1511,3.1511,3.1511,3.1511,3.1511,3.1511,3.1511,3.1511,3.1511,3.1511,3.1511,3.1511,3.1511,3.1511,2.39,2.416,2.4277,2.4394,2.4634,2.5013,2.5451,2.5631,2.5889,2.6328,2.6006,2.6015,2.6924,2.5569,2.4662,2.4935,2.3601,2.264,2.2368,2.1354,2.0793,2.0793,1.9103,1.8226,1.8365,1.9409,1.9988,1.9988,2.4385,2.6524,2.6565,2.8752,2.9792,2.9792,2.9792,2.9792,2.9792,2.9792,2.9553,2.9164,2.9616,2.9541,2.9088,2.8699,2.8068,2.7342,2.7046,2.6924,2.676,2.563,2.5797,0.0,2.4563,0.0,2.5041,0.0,0.0,0.0,2.282,0.0,0.0,0.0,0.0,0.0,0.0,0.0,0.0,0.0,0.0,0.0,0.0,0.0,2.321,2.3638,0.0,2.5731,0.0,2.8823,0.0,0.0,0.0,0.0,0.0,0.0,0.0,0.0,0.0,0.0,3.5504,3.5504,3.5504,3.5504,3.5325,3.4756,3.3769,3.341,3.2751,3.1765,3.1585,3.1511,3.1511,3.1511,3.1511,3.1511,3.1511,3.1511,3.1511,3.1511,3.1511,3.1511,3.1511,3.1511,3.1511,3.1511,3.1511,3.1511,2.313,2.3525,2.3935,2.4346,2.531,2.617,2.6583,2.6089,2.5889,2.6328,2.6006,2.6015,2.6924,2.658,2.6649,2.7477,2.6775,2.6238,2.6219,2.3884,2.2539,2.2539,2.0533,1.9607,2.0,2.0804,2.1248,2.1248,2.4787,2.6524,2.6565,2.8752,2.9792,2.9792,2.9792,2.9792,2.9792,2.9792,2.9779,2.9767,2.9779,2.9779,2.9767,0.0,2.9702,2.9546,2.8426,0.0,0.0,2.6801,2.6483,0.0,0.0,0.0,0.0,0.0,0.0,0.0,0.0,0.0,0.0,2.1865,0.0,0.0,0.0,0.0,2.0723,0.0,0.0,0.0,0.0,2.1928,2.2443,2.3941,2.4635,0.0,0.0,0.0,0.0,0.0,0.0,0.0,0.0,0.0,0.0,0.0,0.0,0.0,3.5504,3.5504,3.5504,3.5504,3.4861,3.4518,3.4474,3.3185,3.2497,3.2452,3.1809,3.1511,3.1511,3.1511,3.1511,3.1511,3.1511,3.1511,3.1511,3.1511,3.1511,3.1511,3.1511,3.1511,3.1511,3.1511,3.1511,3.1511,2.3516,2.3457,2.3609,2.451,2.4966,2.5488,2.6173,2.6687,2.683,2.6427,2.626,2.6387,2.6953,2.6894,2.6807,2.6816,2.6553,2.6269,2.5977,2.4862,2.4259,2.4259,2.2534,2.1476,2.1362,2.1597,2.1617,2.1293,2.4787,2.6524,2.6565,2.8752,2.9792,2.9792,2.9792,2.9792,2.9792,2.9792,2.9566,2.9176,2.9176,2.9453,2.9792,0.0,0.0,2.9753,2.9365,2.9236,0.0,2.7947,2.8079,2.8422,2.6976,2.6736,2.6822,2.5673,2.4978,0.0,0.0,0.0,2.2321,2.1971,0.0,0.0,0.0,0.0,0.0,0.0,0.0,0.0,0.0,2.2462,2.314,2.3638,2.5025,2.6188,0.0,0.0,0.0,0.0,0.0,0.0,0.0,0.0,0.0,0.0,3.5504,0.0,0.0,3.5133,3.5198,3.4543,3.4498,3.4294,3.3829,3.2961,3.2273,3.1839,3.1615,3.1271,3.0838,3.1301,3.1256,3.0853,3.1316,3.1511,3.1511,3.1511,3.1511,3.1511,3.1511,3.1511,3.1511,3.1511,3.1511,3.1511,2.374,2.39,2.4145,2.4691,2.5402,2.6303,2.7458,2.7995,2.8115,2.7734,2.7698,2.7736,2.7643,2.7693,2.7391,2.6681,2.6475,2.6269,2.5986,2.54,2.5137,2.5293,2.3966,2.3224,2.3112,2.2778,2.2489,2.2201,2.5105,2.6524,2.6565,2.8752,2.9792,2.9792,2.9792,2.9792,2.9792,2.9792,2.9578,2.9239,2.9239,2.9453,0.0,0.0,2.9792,2.9792,0.0,2.9792,2.9702,2.8937,2.9061,2.9235,2.7795,2.7466,2.7356,2.6262,2.5572,2.4939,2.4064,2.3263,0.0,2.2692,2.2016,0.0,2.2152,0.0,0.0,0.0,0.0,0.0,0.0,0.0,2.4075,2.45,2.5206,2.5678,0.0,2.6754,0.0,0.0,0.0,3.3177,0.0,0.0,3.4984,3.5457,3.5504,0.0,0.0,0.0,3.4839,3.4543,3.3971,3.3608,3.3499,3.2617,3.1929,3.1511,3.1511,3.1271,3.0881,3.1301,3.1256,3.0896,3.1316,3.1511,3.1511,3.1511,3.1511,3.1511,3.1511,3.1511,3.1511,3.1511,3.1511,3.1539,2.3938,2.4938,2.5678,2.5168,2.6756,2.8619,3.0139,2.9892,2.9621,2.9963,3.0158,2.9873,2.8947,2.9,2.8514,2.7248,2.6773,2.6497,2.6447,2.5663,2.5388,2.5664,2.4884,2.4668,2.5106,2.4248,2.3809,2.3789,2.5625,2.6524,2.6565,2.8752,2.9792,2.9792,2.9792,2.9792,2.9792,2.9792,2.9792,2.9792,2.9792,2.9792,2.9792,2.9792,2.9792,2.9792,2.9792,2.9792,2.9792,2.9792,2.9428,2.8925,2.89,2.8512,2.7901,2.6851,2.6183,2.5703,2.5011,2.3835,2.3047,2.3951,0.0,0.0,0.0,0.0,2.4392,0.0,0.0,0.0,0.0,0.0,0.0,2.6417,2.5185,2.4456,2.548,2.6054,2.6767,0.0,0.0,3.1802,3.3671,3.391,3.4361,3.5359,3.5472,3.5472,0.0,0.0,3.4428,3.5326,3.3237,3.2521,3.3423,3.2168,3.1511,3.1511,3.1511,3.1481,3.1451,3.1481,3.1481,3.1451,3.1496,3.1511,3.1511,3.1511,3.1511,3.1511,3.1511,3.1511,3.1511,3.1511,3.1511,3.1611,2.6067,2.7514,2.8816,2.9059,2.9875,3.0488,3.041,3.057,3.058,3.0208,3.046,3.0499,2.9921,2.9793,2.946,2.8838,2.8697,2.8267,2.7349,2.7084,2.6584,2.5732,2.5469,2.5293,2.5116,2.4531,2.4102,2.3789,2.5625,2.6524,2.6565,2.8752,2.9792,2.9792,2.9792,2.9792,2.9792,2.9792,2.9792,2.9792,2.9792,2.9792,2.9792,0.0,2.9792,2.9792,2.9792,2.9792,2.9792,2.9792,2.9691,2.9503,2.9026,2.8512,2.7985,2.727,2.6726,2.6107,2.5205,2.4674,2.437,2.4251,2.376,2.3471,0.0,0.0,0.0,0.0,0.0,0.0,0.0,0.0,0.0,2.7561,2.6371,2.5411,2.559,2.5145,2.5322,2.6755,0.0,0.0,3.1729,3.2558,3.3345,3.4312,3.51,0.0,0.0,0.0,0.0,3.3359,3.2539,3.2219,3.2443,3.1827,3.1511,3.1511,3.1511,3.1241,3.0763,3.1271,3.1227,3.0763,3.1286,3.1511,3.1511,3.1511,3.1511,3.1511,3.1511,3.1511,3.1511,3.1511,3.1511,3.1611,2.769,2.9211,3.0764,3.1565,3.2134,3.2366,3.1993,3.2016,3.197,3.1857,3.2039,3.1785,3.0744,3.0801,3.0502,2.9498,2.9407,2.9085,2.8402,2.8412,2.8085,2.7342,2.6802,2.6403,2.6189,2.5194,2.4492,2.4062,2.5894,2.6685,2.6565,2.8752,2.9792,2.9792,2.9792,2.9792,2.9792,2.9792,2.9792,2.9792,2.9792,2.9792,0.0,2.9792,2.9792,2.9792,2.9792,2.9792,2.9792,2.9792,2.9628,2.9315,2.875,2.8185,2.7632,2.7115,2.6738,2.6383,2.5804,2.5335,2.504,2.5169,2.469,2.4391,2.5354,2.5357,2.5228,0.0,0.0,0.0,0.0,0.0,0.0,2.7057,2.6701,2.6081,2.5047,2.4445,2.4708,2.6292,2.7046,0.0,0.0,3.1439,3.2558,3.391,0.0,0.0,0.0,0.0,0.0,3.2881,3.1937,3.1531,3.1709,3.156,3.1511,3.1511,3.1511,3.1301,3.0928,3.1017,3.1017,3.0928,3.1017,3.1227,3.1511,3.1511,3.1511,3.1511,3.1511,3.1511,3.1511,3.1511,3.1511,3.1668,2.9429,3.0667,3.2018,3.2952,3.3533,3.3922,3.3997,3.3608,3.3483,3.4035,3.406,3.3399,3.1841,3.2004,3.1598,3.0034,2.9863,2.9818,2.9636,2.9636,2.959,2.9407,2.8412,2.7814,2.7814,2.6343,2.5348,2.4854,2.6531,2.711,2.676,2.8831,2.9792,2.9792,2.9792,2.9792,2.9792,2.9792,2.9792,2.9792,2.9792,2.9792,2.9792,2.9792,2.9792,2.9792,2.9792,2.9792,2.9792,2.9792,2.9402,2.8813,2.836,2.7783,2.7228,2.6738,2.6549,2.6499,2.6499,2.5873,2.5406,2.628,2.5838,2.555,2.6779,2.7118,2.719,2.708,2.7507,2.762,0.0,0.0,0.0,2.6097,2.6589,2.6461,2.4605,2.4094,2.4541,2.6203,0.0,0.0,0.0,0.0,0.0,0.0,0.0,0.0,0.0,0.0,0.0,3.3186,3.1486,0.0,3.1161,0.0,3.1511,3.1511,3.1511,3.1451,3.1346,3.0776,3.0763,3.1212,3.0642,3.0717,3.1256,3.1331,3.1421,3.1511,3.1511,3.1511,3.1511,3.1511,3.1511,3.1682,3.2909,3.3263,3.3377,3.3156,3.3533,3.406,3.4512,3.45,3.4625,3.5144,3.4818,3.4447,3.411,3.3388,3.281,3.2481,3.2438,3.2008,3.0944,3.0899,3.0451,2.9453,2.9177,2.9085,2.9085,2.8484,2.7854,2.7272,2.8146,2.831,2.7844,2.9197,2.9792,2.9792,2.9792,2.9792,2.9792,2.9792,0.0,2.9792,2.9792,2.9792,2.9792,2.9792,2.9792,2.9792,2.9792,2.9792,2.9792,2.9792,2.9402,2.8875,2.8775,2.8097,2.7268,2.7203,2.6851,2.6499,2.6499,2.6383,2.628,2.6452,2.6383,2.618,2.5941,2.6298,2.6499,2.5988,2.6386,2.6864,2.7128,0.0,0.0,0.0,0.0,0.0,2.6062,2.4537,2.4019,2.5719,2.6266,2.6674,0.0,0.0,0.0,0.0,0.0,0.0,0.0,0.0,0.0,0.0,0.0,0.0,0.0,0.0,3.1511,3.1511,3.1511,3.1212,3.0672,3.0552,3.0298,2.9924,2.9804,2.9804,2.9968,3.0477,3.0987,3.1511,3.1511,3.1511,3.1511,3.1511,3.1511,3.1611,3.424,3.4324,3.4248,3.3972,3.4387,3.4806,0.0,3.5391,3.5466,3.5119,3.4638,3.4186,3.3897,3.3395,3.3124,3.3124,3.3124,3.284,3.2239,3.2196,3.1921,3.1323,3.0676,3.0316,3.0316,2.9534,2.8735,2.7885,2.8803,2.8869,2.8124,2.9287,2.9792,2.9792,2.9792,2.9792,2.9792,0.0,0.0,2.9792,2.9792,2.9792,2.9792,2.9792,2.9792,2.9792,2.9792,2.9792,2.9792,2.9792,2.9616,2.9327,2.8988,2.836,2.7657,2.7369,2.6927,2.6499,2.6499,2.6499,2.6499,2.6499,2.6499,2.6336,2.5724,2.5812,2.5971,2.5649,2.5824,2.6298,2.7118,2.7733,0.0,0.0,0.0,0.0,0.0,0.0,2.5458,2.6817,2.7169,2.7587,0.0,0.0,0.0,0.0,0.0,0.0,0.0,0.0,0.0,0.0,0.0,0.0,0.0,0.0,0.0,3.0866,3.1307,3.1137,3.0492,3.0178,3.0043,3.0043,2.9756,2.9968,3.0612,3.0883,3.1212,3.1511,3.1511,3.1511,3.1511,3.1511,3.1511,3.1611,3.4881,3.4856,3.4818,3.4738,3.5132,3.5495,3.5495,3.6006,3.6103,3.519,3.4487,3.3909,3.347,3.3262,3.3124,3.3124,3.3124,3.3124,3.3124,3.3124,3.3124,3.3124,3.2152,3.1589,3.1589,3.0687,2.9686,0.0,2.9527,0.0,0.0,0.0,2.9792,0.0,0.0,0.0,0.0,0.0,3.0113,3.0113,3.0113,2.9972,2.9792,2.9792,2.9792,2.9792,2.9792,2.9792,2.9792,2.9792,2.9716,2.9553,2.9214,2.8574,2.7871,2.7557,2.7014,2.6499,2.6499,2.6499,2.6499,2.6499,2.6499,2.6311,2.5586,2.5523,2.5536,2.5297,2.5435,2.59,2.6952,2.7469,0.0,0.0,0.0,0.0,0.0,0.0,2.688,2.7862,2.7969,2.8279,2.9163,0.0,0.0,0.0,0.0,0.0,3.4615,3.3358,0.0,0.0,0.0,2.9088,2.8454,0.0,3.0299,0.0,3.1117,3.1137,3.0492,2.9998,2.9968,3.0268,2.9666,3.0043,3.1107,3.1227,3.1376,3.1511,3.1511,3.1511,3.1511,3.1511,3.1511,3.1582,3.552,3.542,3.5257,3.4768,3.5132,3.5495,3.5495,3.6006,3.6367,3.6267,3.529,3.4625,3.4575,3.3671,3.3124,3.3124,3.3124,3.3124,3.3124,3.3124,3.3124,3.3124,3.2982,3.2927,3.2927,3.2797,3.2207,0.0,0.0,3.0673,0.0,0.0,0.0,0.0,0.0,0.0,0.0,3.1068,3.1068,3.1068,3.1068,3.0558,2.9792,2.9792,2.9792,2.9792,2.9792,2.9792,2.9792,2.9792,2.9453,2.9051,2.9566,2.8624,2.7444,2.7896,2.7281,2.6499,2.6499,2.6499,2.6499,2.6499,2.6499,2.6223,2.5134,2.5259,2.5322,2.4356,2.4921,2.5787,2.6449,2.6612,2.7218,0.0,0.0,0.0,0.0,0.0,2.675,2.7451,2.7433,2.7372,0.0,0.0,0.0,0.0,3.2442,0.0,3.1993,3.2374,0.0,3.3268,0.0,2.9862,3.0842,3.0497,0.0,3.0299,3.1117,3.1137,3.0507,3.0447,3.0148,2.9666,2.8981,2.9101,2.9804,3.0372,3.0943,3.1511,3.1511,3.1511,3.1511,3.1511,3.1511,3.1511,0.0,0.0,0.0,0.0,0.0,0.0,0.0,3.6267,3.6405,3.6405,3.5692,3.4919,3.4299,3.3834,3.3432,3.3106,3.3124,3.3124,3.3124,3.3124,3.3124,3.3124,3.3124,3.3124,3.3124,3.3124,3.2679,0.0,0.0,3.1009,3.0281,0.0,0.0,0.0,0.0,3.0317,3.1217,3.1217,3.1536,3.2033,3.2033,3.1829,3.1476,3.1476,3.1476,3.1415,3.0833,3.062,3.0558,3.0011,3.0012,3.031,3.0556,3.0335,3.0049,3.0241,2.9803,2.8979,2.8051,2.7837,2.7622,2.67,2.6499,2.6285,2.5473,2.5209,2.5008,2.4582,2.5492,2.659,2.7266,2.8006,2.8645,0.0,0.0,0.0,0.0,0.0,0.0,2.963,2.8874,2.8249,0.0,0.0,0.0,0.0,0.0,0.0,0.0,0.0,0.0,3.3311,0.0,2.9904,3.0467,3.0356,3.0299,3.0299,3.1117,3.1137,3.0507,3.0507,3.0372,3.0148,3.027,3.0479,3.0748,3.0987,3.1256,3.1511,3.1511,3.1768,3.2176,3.2176,3.2176,3.2176,3.6405,0.0,3.5906,0.0,3.6044,3.5918,3.6342,3.6405,3.6405,3.6405,3.6031,3.5429,3.4487,3.4098,3.3746,3.3357,3.3212,3.3124,3.3124,3.3124,3.3124,3.3124,3.3124,0.0,3.3124,3.3124,3.2792,3.2215,3.1825,0.0,3.0834,0.0,0.0,0.0,3.0778,3.1327,3.2033,3.2033,3.2429,3.3031,3.3031,3.2855,3.2593,3.2593,3.2593,3.25,3.1852,3.1609,3.1499,3.0846,3.1267,3.1924,3.1352,3.1483,3.1799,3.1799,3.1417,3.0707,2.9436,2.9087,2.8786,2.7527,2.704,2.6697,2.611,2.538,2.4752,2.4665,2.5576,2.6654,2.7588,2.8577,2.9348,2.9614,0.0,0.0,0.0,3.085,0.0,3.0926,2.9611,2.886,2.9411,2.9869,0.0,0.0,0.0,0.0,0.0,0.0,0.0,0.0,0.0,0.0,0.0,3.0325,3.0299,3.0299,3.1117,3.1256,3.0806,3.0806,3.0702,3.0537,3.1212,3.1391,3.1212,3.1421,3.1511,3.1511,3.1511,3.1951,3.2559,3.2355,3.241,3.2559,3.6405,3.6405,3.6405,3.6405,3.6405,3.6405,3.6405,3.6405,3.6405,3.6405,3.6405,3.6144,3.5545,3.455,3.3897,3.3884,3.3395,3.3124,3.3124,3.3124,3.3124,0.0,0.0,3.3124,3.3124,3.3124,3.2792,3.2215,0.0,0.0,3.1414,0.0,3.2605,3.2024,3.3087,3.3697,3.3993,3.3993,3.3993,3.3993,3.3993,3.3415,3.2593,3.2593,3.2593,3.2593,3.2593,3.2558,3.2558,3.2558,3.3206,3.3636,3.1779,3.1483,3.1799,3.1799,3.1417,3.084,3.0164,2.9965,2.9813,2.9154,2.833,2.7545,2.701,2.5788,2.4716,2.438,2.4738,2.5545,2.6948,2.7644,2.8708,3.0821,0.0,0.0,0.0,3.1542,0.0,3.0411,2.9046,2.8831,3.0609,3.0008,0.0,0.0,0.0,0.0,0.0,0.0,0.0,3.2512,3.0764,0.0,3.1193,3.0602,3.0299,3.0299,3.1117,3.1511,3.1496,3.1496,3.1122,3.0537,3.1212,3.1122,3.0567,3.1227,3.1511,3.1511,3.1511,3.1951,3.252,3.1768,3.1979,3.2492,3.6405,3.6405,3.6405,3.6405,3.6405,3.6405,3.6405,3.6405,3.6405,3.6405,3.6405,3.6342,3.6119,3.5127,3.4311,0.0,3.3395,3.3124,0.0,3.3124,3.3124,3.3124,3.3124,3.3124,3.3124,3.3124,3.2993,3.2805,0.0,0.0,0.0,3.3114,3.3291,3.3087,3.2968,3.3319,3.3993,3.3993,3.4394,3.5019,3.5019,3.4839,3.4591,3.4591,3.4591,3.4476,3.3788,3.3553,3.3449,3.282,3.3206,3.391,3.331,3.3659,3.4317,3.4317,3.4219,3.378,3.2528,3.1846,3.1201,2.9988,2.9146,2.8534,2.8375,2.7221,2.6233,2.6261,2.6783,2.767,2.9175,2.9959,3.0602,3.1279,3.1969,0.0,0.0,0.0,3.2715,3.2274,3.1281,3.0669,0.0,3.1542,0.0,0.0,0.0,0.0,0.0,0.0,0.0,0.0,3.1735,0.0,3.2063,3.1442,3.1117,3.1117,3.138,3.1511,3.1511,3.1511,3.1391,3.1182,3.1406,3.1376,3.1197,3.1406,3.1511,3.1511,3.1511,3.1951,3.2559,3.2327,3.241,3.2574,3.6405,3.6756,3.6883,3.6452,3.6756,3.6883,3.6452,3.6405,3.6405,3.6405,3.6405,3.6405,3.6405,3.5378,0.0,3.4236,3.352,3.3124,3.3124,3.3124,3.3124,3.3124,3.3124,3.3124,3.3124,0.0,0.0,3.3124,3.3115,3.3491,3.4215,3.4857,3.4922,3.4472,3.4676,3.4689,3.4591,3.4839,3.5174,3.5504,3.5504,3.5504,3.5504,3.5504,3.5504,3.5439,3.4791,3.4576,3.4461,3.3905,3.4075,3.4576,3.4576,3.4986,3.5504,3.5504,3.5504,3.5242,3.403,3.3208,3.2392,3.1237,3.0219,2.9355,2.8806,2.8025,2.7434,2.76,2.7988,2.871,3.0223,3.0823,3.1286,3.1795,3.2796,3.3589,3.3829,0.0,3.3676,0.0,0.0,0.0,0.0,3.2472,0.0,0.0,0.0,0.0,0.0,0.0,0.0,3.2751,3.1929,0.0,3.2108,3.1705,3.1511,3.1511,3.1511,3.1511,3.1511,3.1511,3.1511,3.1511,3.1511,3.1511,3.1511,3.1511,3.1511,3.1511,3.1511,3.1951,3.2574,3.2299,3.2532,3.2949,3.6534,3.7368,0.0,0.0,3.7415,0.0,3.6675,3.6581,3.6628,3.6534,3.6546,3.6499,3.6405,3.5416,3.4718,3.468,0.0,0.0,0.0,3.3124,3.3124,3.3124,3.3124,3.3124,3.3124,3.3124,3.3154,3.3197,3.4345,3.54,3.6316,3.7377,3.7212,3.6151,3.7662,3.733,3.5669,3.6237,3.6133,3.5564,3.5519,3.5504,3.5504,3.5504,3.5504,3.5504,3.5504,3.5504,3.5504,3.5504,3.5504,3.5504,3.5504,3.5504,3.5504,3.5504,3.5504,3.537,3.4726,3.4038,3.335,3.2736,3.147,3.002,2.8666,2.8344,2.8388,2.8512,2.8525,2.8955,3.0307,3.0567,3.1001,3.2302,3.3066,3.3724,3.4414,0.0,0.0,0.0,0.0,0.0,0.0,3.288,3.3615,0.0,0.0,0.0,0.0,0.0,3.2138,3.1525,3.1511,3.1511,3.1511,3.1511,3.1511,3.1511,3.1511,3.1511,3.1511,3.1511,3.1511,3.1511,3.1511,3.1511,3.1511,3.1511,3.1511,3.1511,3.1511,3.1938,3.2437,3.1739,3.2351,3.3443,0.0,0.0,3.803,3.7756,3.7939,3.803,3.7756,3.8482,3.8751,3.7815,3.7723,3.7368,3.6499,3.5755,3.5144,3.4763,3.3709,3.3124,3.3124,3.3124,3.3124,3.3124,3.3124,3.3124,3.3124,3.3124,3.3513,3.4304,3.6174,3.719,3.7405,3.8018,3.8083,3.7807,3.7689,3.7389,3.6941,3.6626,3.6402,3.6207,3.5714,3.5504,3.5504,3.5504,3.5504,3.5504,3.5504,3.5504,3.5504,3.5504,3.5504,3.5504,3.5504,3.5504,3.5504,3.5504,3.5504,3.5474,3.531,3.4397,3.3455,3.3305,3.2229,3.0955,3.0021,2.9797,2.9814,2.9837,2.9838,3.0133,3.1083,3.1256,3.1525,3.2377,3.3066,3.3724,3.4414,3.4433,0.0,0.0,3.3598,3.3699,3.3252,3.3817,3.4059,0.0,0.0,0.0,0.0,3.1735,3.166,3.1511,3.1511,3.1511,3.1511,3.1511,3.1511,3.1511,3.1511,3.1511,3.1511,3.1511,3.1511,3.1511,3.1511,3.1511,3.1511,3.1511,3.1511,3.1511,3.1511,3.1611,3.1739,3.1553,3.2076,3.2815,3.905,3.9332,3.9552,3.9006,3.9332,3.9508,3.9006,3.9492,3.9667,3.9006,3.8424,3.7848,3.7243,3.5953,3.5006,3.4751,3.3935,3.3345,3.3136,3.3124,3.3124,3.3124,3.3124,3.3124,3.3124,3.3598,3.4594,3.6134,3.7242,3.8032,3.8546,3.8754,3.8691,3.8392,3.8347,3.7988,3.7404,3.7375,3.718,3.6851,3.6207,3.5953,3.5923,3.5624,3.5504,3.5504,3.5504,3.5504,3.5504,3.5504,3.5504,3.5504,3.5504,3.5504,3.5504,3.5504,3.5504,3.5504,3.5504,3.4741,3.3799,3.32,3.2512,3.1752,3.1028,3.0837,3.0837,3.0837,3.0837,3.097,3.1409,3.175,3.2168,3.2856,3.326,3.3724,3.4414,3.4249,0.0,3.3125,3.3919,3.4129,3.314,3.3918,3.4083,3.3125,0.0,0.0,3.154,3.1511,3.1511,3.1511,3.1511,3.1511,3.1511,3.1511,3.1511,3.1511,3.1511,3.1511,3.1511,3.1511,3.1511,3.1511,3.1511,3.1511,3.1511,3.1511,3.1511,3.1511,3.1511,3.1511,3.1511,3.1511,3.216,3.3066,4.0189,4.0958,4.1295,4.0332,4.0958,4.1253,4.0318,4.0275,4.0289,3.9942,3.9169,3.8501,3.8153,3.656,3.5417,3.5239,3.466,3.3952,3.3162,3.3124,3.3154,3.3313,3.3356,3.3386,3.3543,3.4622,3.6015,3.7791,3.7956,3.8509,3.9388,3.9388,3.911,3.8571,3.9155,3.8781,3.7734,3.8197,3.8063,3.7494,3.6776,3.6537,3.6537,3.5789,3.5564,3.5639,3.5549,3.5504,3.5504,3.5504,3.5504,3.5504,3.5504,3.5504,3.5504,3.5504,3.5504,3.5504,3.5504,3.4996,3.4219,3.2961,3.2662,3.2512,3.1929,3.1795,3.1795,3.1795,3.1795,3.1795,3.1795,3.2258,3.2886,3.3529,3.3649,3.3844,3.4429,0.0,3.3412,3.272,3.3744,3.4076,3.2912,3.3849,3.4046,3.2897,3.2716,3.2385,0.0,3.1668,3.1611,3.1511,3.1511,3.1511,3.1511,3.1511,3.1511,3.1511,3.1511,3.1511,3.1511,3.1511,3.1511,3.1511,3.1511,3.1511,3.1511,3.1511,3.1511,3.1511,3.1511,3.1511,3.1511,3.1511,3.2379,3.3582,4.1518,4.1462,4.1545,4.1378,4.1462,4.1545,4.1378,4.2167,4.2085,4.0159,4.0575,4.029,3.8334,3.8711,3.8678,3.7642,3.6687,3.5223,3.3217,3.3124,3.3513,3.4428,3.447,3.4856,3.5694,3.6788,3.7472,3.7791,3.8708,3.9228,3.9388,3.9388,3.9328,3.926,3.9328,3.9269,3.908,3.8601,3.8332,3.8138,3.6956,3.6806,3.7135,3.5953,3.5848,3.6267,3.5699,3.5504,3.5504,3.5504,3.5504,3.5504,3.5504,3.5504,3.5504,3.5504,3.5504,3.5504,3.5504,3.4996,3.4324,3.3529,3.3335,3.332,3.3215,3.3185,3.3185,3.3185,3.3185,3.3185,3.3185,3.3275,3.3559,3.4249,3.4354,3.4384,3.4503,0.0,3.4091,3.3413,3.4069,3.4501,3.4279,3.4453,3.4501,3.4279,3.3752,3.315,3.2465,3.2437,3.2132,3.1524,3.1511,3.1511,3.1511,3.1511,3.1511,3.1511,3.1511,3.1511,3.1511,3.1511,3.1511,3.1511,3.1511,3.1511,3.1511,3.1511,3.1511,3.1511,3.1511,3.1511,3.1511,3.1511,3.2379,3.3582,4.2629,4.2508,4.2508,4.2508,4.2508,4.2508,4.2508,4.2941,4.29,4.1879,4.1643,4.1197,4.0118,3.9654,3.9196,3.8629,3.7864,3.6816,3.5387,3.4444,3.4191,3.4664,3.521,3.5987,3.706,3.7548,3.8069,3.8671,3.9141,3.9388,3.9388,3.9388,3.9388,3.9388,3.9388,3.9388,3.9394,3.908,3.8945,3.8856,3.7898,3.7689,3.7793,3.6522,3.6222,3.6402,3.5744,3.5504,3.5504,3.5504,3.5504,3.5504,3.5504,3.5504,3.5504,3.5504,3.5504,3.5504,3.5504,3.5265,3.4876,3.4219,3.4054,3.3933,3.3574,3.3499,3.3499,3.3499,3.3499,3.3499,3.3499,3.3784,3.4159,3.4459,3.4503,0.0,0.0,3.42,3.3877,3.3585,3.416,3.4468,3.411,3.4388,3.4452,3.4094,3.3774,3.3453,3.3172,3.2803,3.2437,3.2092,3.1726,3.1511,3.1511,3.1511,3.1511,3.1511,3.1511,3.1511,3.1511,3.1511,3.1511,3.1511,3.1511,3.1511,3.1511,3.1511,3.1511,3.1511,3.1511,3.1511,3.1511,3.1511,3.2638,3.4184,4.329,4.329,4.329,4.329,4.329,4.329,4.329,4.329,4.321,4.2941,4.2371,4.1891,4.1629,4.0644,3.9956,3.9815,3.9198,3.8501,3.7845,3.6469,3.5561,3.5427,3.6383,3.7329,3.8144,3.8182,3.8583,3.9388,3.9388,3.9388,3.9388,3.9388,3.9388,3.9388,3.9388,3.9388,3.9388,3.9388,3.9388,3.9328,3.8661,3.8482,3.8482,3.7195,3.6791,3.6836,3.6013,3.5729,3.5714,3.5549,3.5504,3.5504,3.5504,3.5504,3.5504,3.5504,3.5504,3.5504,3.5504,3.5504,3.5385,3.4846,3.4711,3.4608,3.4083,3.4103,3.4227,3.4227,3.4227,3.4227,3.4227,3.4509,3.4711,3.4711,0.0,0.0,0.0,3.4454,3.4205,3.4082,3.4519,3.4612,3.4127,3.454,3.4545,3.3885,3.3836,3.3761,3.3608,3.296,3.252,3.2355,3.1796,3.1511,3.1511,3.1511,3.1511,3.1511,3.1511,3.1511,3.1511,3.1511,3.1511,3.1511,3.1511,3.1511,3.1511,3.1511,3.1511,3.1511,3.1511,3.1511,3.1525,3.1675,3.2865,3.4484,4.329,4.329,4.329,4.329,4.329,4.329,4.329,4.329,4.29,4.185,4.2548,4.2765,4.1726,4.2423,4.2763,4.2192,4.12,4.0305,3.9632,3.8896,3.8202,3.7577,3.8583,3.9213,3.9265,3.9265,3.9301,3.9388,3.9388,3.9388,3.9388,3.9388,3.9388,3.9388,3.9388,3.9388,3.9388,3.9388,3.9388,3.9328,3.8661,3.8766,3.92,3.7853,3.7719,3.8093,3.6851,3.6417,3.6327,3.5714,3.5504,3.5504,3.5504,3.5504,3.5504,3.5504,3.5504,3.5504,3.5504,3.5504,3.5489,3.5444,3.5429,3.5415,3.537,3.5886,3.6368,3.6368,3.6368,3.6368,3.6368,3.5837,3.5429,3.5429,0.0,0.0,3.5608,3.6057,3.6252,3.5605,3.5518,3.5514,3.5447,3.5498,3.5251,3.4592,3.4528,3.426,3.3633,3.296,3.2272,3.1611,3.1524,3.1511,3.1511,3.1511,3.1511,3.1511,3.1511,3.1511,3.1511,3.1511,3.1511,3.1511,3.1511,3.1511,3.1511,3.1511,3.1511,3.1511,3.1511,3.1511,3.1585,3.2183,3.2906,3.3765,4.329,4.329,4.329,4.329,4.329,4.329,4.329,4.329,4.3155,4.2725,4.3036,4.3155,4.2684,4.3036,4.32,4.2985,4.2584,4.2075,4.144,4.079,3.9925,3.8826,3.9177,3.9388,3.9388,3.9388,3.9388,3.9388,3.9388,3.9388,3.9388,3.9388,3.9388,3.9388,3.9388,3.9388,3.9388,3.9388,3.9388,3.9394,3.9125,3.9185,3.932,3.8377,3.8167,3.8227,3.6956,3.6492,3.6387,3.5729,3.5504,3.5504,3.5504,3.5504,3.5504,3.5504,3.5504,3.5504,3.5504,3.5504,3.5504,3.5504,3.5504,3.5619,3.6086,3.6384,3.6722,3.7233,3.7338,3.7338,3.7338,3.7115,3.692,3.692,0.0,3.7261,3.6998,3.722,3.7116,3.6456,3.6363,3.6146,3.565,3.56,3.5492,3.523,3.523,3.5115,3.4847,3.4186,3.3114,3.1553,3.1951,3.1951,3.1496,3.1511,3.1511,3.1511,3.1511,3.1511,3.1511,3.1511,3.1511,3.1511,3.1511,3.1511,3.1539,3.1979,3.191,3.1568,3.2007,3.2152,3.2138,3.2422,3.3483,3.4965,4.329,4.329,4.329,4.329,4.329,4.329,4.329,4.329,4.329,4.329,4.329,4.329,4.329,4.329,4.329,4.329,4.329,4.3135,4.2701,4.1901,4.0786,3.9448,3.9388,3.9388,3.9388,3.9388,3.9388,3.9388,3.9388,3.9388,3.9388,3.9388,3.9388,3.9388,3.9388,3.9388,3.9388,3.9388,3.9388,3.9388,3.9388,3.9388,3.9364,3.8901,3.8706,3.8571,3.7479,3.6956,3.6671,3.6028,3.5669,3.5504,3.5504,3.5504,3.5504,3.5504,3.5504,3.5504,3.5504,3.5504,3.5504,3.5504,3.5504,3.5701,3.6446,3.6798,3.7203,3.7991,3.8149,3.8149,3.8149,3.795,3.7793,3.7793,3.8007,3.814,3.8142,3.7978,3.767,3.7199,3.6705,3.6214,3.565,3.56,3.5515,3.5316,3.5293,3.5184,3.4981,3.4736,3.3846,3.2201,3.2465,3.2355,3.1853,3.1611,3.1511,3.1511,3.1511,3.1511,3.1511,3.1511,3.1511,3.1511,3.1511,3.1511,3.1553,3.2299,3.2299,3.191,3.241,3.2686,3.2822,3.2826,3.4014,3.5742,4.329,4.329,4.329,4.329,4.329,4.329,4.329,4.329,4.329,4.329,4.329,4.329,4.329,4.329,4.329,4.329,4.329,4.329,4.329,4.2102,4.0786,3.9448,3.9388,3.9388,3.9388,3.9388,3.9388,3.9388,3.9388,3.9388,3.9388,3.9388,3.9388,3.9388,3.9388,3.9388,3.9388,3.9388,3.9388,3.9388,3.9388,3.9388,3.9388,3.9388,3.9388,3.9334,3.8631,3.7973,3.7315,3.6701,3.6058,3.5519,3.5504,3.5504,3.5504,3.5504,3.5504,3.5504,3.5504,3.5504,3.5504,3.5504,3.5504,3.5701,3.6446,3.7249,3.8007,3.8772,3.8908,3.8908,3.8908,3.8302,3.7822,3.7822,3.8442,3.8908,3.8908,3.8321,3.7922,3.7905,3.6529,3.56,3.56,3.56,3.5316,3.4664,3.46,3.4309,3.3649,3.4235,3.4309,3.3608,3.2933,3.2629,3.2586,3.1881,3.1511,3.1511,3.1511,3.1511,3.1511,3.1511,3.1511,3.1511,3.1511,3.1511,3.1553,3.2299,3.2629,3.2602,3.2629,3.2989,3.3514,3.3532,3.4395,3.582,4.329,4.329,4.329,4.329,4.329,4.329,4.329,4.329,4.329,4.329,4.329,4.329,4.329,4.329,4.329,4.329,4.329,4.2901,4.2028,4.1594,4.0786,3.9448,3.9388,3.9388,3.9388,3.9388,3.9388,3.9388,3.9388,3.9388,3.9388,3.9388,3.9388,3.9388,3.9388,3.9388,3.9388,3.9388,3.9388,3.9388,3.9388,3.9388,3.9388,3.9388,3.9388,3.9334,3.8631,3.8257,3.7928,3.6851,3.6357,3.6118,3.5654,3.5504,3.5504,3.5504,3.5504,3.5504,3.5504,3.5863,3.6134,3.5651,3.5504,3.5846,3.7145,3.7632,3.8177,3.9463,3.9756,3.9756,3.9756,3.9558,3.9411,3.9411,3.9584,3.9756,3.9756,3.9118,3.8481,3.7973,3.7043,3.6214,3.565,3.56,3.5515,3.5316,3.5316,3.48,3.3659,3.4681,3.4544,3.2949,3.3172,3.3066,3.2586,3.1881,3.1511,3.1511,3.1511,3.1511,3.1511,3.1511,3.1511,3.1511,3.1511,3.1511,3.1582,3.2799,3.3323,3.3478,3.4412,3.4865,3.4974,3.4969,3.5202,3.5748,4.329,4.329,4.329,4.329,4.329,4.329,4.329,4.329,4.329,4.329,4.329,4.329,4.329,4.329,4.329,4.329,4.329,4.2895,4.1871,4.1811,4.1332,4.0247,4.0187,3.9948,3.9388,3.9679,3.9679,3.9388,3.9679,3.9679,3.9388,3.9388,3.9388,3.9388,3.9388,3.9388,3.9388,3.9388,3.9388,3.9388,3.9388,3.9388,3.9388,3.9388,3.9388,3.9364,3.8945,3.8616,3.8272,3.7494,3.6911,3.6372,3.5714,3.5504,3.5504,3.5504,3.5504,3.5554,3.5863,3.6244,3.6554,3.6446,3.6399,3.6723,3.7978,3.8234,3.8596,3.985,4.0096,4.0096,4.0096,4.0096,4.0096,4.0096,4.0096,4.0096,4.0096,3.9486,3.8717,3.799,3.7246,3.6468,3.5667,3.56,3.56,3.56,3.5362,3.4981,3.4423,3.4657,3.4496,3.3802,3.3675,3.3531,3.3391,3.2691,3.2048,3.1511,3.1511,3.1511,3.1511,3.1511,3.1511,3.1511,3.178,3.175,3.1627,3.3294,3.3822,3.3746,3.5154,3.5644,3.5578,3.5592,3.5753,3.607,4.329,4.329,4.329,4.329,4.329,4.329,4.329,4.329,4.329,4.329,4.329,4.329,4.329,4.329,4.329,4.329,4.329,4.3045,4.244,4.2396,4.2111,4.1452,4.1422,4.0816,3.9619,4.0187,4.0172,3.9514,4.0113,4.0068,3.9388,3.9388,3.9388,3.9388,3.9388,3.9388,3.9388,3.9388,3.9388,3.9388,3.9388,3.9388,3.9388,3.9388,3.9388,3.9388,3.9388,3.902,3.8467,3.8407,3.7584,3.6462,3.5863,3.5639,3.5594,3.5594,3.5582,3.575,3.6415,3.6691,3.6994,3.7719,3.795,3.8177,3.8772,3.8908,3.9139,3.9927,4.0096,4.0096,4.0096,4.0096,4.0096,4.0096,4.0096,4.0096,4.0096,3.9486,3.8717,3.799,3.7246,3.6468,3.5667,3.56,3.56,3.56,3.4965,3.4847,3.5385,3.4325,3.4227,3.5385,3.4301,3.3987,3.4576,3.4002,3.3033,3.1682,3.1682,3.1668,3.1582,3.1582,3.1598,3.163,3.2228,3.2183,3.1823,3.3787,3.4286,3.3948,3.5425,3.5915,3.579,3.5804,3.6133,3.6615,4.329,4.329,4.329,4.329,4.329,4.329,4.329,4.329,4.329,4.329,4.329,4.329,4.329,4.329,4.329,4.329,4.329,4.3045,4.244,4.2396,4.2111,4.1452,4.1422,4.125,4.0965,4.11,4.0846,4.0187,4.0337,4.0068,3.9388,3.9388,3.9388,3.9388,3.9388,3.9388,3.9388,3.9388,3.9388,3.9388,3.9388,3.9388,3.9388,3.9388,3.9388,3.9388,3.9388,3.9334,3.911,3.8571,3.7868,3.718,3.7045,3.6656,3.6267,3.6267,3.6336,3.6384,3.6554,3.7467,3.8453,3.8635,3.9129,3.948,3.9005,3.8908,3.9139,3.9927,4.0096,4.0096,4.0096,4.0096,4.0096,4.0096,4.0096,4.0096,4.0096,3.9486,3.8717,3.799,3.7246,3.6468,3.5667,3.56,3.56,3.56,3.4965,3.4431,3.4037,3.426,3.4284,3.4037,3.426,3.4455,3.46,3.4503,3.4011,3.3156,3.3156,3.2879,3.2355,3.2355,3.2325,3.2273,3.2452,3.2721,3.3201,3.4776,3.5697,3.6214,3.7704,3.8226,3.8087,3.7537,3.7018,3.6691,4.329,4.329,4.329,4.329,4.329,4.329,4.329,4.329,4.329,4.329,4.329,4.329,4.329,4.329,4.329,4.329,4.329,4.3155,4.2851,4.2821,4.2671,4.2327,4.2312,4.2312,4.2312,4.2312,4.1848,4.0876,4.0876,4.0531,3.9888,3.9574,3.9388,3.9388,3.9388,3.9388,3.9388,3.9388,3.9388,3.9388,3.9388,3.9388,3.9388,3.9388,3.9388,3.9388,3.9388,3.9388,3.932,3.8616,3.8167,3.7764,3.7165,3.6746,3.6432,3.6118,3.6054,3.6134,3.6492,3.7188,3.7987,3.8701,3.9236,3.9516,3.9489,3.9463,3.9584,4.002,4.0096,4.0096,4.0096,4.0096,4.0096,4.0096,4.0096,4.0096,4.0096,3.9774,3.9106,3.8041,3.7872,3.7422,3.6282,3.5842,3.56,3.56,3.4965,3.4592,3.456,3.4284,3.4423,3.5111,3.5119,3.5289,3.5649,3.6026,3.5877,3.5111,3.4445,3.3762,3.3108,3.3439,3.3376,3.304,3.4087,3.4146,3.3652,3.5807,3.652,3.641,3.8259,3.8718,3.8358,3.833,3.76,3.6737,4.329,4.329,4.329,4.329,4.329,4.329,4.329,4.329,4.329,4.329,4.329,4.329,4.329,4.329,4.329,4.329,4.329,4.329,4.329,4.329,4.329,4.329,4.329,4.329,4.329,4.329,4.2746,4.1587,4.1467,4.1055,4.0382,3.9723,3.9388,3.9388,3.9388,3.9388,3.9388,3.9388,3.9388,3.9388,3.9388,3.9388,3.9388,3.9388,3.9388,3.9388,3.9388,3.9388,3.9334,3.8751,3.8556,3.8377,3.733,3.6911,3.6686,3.6028,3.5842,3.6014,3.6631,3.6904,3.7306,3.8591,3.8989,3.9246,3.9782,3.9995,4.0096,4.0096,4.0096,4.0096,4.0096,4.0096,4.0096,4.0096,4.0096,4.0096,4.0096,4.0096,3.9605,3.8261,3.8514,3.8328,3.7117,3.6282,3.5825,3.5825,3.5071,3.483,3.5385,3.4489,3.4758,3.6575,3.6261,3.6369,3.6975,3.7719,3.7655,3.6777,3.5858,3.4978,3.4172,3.4637,3.4598,3.4176,3.5983,3.5826,3.4425,3.6951,3.7281,3.6355,3.8335,3.8734,3.8262,3.8718,3.8101,3.7098,4.329,4.329,4.329,4.329,4.329,4.329,4.329,4.329,4.329,4.329,4.329,4.329,4.329,4.329,4.329,4.329,4.329,4.329,4.329,4.329,4.329,4.329,4.329,4.329,4.329,4.329,4.297,4.2261,4.1692,4.1055,4.0382,3.9723,3.9388,3.9388,3.9388,3.9388,3.9388,3.9388,3.9388,3.9388,3.9388,3.9388,3.9388,3.9388,3.9388,3.9388,3.9388,3.9388,3.9373,3.932,3.9239,3.9245,3.908,3.8616,3.8003,3.7345,3.7233,3.7359,3.7585,3.8104,3.8646,3.8854,3.9437,3.9782,3.9209,3.961,4.0096,4.0096,4.0096,4.0096,4.0096,4.0096,4.0096,4.0096,4.0096,4.0096,4.0096,4.0096,3.9791,3.8937,3.8379,3.7973,3.777,3.7077,3.6643,3.6643,3.5371,3.4624,3.4736,3.5161,3.5556,3.5844,3.6989,3.7641,3.7753,3.8481,3.8136,3.6736,3.787,3.7711,3.6335,3.5824,3.5842,3.6362,3.6666,3.6965,3.7319,3.8332,3.8625,3.8543,3.9534,3.9876,3.9731,3.9113,3.8772,3.8591,4.329,4.329,4.329,4.329,4.329,4.329,4.329,4.329,4.329,4.329,4.329,4.329,4.329,4.329,4.329,4.329,4.329,4.329,4.329,4.329,4.329,4.329,4.329,4.329,4.329,4.329,4.3155,4.2895,4.1878,4.1235,4.0935,3.9903,3.9388,3.9388,3.9388,3.9388,3.9388,3.9388,3.9388,3.9388,3.9388,3.9388,3.9388,3.9388,3.9388,3.9388,3.9388,3.9388,3.9388,3.9388,3.9388,3.9313,3.896,3.8631,3.8257,3.7599,3.7195,3.6999,3.7076,3.7033,3.71,3.7496,3.823,3.8816,3.8881,3.9516,4.0096,4.0096,4.0096,4.0096,4.0096,4.0096,4.0096,4.0096,4.0096,4.0096,4.0096,4.0096,3.9977,3.9656,3.8599,3.8075,3.8464,3.7838,3.7398,3.7398,3.6824,3.6439,3.6439,3.6757,3.7125,3.7527,3.8166,3.8514,3.8514,3.9266,3.9084,3.8003,3.8213,3.7551,3.6167,3.7117,3.7251,3.6822,3.8105,3.833,3.7892,3.9076,3.9315,3.8962,3.9782,4.0096,3.9995,3.9209,3.8908,3.8908]}]]